GFSSE_sfc_thetae_000.txt.gz
Theta_e
354 361 371 371 371 371 371 371 371 370 368 367 366 366 365 365 365 367 368 367 367 365 364 362 361 360 360 361 360 362 363 364 363 362 362 362 361 361 362 360 361 353 358
359 363 371 371 370 371 371 371 372 371 369 368 367 366 365 366 364 365 367 366 364 363 363 362 361 361 360 361 362 361 364 365 365 363 363 362 360 359 358 357 362 355 358
359 364 367 371 371 372 372 371 371 371 369 368 367 366 365 366 365 363 365 365 362 361 360 361 360 360 360 361 362 360 364 366 366 364 364 355 355 359 360 361 360 359 358
362 364 365 371 372 373 373 373 373 371 368 366 366 366 366 364 363 364 363 362 362 361 361 359 359 360 360 361 363 363 362 364 365 362 359 353 352 360 361 360 360 359 358
363 363 367 372 373 372 372 373 372 371 368 366 365 366 365 364 363 364 363 360 360 361 360 360 360 359 360 361 363 363 362 364 363 359 357 355 352 360 361 360 359 359 359
357 364 369 372 372 371 371 371 371 370 368 367 366 366 365 365 363 362 361 361 359 360 360 359 359 360 360 362 363 364 362 363 362 358 355 357 354 364 361 360 358 358 359
361 364 365 371 373 372 370 371 371 368 368 368 367 366 365 365 364 363 362 362 361 360 360 361 358 361 360 362 363 365 363 362 358 355 355 358 357 364 360 360 359 358 357
362 364 364 372 373 372 369 371 371 371 370 370 368 367 365 366 366 366 362 361 361 360 360 361 361 361 361 362 363 363 364 362 357 355 355 358 360 363 361 360 359 359 355
363 365 365 365 367 370 369 370 371 371 371 370 369 368 367 365 365 364 363 362 361 361 361 360 361 361 361 361 363 363 363 361 356 356 356 356 362 364 361 360 361 359 358
362 366 366 366 367 366 367 370 370 370 370 369 367 364 364 364 364 363 366 366 362 361 360 360 362 361 363 363 362 361 361 359 353 353 355 355 363 364 359 360 360 360 359
361 364 366 365 367 368 367 366 368 367 365 363 363 364 365 360 360 361 363 365 361 361 361 360 362 361 362 360 362 362 359 350 349 354 354 361 363 363 361 362 361 361 360
355 361 361 363 364 365 364 363 362 361 360 361 362 364 362 360 364 362 361 361 359 360 360 362 362 361 361 356 356 358 355 351 351 357 355 361 361 363 363 362 361 361 360
357 357 363 362 363 362 360 359 362 358 357 357 358 359 362 361 361 358 362 359 359 360 357 360 359 357 355 356 356 353 352 357 356 355 355 362 362 363 362 362 361 361 360
354 356 361 364 364 362 362 350 357 358 357 355 355 359 355 353 355 360 360 362 361 360 360 360 359 359 357 356 354 356 355 357 355 356 357 361 362 362 363 362 361 361 360
351 356 360 364 366 362 350 351 352 357 355 357 357 355 352 351 353 357 355 357 360 362 363 357 357 356 357 355 358 354 355 355 354 357 355 360 363 363 362 362 360 359 360
352 355 361 363 367 365 364 357 357 358 356 353 357 357 354 354 358 357 354 355 356 361 358 359 356 354 354 357 355 355 354 355 355 356 354 357 359 363 363 363 362 360 359
354 356 358 362 364 365 366 364 362 360 358 354 355 360 355 355 356 354 353 352 357 361 358 358 357 357 355 356 356 355 355 354 357 352 357 359 356 361 363 363 362 361 359
356 358 361 357 362 365 366 365 362 359 359 357 354 355 356 357 356 358 353 351 355 359 358 355 352 351 353 354 354 354 354 354 355 355 355 354 354 354 361 363 362 360 361
361 361 361 362 361 363 365 362 361 362 359 357 354 352 357 355 356 354 353 352 355 356 357 356 349 351 349 351 352 354 353 354 355 353 356 353 353 355 355 359 359 358 360
358 361 363 362 365 365 363 363 362 355 353 355 353 354 353 354 353 353 353 353 353 350 354 356 350 350 349 347 351 351 349 354 357 356 353 352 354 356 355 353 352 354 359
356 360 362 361 364 363 362 357 352 349 351 352 354 356 355 353 352 352 350 352 354 352 351 353 352 349 349 350 346 345 345 351 352 354 353 352 352 354 354 353 352 351 350
356 358 359 361 363 361 362 358 356 358 354 351 355 353 350 350 350 350 350 351 352 348 351 352 350 347 349 348 342 342 334 343 348 351 352 352 349 352 352 353 349 349 350
354 357 358 360 360 361 357 359 357 355 349 341 341 348 350 349 349 349 350 350 350 353 348 350 349 345 344 348 347 338 332 334 341 349 350 349 349 349 350 351 351 351 349
353 354 359 361 362 360 356 352 351 345 336 340 342 348 345 347 349 349 349 350 352 352 347 351 348 342 343 342 343 346 343 346 335 334 345 349 350 348 347 349 349 352 351
354 354 357 361 361 358 355 353 352 341 343 346 343 345 348 349 350 348 348 349 351 352 351 349 350 345 344 341 339 340 342 343 344 336 334 339 345 348 348 347 350 350 352
349 352 356 359 358 355 352 349 349 345 343 344 344 343 346 348 349 348 347 349 350 350 349 347 349 348 345 343 341 339 339 337 340 338 334 337 337 342 346 347 348 347 349

GFSSE_sfc_thetae_003.txt.gz
Theta_e
356 365 372 373 374 373 372 371 370 369 368 369 369 368 368 369 369 369 368 367 367 365 363 362 362 363 362 362 363 363 363 364 364 363 363 362 361 361 361 361 358 353 356
359 365 371 373 373 373 373 373 371 371 368 368 368 368 368 368 366 368 368 367 366 365 363 363 362 362 362 362 363 365 364 366 365 364 363 362 361 360 359 360 358 357 358
359 365 368 371 372 373 373 373 372 371 369 367 367 367 366 367 365 365 366 363 363 363 363 362 362 362 362 363 361 365 364 365 365 364 362 357 356 360 361 361 360 358 357
363 364 367 371 372 372 373 373 373 371 369 369 368 368 367 365 366 366 364 364 363 362 360 360 361 361 361 362 362 362 364 363 364 363 356 354 356 361 361 360 359 359 358
362 365 368 374 374 374 375 374 372 371 369 368 368 367 365 364 365 365 364 365 363 362 362 361 360 360 361 362 362 361 365 363 361 359 355 350 352 360 361 360 359 359 356
363 367 370 374 374 374 374 373 372 370 368 367 369 367 366 365 365 366 363 363 362 362 361 361 360 361 361 361 361 361 364 360 359 356 354 356 354 363 361 360 359 359 357
362 365 367 373 374 373 372 372 371 370 369 368 369 368 367 366 367 366 363 363 363 363 362 362 360 361 361 362 361 363 363 360 354 354 353 355 356 364 362 361 359 359 356
360 364 366 374 374 373 372 372 371 370 369 369 370 369 367 367 368 366 365 363 362 362 364 362 360 362 361 362 362 364 363 362 356 354 354 354 359 362 361 360 360 358 357
361 361 364 367 370 372 373 372 371 371 370 370 371 370 369 368 365 365 367 366 362 362 362 362 362 362 362 361 362 363 362 359 355 355 355 354 362 363 362 360 361 357 358
359 359 359 361 363 364 365 374 373 373 372 370 369 368 367 366 363 364 367 366 363 361 361 361 362 363 363 365 363 362 361 360 353 353 354 355 362 365 361 360 360 359 358
358 357 359 359 360 361 363 366 372 371 369 368 366 366 365 358 358 359 363 365 362 362 361 361 361 362 363 362 362 362 361 352 350 352 354 358 363 362 361 363 361 360 359
353 354 358 358 359 359 364 359 359 359 356 355 355 356 357 355 356 360 361 363 362 360 361 362 364 362 361 355 355 360 354 352 350 354 354 359 362 364 361 363 361 360 358
352 354 355 357 355 354 355 353 354 352 351 351 350 352 355 356 354 353 354 357 354 359 355 358 360 358 355 355 352 352 351 350 352 355 355 361 362 364 361 362 362 359 359
349 353 354 354 353 352 350 346 347 352 351 348 348 350 350 348 348 349 351 353 353 355 353 354 355 353 352 354 353 351 350 351 351 353 354 361 361 363 362 361 360 360 359
346 352 354 353 351 349 341 337 332 344 350 349 349 350 348 345 343 346 346 349 351 351 351 351 349 350 351 351 352 353 353 350 352 352 352 360 362 362 364 360 359 358 358
348 352 355 354 353 346 340 333 329 340 349 350 350 349 346 344 344 347 346 346 347 348 349 351 350 349 347 350 351 351 352 351 351 350 351 350 359 362 363 362 361 359 359
347 352 354 355 354 350 348 341 336 349 348 346 340 346 347 346 347 345 346 343 345 348 349 347 350 349 348 350 350 350 351 351 352 352 353 352 353 360 362 363 361 362 362
349 350 353 358 355 355 354 353 352 351 347 347 346 346 348 347 346 346 345 343 345 348 348 347 346 346 345 347 345 349 351 351 353 350 353 352 351 352 360 363 362 361 361
350 352 351 353 354 355 354 351 348 348 349 349 347 347 347 348 349 346 345 344 344 345 345 347 343 345 343 345 345 346 347 347 348 352 351 351 351 352 354 360 363 362 361
353 353 352 353 354 353 353 349 348 343 344 345 344 346 345 347 349 345 345 344 345 343 343 345 341 340 343 343 348 345 345 347 348 346 347 351 350 351 353 351 356 358 361
352 351 351 351 351 349 349 342 342 338 340 340 341 345 344 344 344 344 342 344 343 343 341 341 342 340 341 344 340 339 341 344 345 348 347 346 349 351 351 352 352 353 355
350 351 349 349 350 349 348 344 341 340 340 340 342 343 344 343 343 342 342 342 341 342 342 342 342 338 341 342 334 335 328 333 342 346 346 345 345 349 349 351 350 350 349
349 350 347 348 349 348 346 343 341 338 336 336 338 338 342 343 342 341 341 341 342 341 341 342 342 337 336 341 340 333 327 324 334 341 343 343 344 344 346 349 349 349 348
348 350 350 348 348 347 346 341 337 336 332 333 336 335 339 343 342 342 341 342 343 341 340 341 342 338 338 335 338 343 338 337 329 328 337 342 344 343 344 344 347 348 348
350 348 340 350 347 346 345 341 337 334 334 335 335 334 335 338 340 343 341 341 342 342 342 341 339 337 336 335 333 334 335 337 338 332 327 331 339 342 343 343 346 347 349
348 347 341 347 345 342 340 339 336 335 335 333 333 334 335 337 338 341 341 340 341 342 341 342 341 338 337 336 335 336 334 333 332 332 327 328 330 336 341 342 342 343 346

GFSSE_sfc_thetae_006.txt.gz
Theta_e
359 366 372 373 372 371 370 369 369 369 368 368 370 370 369 368 368 368 368 366 364 363 361 362 363 362 362 361 363 363 362 362 362 361 361 361 360 360 360 358 357 351 356
361 366 371 372 373 372 372 371 369 369 368 368 369 369 369 369 368 368 367 366 364 363 363 362 363 363 363 362 363 362 363 364 365 362 361 362 361 360 358 357 357 354 356
361 366 369 371 372 372 372 371 370 370 368 367 368 368 367 368 368 365 365 365 364 364 363 363 362 363 363 361 363 363 363 363 365 365 361 354 353 359 359 358 357 357 356
362 364 366 371 372 373 373 372 370 369 368 368 367 366 367 367 366 365 364 363 362 362 362 362 361 362 363 361 361 364 363 363 362 362 354 354 354 360 359 358 358 357 357
361 364 366 372 372 373 373 372 371 369 369 369 367 365 364 366 366 364 364 364 363 361 361 360 360 361 362 362 360 364 363 363 362 357 351 350 352 359 359 359 358 357 356
363 365 371 372 373 374 373 372 371 369 368 369 368 365 364 363 365 365 365 363 363 361 361 361 360 360 361 362 361 364 363 361 359 354 352 354 353 360 360 359 359 355 356
362 365 368 372 373 374 374 372 371 368 367 368 368 365 364 364 365 364 362 362 362 362 361 362 360 361 361 361 362 363 362 358 353 352 351 352 354 361 359 359 359 356 356
361 364 366 372 372 372 373 372 371 369 367 368 368 366 365 365 365 363 364 362 362 362 362 361 360 361 361 362 362 362 360 358 355 352 352 352 359 362 360 359 359 357 355
362 362 363 365 366 370 372 371 370 370 369 368 368 369 367 365 364 364 364 364 362 361 362 361 361 362 361 361 362 362 361 358 353 352 354 352 360 362 360 360 358 357 353
359 362 363 363 362 364 364 371 370 370 369 366 367 366 366 366 363 364 364 365 362 361 361 360 362 362 364 361 360 361 361 358 350 352 353 352 360 364 360 360 357 358 357
356 358 360 361 360 360 362 366 370 369 366 366 366 367 365 355 356 359 363 363 362 361 361 360 360 362 361 361 360 361 360 352 350 348 351 357 361 364 361 361 360 358 357
351 353 357 358 357 358 363 358 360 360 358 357 355 354 357 355 354 358 359 361 362 361 361 361 362 361 359 355 353 358 353 352 348 352 351 358 361 364 363 363 360 357 355
352 354 355 357 357 357 357 355 353 351 351 350 350 352 352 354 353 355 351 354 352 357 353 358 359 357 356 354 352 350 350 350 349 352 354 358 360 362 361 362 360 359 356
350 353 355 356 354 352 352 351 351 350 348 347 348 347 349 350 348 348 349 350 350 350 350 351 353 353 352 354 352 350 350 349 349 348 353 358 360 362 361 360 360 358 358
348 351 352 352 350 349 346 345 344 347 348 348 346 346 347 346 346 348 348 348 348 349 349 347 348 348 351 352 352 351 350 350 350 349 348 356 360 361 362 360 359 358 358
348 350 351 350 350 345 341 336 333 336 345 347 348 346 346 344 342 343 345 344 345 346 347 348 346 346 347 347 349 351 350 349 350 349 349 351 358 361 361 362 360 358 358
348 351 351 349 350 343 339 333 328 330 344 346 342 347 344 342 341 342 344 343 343 345 345 346 346 346 345 349 348 349 349 350 349 350 350 348 350 360 362 363 362 361 360
349 351 351 354 350 344 342 342 334 341 346 344 343 338 345 343 344 344 342 343 343 343 344 343 343 343 343 345 345 346 347 346 349 350 349 349 349 351 360 361 362 361 361
349 350 351 353 350 348 349 347 346 346 344 343 344 344 344 345 345 343 343 342 342 343 343 343 341 341 340 342 343 344 345 346 349 351 349 349 349 348 349 359 361 361 361
349 350 351 351 350 351 350 346 345 343 343 345 344 345 345 346 346 342 340 341 342 340 341 342 339 341 339 340 344 344 345 344 346 346 348 350 349 350 351 350 356 358 361
349 349 349 348 349 346 343 340 338 338 338 339 341 342 344 343 347 344 341 341 339 340 339 342 338 335 336 339 335 336 340 344 344 344 345 347 348 348 350 350 349 351 354
348 349 347 347 346 345 344 341 339 337 337 337 336 340 344 343 342 341 339 338 339 339 338 339 338 336 336 339 332 330 327 331 339 342 344 344 345 348 349 348 348 349 350
330 344 347 345 344 345 343 341 338 337 335 333 334 335 338 341 341 340 340 338 338 340 339 340 339 336 333 337 336 330 324 323 330 337 341 342 344 342 345 347 348 348 348
332 344 348 344 345 344 343 337 335 333 330 331 332 334 335 338 339 340 339 339 339 338 337 339 341 338 335 333 335 340 334 332 326 323 333 339 342 341 342 344 346 346 347
336 342 342 345 344 342 341 337 334 330 331 332 332 332 333 333 336 339 339 338 339 339 338 339 338 335 335 333 331 331 332 333 332 327 325 330 338 341 342 344 344 345 347
346 339 342 344 342 339 337 335 333 331 329 329 329 330 332 332 334 337 340 338 339 339 339 340 339 335 336 333 332 332 332 330 329 329 327 329 330 333 340 342 342 343 345

GFSSE_sfc_thetae_009.txt.gz
Theta_e
357 365 370 369 368 369 369 369 368 369 368 369 369 368 368 368 367 367 366 364 363 362 362 362 361 361 361 361 362 361 361 361 360 360 359 359 359 358 358 357 355 349 353
360 365 371 371 370 369 369 370 369 369 369 369 368 368 367 368 367 365 366 364 362 361 362 362 362 361 361 361 362 361 361 363 362 359 358 360 359 358 357 356 354 352 355
361 365 367 370 371 370 369 370 370 369 368 368 370 368 368 368 366 365 365 363 362 362 362 362 361 362 361 362 361 361 362 362 363 361 360 352 353 358 357 357 355 354 354
361 364 365 370 371 371 370 370 370 368 367 368 368 368 368 368 367 366 365 364 364 362 362 362 361 362 361 361 362 362 362 361 360 361 353 353 353 358 357 357 357 356 354
361 363 364 372 371 371 371 370 369 369 369 368 366 365 365 366 365 364 363 363 362 362 361 361 361 361 360 360 363 362 362 361 361 356 350 350 352 356 358 358 356 356 355
361 362 367 372 372 372 371 370 369 369 369 368 367 364 364 365 364 364 364 363 363 361 361 361 360 360 360 360 363 362 362 361 359 351 350 355 351 359 358 358 357 356 354
360 362 366 371 371 371 372 371 369 368 369 368 365 364 363 364 365 364 362 363 362 361 362 360 360 360 360 360 362 363 362 359 352 350 350 352 352 360 359 358 355 355 355
360 364 365 370 371 372 373 371 370 368 367 365 365 363 363 364 365 362 362 361 362 361 361 361 361 360 361 360 360 362 361 358 355 351 351 352 357 361 359 358 356 354 356
361 360 360 363 368 372 373 372 370 368 367 368 367 366 365 364 363 361 364 362 362 361 362 360 359 361 360 362 360 360 361 357 351 351 352 352 360 361 359 359 357 355 356
357 359 360 360 359 360 366 372 370 369 368 365 365 365 365 364 362 363 365 364 361 361 361 360 360 360 361 360 362 360 359 357 350 350 351 351 360 361 360 359 358 354 354
354 359 359 358 357 358 359 365 368 368 366 364 364 365 365 357 356 358 361 362 362 361 360 360 360 360 360 359 360 361 360 351 349 347 350 356 360 361 360 360 359 357 354
350 354 358 357 357 356 363 359 359 359 358 358 358 358 357 353 353 357 361 362 362 361 361 360 361 360 359 353 352 358 352 351 346 346 350 358 360 361 362 362 360 358 357
350 353 354 354 351 354 356 355 354 352 352 353 352 351 352 353 354 355 352 353 352 359 353 358 358 356 353 351 351 348 351 349 347 352 354 359 360 361 361 361 359 357 355
349 351 353 354 352 353 353 348 349 347 347 347 348 349 350 349 349 350 349 349 348 349 350 350 352 353 352 352 351 349 349 347 346 349 352 358 360 363 363 361 360 358 357
349 351 352 353 352 352 350 348 348 347 347 346 346 346 348 347 346 347 347 347 347 348 348 347 348 348 349 349 351 348 348 348 348 347 350 357 360 360 361 361 360 359 358
348 350 351 352 351 348 346 344 345 346 346 345 345 344 345 345 343 342 343 344 345 345 346 346 345 346 345 347 348 349 346 348 349 347 347 347 359 359 361 362 360 359 358
347 349 349 350 349 345 342 340 337 337 342 343 345 345 344 343 341 341 341 342 343 343 343 344 344 344 344 344 345 348 347 348 349 348 348 347 350 358 360 361 362 360 360
346 348 350 352 349 343 340 336 332 330 335 342 343 342 345 342 340 339 339 341 342 342 342 341 341 341 341 341 343 345 347 346 348 348 348 348 349 348 354 359 360 361 360
346 348 348 349 346 343 342 340 338 334 340 343 342 340 338 343 343 342 341 341 342 340 340 340 339 340 339 339 340 342 343 343 345 349 348 347 347 348 348 355 358 359 359
346 349 350 348 347 347 345 343 342 342 342 341 342 342 343 343 345 342 342 342 341 338 338 339 338 339 337 338 342 343 342 343 345 346 346 348 348 348 348 348 350 354 359
345 345 344 346 348 347 341 338 337 336 337 337 340 342 341 342 343 342 340 339 338 338 339 338 336 335 336 337 333 333 336 340 342 344 345 347 347 348 348 348 349 352 355
338 345 338 332 334 344 341 339 338 336 336 336 336 337 340 342 343 342 339 339 339 338 335 337 336 333 333 336 330 328 326 330 335 340 343 344 345 347 347 349 348 348 348
337 333 329 331 332 343 342 339 337 335 334 331 332 333 336 339 339 340 340 337 337 338 336 336 337 334 332 334 334 328 322 321 326 335 339 342 342 343 345 347 346 347 348
333 330 330 333 331 343 340 336 333 331 329 330 330 331 333 335 337 338 337 337 336 337 337 338 338 335 332 331 334 335 331 328 322 322 330 338 341 341 341 343 345 346 346
336 333 331 334 334 341 340 337 332 330 330 331 331 330 331 332 334 337 337 336 335 336 336 337 337 334 334 332 333 331 331 331 329 325 320 325 334 340 341 342 343 344 345
336 334 337 340 339 339 337 334 330 328 326 328 328 328 330 331 331 334 337 336 336 336 336 336 337 336 335 333 332 330 330 329 327 326 324 324 326 332 340 341 342 343 343

GFSSE_sfc_thetae_012.txt.gz
Theta_e
355 360 369 369 368 367 366 368 368 369 370 369 369 368 368 368 367 366 365 364 363 363 363 361 359 360 361 361 360 359 361 360 359 361 360 359 359 358 358 356 352 349 355
359 362 368 370 369 367 367 367 369 369 368 368 368 368 368 367 365 364 365 363 363 362 362 361 360 359 361 361 361 360 362 361 362 359 357 360 359 357 356 354 352 352 352
360 364 366 369 370 369 368 368 368 368 366 366 367 367 367 367 364 364 363 363 362 362 362 362 360 360 361 361 361 360 361 362 362 361 359 356 355 357 356 356 355 356 353
361 364 364 369 370 370 369 369 368 367 366 366 365 366 366 367 367 365 364 363 363 363 362 361 362 361 361 362 362 361 361 361 360 360 355 355 353 358 357 356 355 354 354
361 363 364 371 371 369 369 369 369 368 367 366 366 365 366 366 365 364 364 364 363 363 362 361 360 361 360 361 362 361 362 362 361 357 354 354 357 356 358 356 356 354 353
361 362 365 371 370 368 368 369 369 369 368 367 365 365 366 365 364 364 363 363 361 362 361 361 360 360 360 361 362 362 363 360 360 354 354 357 357 358 358 356 357 355 354
359 360 364 369 371 371 370 367 367 368 368 367 365 364 364 365 364 364 363 362 362 361 361 360 360 359 360 361 361 362 362 359 353 354 355 356 356 359 358 358 356 356 352
358 360 363 370 372 372 369 367 366 367 366 365 364 364 364 366 365 363 362 362 362 362 361 360 361 360 360 359 361 361 362 359 355 353 354 355 357 359 359 357 354 356 355
359 361 362 363 367 370 370 369 368 367 366 366 365 366 365 364 364 361 363 362 363 361 361 360 360 361 360 360 360 360 359 359 354 354 354 356 360 360 359 358 355 356 356
357 357 359 361 362 364 367 369 368 367 365 364 364 364 364 364 362 361 365 364 362 361 362 361 360 361 361 362 360 360 357 358 353 354 354 356 361 359 360 359 357 356 356
354 355 355 357 357 359 359 364 367 367 365 364 364 365 363 359 358 361 362 362 361 361 361 360 360 361 362 361 361 360 358 354 352 354 354 356 361 360 360 360 359 355 356
349 354 356 356 356 357 361 361 360 359 359 359 359 359 359 357 356 359 362 362 361 360 361 361 360 360 359 357 358 359 356 354 350 351 355 358 361 361 360 362 360 356 354
350 353 354 355 355 356 358 357 358 356 357 357 357 357 357 355 355 359 358 358 358 360 357 361 361 358 356 354 354 353 354 354 351 352 354 358 360 362 361 361 360 359 356
348 351 353 353 352 354 354 353 353 350 350 351 349 350 352 351 352 354 353 354 353 355 354 356 356 356 355 354 353 352 353 352 351 354 356 359 359 361 362 361 359 358 358
347 350 352 353 351 352 351 351 350 349 349 347 348 348 350 350 350 350 351 351 351 352 352 352 352 353 353 352 354 352 352 351 350 352 354 360 360 360 362 361 360 359 357
349 350 351 353 350 350 349 349 349 348 348 347 347 348 349 348 348 348 347 347 348 350 351 351 351 350 350 351 351 352 351 352 351 351 352 353 358 359 359 361 361 359 359
349 351 351 351 351 349 348 347 346 346 347 347 346 347 346 347 345 344 346 346 347 348 349 349 349 348 348 348 348 350 350 351 351 351 351 351 354 358 360 361 361 361 361
347 348 351 354 350 348 345 344 342 340 340 343 346 347 347 346 344 344 344 344 347 347 347 346 347 345 345 346 346 348 351 350 350 350 351 350 351 352 356 358 359 359 360
346 347 347 349 347 346 344 341 339 338 335 338 342 345 344 346 345 343 342 343 345 345 344 345 343 344 343 344 344 345 348 349 349 351 350 351 351 351 351 355 356 356 359
342 341 340 340 340 345 343 341 341 341 340 340 342 344 344 342 344 344 344 343 345 344 343 343 342 342 343 343 344 345 345 347 346 349 350 350 351 351 351 352 354 355 357
340 339 340 339 335 335 343 340 341 341 341 341 343 344 344 344 344 343 342 342 343 343 343 342 342 341 341 342 340 336 340 343 346 348 350 349 350 350 350 352 352 354 353
336 336 336 340 336 335 340 342 341 340 339 338 338 339 340 342 343 344 341 340 340 341 340 341 340 338 338 341 335 334 333 338 342 345 347 348 349 351 350 350 352 353 354
332 331 334 336 335 335 340 342 339 339 337 334 335 336 338 339 341 341 342 341 339 341 339 340 341 339 336 338 338 334 328 328 332 340 343 346 347 348 349 351 352 352 353
334 334 336 334 333 335 341 340 337 335 332 334 334 334 336 338 338 341 340 340 339 339 340 339 341 341 339 336 337 338 336 334 330 331 337 342 347 346 347 350 351 351 352
334 333 330 332 333 335 342 339 336 333 332 333 333 332 333 335 336 337 340 339 338 338 340 340 340 340 340 338 337 336 337 336 335 331 329 334 340 345 347 347 349 351 351
335 336 336 334 337 341 340 337 334 332 330 330 331 332 333 334 335 336 338 339 339 339 339 340 341 340 339 339 338 338 337 336 335 334 331 331 332 336 340 346 346 347 350

GFSSE_sfc_thetae_018.txt.gz
Theta_e
357 364 370 370 370 370 370 371 372 371 370 370 368 367 365 365 365 364 364 364 364 363 362 360 360 359 360 360 359 361 361 359 362 361 360 359 358 357 358 354 357 351 356
359 363 369 370 370 370 369 370 371 372 371 370 369 368 366 365 364 365 363 363 363 364 362 360 360 360 361 361 360 361 361 361 361 361 359 360 359 357 353 353 360 353 356
358 362 363 369 370 369 369 369 370 371 370 370 370 368 366 366 364 364 363 362 362 362 362 362 361 360 361 360 361 362 361 361 362 360 360 357 357 355 353 356 355 356 356
359 361 362 368 369 368 368 369 369 369 368 368 368 367 366 365 365 364 363 362 361 361 362 361 361 360 361 360 361 361 360 359 361 360 357 354 352 356 354 356 353 355 354
358 359 365 370 369 367 367 369 369 368 366 366 365 365 365 364 364 363 363 362 361 361 361 361 361 361 361 361 361 362 362 361 361 359 354 354 356 356 358 355 357 355 356
358 358 367 370 368 368 367 368 368 366 366 365 365 365 365 365 365 364 362 362 362 361 360 359 361 361 361 361 361 361 363 361 360 357 356 355 356 357 357 356 353 354 355
358 361 365 370 370 369 367 367 368 367 366 365 365 366 366 365 364 363 361 361 361 361 361 359 360 360 360 361 361 361 363 361 358 354 355 355 359 361 358 357 354 354 355
359 361 364 369 370 369 367 367 367 366 365 365 365 365 365 364 365 364 363 361 360 360 360 359 359 360 360 362 361 361 361 361 355 353 353 353 358 361 358 358 356 356 356
361 362 364 365 367 367 368 367 366 366 364 364 363 363 363 364 361 362 360 360 359 358 359 359 360 360 360 361 362 361 361 359 355 354 352 353 359 359 359 358 357 354 356
361 362 363 364 365 366 365 369 367 368 365 365 365 364 363 363 363 360 360 361 360 359 359 359 359 360 361 362 361 361 360 360 355 355 355 354 359 358 359 358 358 355 356
360 361 365 364 368 369 369 365 366 366 365 366 365 364 363 360 362 362 363 361 360 360 358 359 359 361 360 360 360 360 360 355 358 355 355 358 360 358 359 358 358 358 357
355 358 359 364 366 367 366 369 366 364 363 364 364 365 361 359 360 359 361 360 361 360 360 359 358 358 356 355 355 359 354 354 355 356 356 359 361 359 360 359 359 358 357
356 358 359 360 365 365 364 374 365 372 373 371 367 367 367 367 367 358 357 359 359 362 358 358 357 356 355 358 358 356 354 355 356 356 357 359 360 359 360 359 358 358 358
357 358 360 363 365 364 371 374 369 362 365 369 361 360 368 360 360 357 357 363 368 359 363 359 359 359 359 358 356 355 357 356 352 354 358 360 360 360 362 360 359 358 357
357 359 361 363 365 365 366 368 370 360 360 361 360 363 361 352 351 347 343 355 366 362 358 361 358 357 358 359 359 358 356 355 354 353 352 362 360 360 361 362 358 358 357
358 359 363 364 364 365 364 366 371 367 360 358 356 357 360 354 346 342 341 351 360 362 357 357 360 356 356 356 356 357 357 357 355 355 354 355 360 358 359 361 359 357 358
359 358 358 358 362 363 363 362 360 358 356 355 355 360 359 358 357 353 352 345 354 369 362 359 358 358 355 355 355 356 356 357 356 358 355 353 355 358 359 358 358 351 353
359 357 357 357 355 359 363 364 359 358 357 356 358 359 359 358 359 357 352 358 353 368 364 353 352 355 356 352 352 353 355 355 357 359 358 355 352 353 358 358 358 354 353
362 357 354 353 357 360 361 364 362 364 365 358 358 359 361 361 360 358 357 354 358 356 359 358 352 351 350 351 350 351 353 357 354 355 357 359 357 353 354 357 356 354 355
361 356 353 351 354 359 362 363 362 365 370 359 357 356 359 359 360 358 357 358 364 354 351 351 352 351 349 350 349 347 350 354 356 353 356 360 358 357 356 358 357 354 355
354 354 354 352 345 355 367 354 357 361 369 357 358 361 361 359 358 358 357 357 358 351 352 354 359 353 352 351 348 347 347 351 356 352 354 361 356 357 357 365 356 355 356
351 351 352 347 342 347 353 358 359 359 359 362 360 360 359 357 358 356 358 359 360 353 354 353 351 353 353 352 343 340 334 340 347 352 353 353 355 361 356 359 359 361 362
349 351 351 350 345 343 345 354 356 357 357 353 352 348 351 352 353 354 354 354 358 357 353 354 352 349 345 348 350 341 333 331 344 350 352 352 356 365 364 361 357 360 361
346 348 351 350 348 348 350 352 355 354 348 347 347 348 350 350 351 351 351 352 351 359 358 351 349 346 349 345 352 346 348 346 341 340 347 349 354 358 360 366 358 359 361
345 347 346 351 351 352 353 355 356 351 348 347 346 350 351 351 350 349 350 350 352 349 354 352 350 345 345 349 351 345 349 345 348 342 338 344 348 352 353 355 355 356 359
347 346 344 347 349 354 358 357 352 346 346 344 346 344 344 345 346 350 350 350 352 354 353 355 351 344 344 349 353 350 344 341 340 344 340 342 341 346 349 352 353 354 354

GFSSE_sfc_thetae_021.txt.gz
Theta_e
356 360 371 371 371 372 372 372 371 371 367 367 365 365 365 365 364 363 363 364 363 362 361 360 359 359 359 360 360 361 358 360 361 360 360 359 358 358 356 356 358 353 355
360 362 370 371 370 371 371 371 372 371 369 367 367 365 365 365 365 363 363 364 363 362 361 360 360 360 361 360 361 362 360 361 361 361 360 359 358 355 353 351 359 355 354
358 362 363 371 371 369 370 372 372 372 370 368 368 366 366 365 365 363 362 363 363 363 361 362 360 361 361 361 360 361 360 361 361 360 361 354 354 353 356 358 357 357 354
358 359 362 369 371 369 369 370 370 371 368 368 367 366 366 365 364 363 363 363 362 362 361 361 361 361 361 360 362 361 361 360 360 361 358 354 349 354 357 352 355 355 356
358 360 365 370 370 369 369 370 370 370 368 367 367 366 365 365 364 363 363 362 362 361 360 362 361 361 359 361 361 361 360 359 359 359 358 356 353 354 357 353 355 354 355
357 361 367 370 367 367 367 368 368 367 367 366 366 364 363 363 363 362 362 361 361 361 361 360 362 361 360 361 361 361 360 360 360 358 357 356 358 359 357 356 353 356 355
355 365 364 370 370 368 367 367 366 365 366 365 364 364 365 365 364 363 360 360 360 358 359 359 361 360 361 361 361 361 361 361 357 356 356 355 358 360 357 355 355 356 355
355 362 362 369 370 367 366 366 366 365 365 364 365 366 366 364 364 363 362 360 359 359 359 357 358 360 360 362 361 361 361 361 357 353 353 357 359 362 358 356 354 355 354
357 361 362 363 366 367 365 366 366 365 365 365 365 366 365 364 363 362 361 360 359 358 358 358 359 360 360 362 361 362 360 360 356 353 351 357 361 361 358 358 355 356 356
359 360 362 364 364 365 365 367 365 365 364 364 363 363 363 362 361 363 360 362 360 358 358 359 359 362 360 361 363 361 360 361 354 354 355 356 361 361 360 358 357 354 356
358 357 362 363 366 367 366 364 366 365 365 365 364 364 362 359 361 363 362 360 360 358 358 359 360 360 361 360 360 361 360 353 351 352 354 360 362 360 359 359 359 356 356
352 354 360 362 365 365 368 370 364 362 363 363 364 365 363 362 361 357 363 362 360 360 360 360 359 359 357 354 356 359 354 351 353 353 355 359 361 360 360 360 359 360 357
355 355 359 361 365 365 364 368 365 369 368 361 365 365 363 362 364 359 362 359 358 360 355 358 357 355 355 351 355 355 353 353 355 357 356 360 360 360 360 360 360 358 358
353 356 357 365 363 364 361 360 368 362 362 363 367 366 365 360 362 359 358 360 360 366 358 356 354 357 357 358 359 356 355 354 352 352 357 361 360 361 360 361 359 358 357
352 355 359 364 366 366 368 364 364 366 359 362 361 361 356 355 359 351 347 346 353 358 357 356 355 358 358 358 357 357 355 355 355 353 354 362 361 360 361 360 360 358 356
352 354 359 361 365 364 368 366 371 362 360 360 358 357 361 357 356 350 348 346 349 354 357 352 357 358 355 356 357 356 357 359 357 357 354 356 362 360 360 360 361 359 355
354 357 359 363 363 365 364 363 362 357 356 360 356 364 362 362 359 356 351 351 349 350 348 345 352 360 355 357 355 356 355 357 357 357 357 356 356 360 361 360 361 361 359
357 357 360 357 361 363 365 362 358 359 357 360 360 363 362 363 362 362 355 353 353 346 342 341 352 350 356 354 355 353 355 355 356 359 362 357 354 353 359 360 359 360 352
359 361 361 359 358 364 363 360 360 361 358 355 353 355 363 361 359 360 354 356 358 351 351 356 352 352 351 350 351 353 353 355 354 354 356 357 358 357 356 358 357 356 353
360 362 360 356 359 363 363 362 357 354 361 357 356 360 362 361 360 364 361 356 366 357 352 352 352 353 349 347 344 347 353 352 354 353 355 360 361 358 357 363 359 353 355
361 361 359 358 355 352 353 354 356 351 358 358 358 362 360 360 360 363 363 362 362 358 356 359 354 356 347 349 351 345 345 348 353 354 354 353 357 357 356 363 358 358 354
357 357 357 355 350 349 354 354 361 356 357 360 363 360 361 358 358 359 360 358 360 358 359 358 358 356 353 358 343 340 334 336 344 351 352 359 356 361 357 360 360 360 355
354 354 355 352 351 347 351 355 365 361 360 359 357 350 353 354 354 355 355 359 358 360 358 354 355 351 347 354 352 341 332 328 334 351 354 351 357 362 359 361 355 360 360
352 355 355 355 352 349 350 348 357 356 350 349 347 350 352 353 351 352 354 352 357 360 355 355 357 352 352 347 354 347 351 346 337 335 353 355 360 359 359 353 351 354 361
348 349 352 353 352 354 356 359 359 357 348 350 347 351 357 358 353 351 352 351 353 356 357 354 355 355 354 352 348 352 349 341 345 339 337 342 350 350 356 353 352 354 359
349 348 349 352 353 355 355 356 355 349 348 346 348 345 344 345 349 352 352 353 355 354 353 357 356 353 353 347 349 350 348 343 339 339 342 343 337 344 348 350 352 353 357

GFSSE_sfc_thetae_024.txt.gz
Theta_e
354 360 370 372 372 373 373 373 371 370 368 368 367 367 367 365 364 364 365 366 364 363 362 361 359 359 359 360 361 358 360 361 361 361 360 359 358 358 358 356 359 351 355
357 360 371 372 373 373 373 373 372 370 369 368 368 367 367 366 365 363 363 362 363 363 360 360 360 360 362 360 362 360 362 361 362 361 360 359 357 355 356 355 360 351 353
356 360 361 372 373 373 373 373 372 370 369 368 368 368 367 365 364 363 363 363 364 363 361 360 360 361 361 361 361 360 360 363 364 361 361 353 350 358 359 357 359 354 356
357 356 360 371 372 372 372 373 372 370 369 369 369 367 367 366 364 363 362 363 363 362 362 361 361 362 360 362 361 364 361 361 361 359 358 349 347 358 356 358 358 355 354
355 358 365 372 372 370 371 372 372 371 370 369 368 366 366 365 364 364 363 362 363 362 362 361 361 361 360 361 361 364 362 360 360 356 354 353 346 356 353 355 354 356 356
356 362 369 371 370 370 370 371 371 370 370 369 367 366 365 364 364 364 363 361 361 361 360 362 362 361 360 362 361 364 363 360 359 356 355 357 351 359 356 356 356 356 356
361 361 362 370 370 369 370 370 369 369 368 367 365 364 364 364 364 364 363 361 360 360 361 361 363 361 361 362 361 364 363 360 355 357 354 355 355 361 357 359 357 356 356
360 359 361 369 369 368 367 366 366 365 365 364 364 365 366 365 364 362 362 361 360 359 356 359 362 361 362 362 362 363 363 361 355 354 351 357 359 361 359 356 356 355 356
358 360 361 362 366 366 366 366 366 365 364 365 366 366 364 364 363 363 363 361 360 360 359 359 360 361 362 362 362 362 362 360 355 355 355 354 360 362 359 356 355 356 355
360 360 360 363 364 364 363 368 368 367 365 365 365 365 364 364 364 364 364 364 360 359 359 359 359 363 363 362 362 362 360 360 354 352 353 355 360 362 359 358 356 358 356
358 361 361 364 365 366 365 364 367 365 364 364 363 363 363 359 359 361 362 364 361 359 359 359 360 361 361 361 361 362 360 353 349 353 354 357 359 363 361 361 360 358 356
352 356 357 362 364 365 366 364 363 363 362 363 364 366 363 362 361 359 361 365 362 361 361 362 363 361 360 355 356 360 356 351 351 353 350 350 359 362 362 362 361 359 358
356 355 358 362 367 365 363 365 365 364 366 358 360 362 366 364 362 361 362 359 359 361 356 359 358 356 354 353 354 355 353 352 352 354 355 357 360 362 361 362 361 361 358
354 355 360 365 365 366 361 361 361 359 360 358 355 361 360 363 364 363 360 359 359 359 358 357 351 355 355 353 356 356 356 355 352 355 356 358 358 361 361 361 361 359 361
354 358 360 366 366 368 364 355 358 354 344 341 345 360 363 360 362 364 358 353 353 359 348 344 341 340 348 354 357 356 353 353 354 355 356 361 359 360 362 362 361 359 358
355 358 363 365 370 371 369 371 368 351 340 343 339 358 363 359 363 361 356 354 352 354 354 349 346 342 342 343 355 355 357 357 357 355 353 356 359 360 362 364 363 360 357
355 358 360 365 367 367 369 369 368 362 350 340 341 357 361 362 363 360 355 351 353 355 348 341 345 339 338 338 351 354 356 356 356 358 356 357 358 361 359 361 363 362 361
358 361 364 358 364 365 364 367 363 361 366 361 364 355 362 362 364 362 357 358 357 354 347 341 337 338 338 338 347 350 352 354 355 357 359 357 357 354 358 360 360 360 361
364 365 364 364 363 366 364 366 365 371 367 362 366 363 364 363 362 360 356 357 361 354 347 344 340 342 344 347 349 347 350 351 354 355 356 356 356 356 356 357 359 357 361
360 365 364 362 366 364 351 351 357 362 366 360 358 356 348 360 362 360 359 358 355 358 354 352 350 349 347 345 346 344 351 351 354 354 354 357 357 358 355 355 353 353 358
363 363 364 361 363 358 345 342 347 355 361 358 347 345 339 337 358 360 358 356 356 354 353 353 350 343 341 345 344 347 351 353 350 350 355 353 353 354 356 353 355 351 353
360 363 362 360 356 357 344 347 349 355 361 362 361 355 351 353 359 361 358 354 353 350 349 350 349 344 345 349 344 344 335 338 343 349 351 352 352 354 355 356 355 351 350
356 358 359 357 355 354 351 350 351 355 353 356 355 357 358 359 359 359 356 357 353 353 349 349 348 345 341 343 349 341 334 329 337 346 348 351 351 354 355 356 354 352 352
354 358 360 355 354 353 353 352 355 349 347 354 357 357 359 359 358 356 355 355 354 353 351 350 350 349 347 342 346 344 344 344 334 331 343 347 351 353 353 354 353 352 354
354 353 358 356 356 356 356 358 358 353 353 357 355 356 359 357 356 352 354 354 353 353 352 350 349 347 347 343 343 341 340 342 344 337 333 339 349 350 351 351 351 350 351
349 350 351 353 356 358 360 360 361 358 355 352 352 351 348 351 354 353 353 353 354 352 351 350 351 350 344 344 346 343 340 337 338 337 336 338 337 342 347 349 349 348 350

GFSSE_sfc_thetae_027.txt.gz
Theta_e
354 364 371 372 374 374 373 372 370 368 366 366 366 366 367 366 367 366 367 366 364 363 363 360 360 361 361 362 359 359 361 360 361 361 360 359 358 358 358 358 357 352 357
357 364 371 372 373 374 373 372 370 369 366 366 367 365 365 366 364 364 366 366 363 362 362 361 360 361 361 362 360 362 361 361 361 361 359 358 357 357 356 358 354 350 355
356 363 367 371 373 374 372 371 370 369 367 366 367 366 365 365 364 363 362 362 363 362 361 361 361 362 361 361 361 362 361 361 362 361 359 350 354 359 360 356 356 354 355
356 361 367 371 372 373 372 371 370 369 366 367 367 366 366 365 365 362 363 364 363 363 362 362 362 362 362 362 361 361 361 361 359 358 352 348 353 360 359 357 354 355 355
355 363 367 372 373 372 372 371 371 370 369 367 366 365 365 364 364 363 362 363 362 361 362 362 362 362 361 362 362 362 361 362 358 354 352 346 348 354 356 358 356 356 355
359 365 370 372 371 371 373 372 371 370 370 369 368 366 365 364 364 363 362 362 362 361 362 362 362 361 361 362 362 362 362 360 359 354 352 353 349 356 356 355 357 357 354
358 363 366 372 372 371 371 371 371 370 370 369 366 365 364 365 363 363 363 361 361 361 360 361 361 361 361 361 361 364 360 360 354 353 351 349 353 359 357 359 358 357 354
357 360 362 369 370 369 368 368 368 367 366 365 364 364 364 364 365 365 362 361 360 360 358 361 360 360 361 361 361 363 359 358 355 352 354 352 356 361 358 358 357 356 355
357 357 360 362 364 367 367 366 366 366 365 365 366 367 366 365 364 364 366 364 361 360 358 358 360 360 361 363 361 362 360 358 353 353 354 352 358 361 358 357 357 355 357
354 356 356 358 359 359 362 368 367 367 364 365 366 365 364 363 364 364 365 364 362 361 359 358 360 362 363 361 362 361 360 359 353 352 352 353 359 362 358 356 356 356 355
352 353 356 356 356 356 358 363 368 365 364 364 363 364 364 356 358 359 363 363 361 361 361 361 359 363 362 361 361 362 361 353 351 351 351 358 361 363 359 358 360 358 356
350 352 355 355 356 358 360 359 359 359 358 357 357 355 356 355 354 359 359 363 362 360 360 362 364 361 359 354 354 358 353 352 347 350 349 359 361 364 363 361 360 359 357
351 352 355 356 357 357 358 358 357 357 357 358 358 358 357 357 353 354 353 357 355 360 353 359 358 355 352 349 350 352 352 350 347 350 348 355 360 364 362 362 362 358 358
350 353 354 358 357 355 357 356 355 354 355 353 353 355 351 351 350 351 352 352 352 353 351 348 344 344 340 344 346 350 349 349 348 353 351 353 359 363 363 362 363 361 360
348 352 353 358 356 357 355 351 345 343 349 347 343 351 351 349 349 350 342 343 342 350 345 341 340 339 339 341 342 342 349 349 349 350 351 361 359 359 364 363 361 359 361
349 351 356 356 356 356 352 349 345 346 347 344 339 336 347 351 349 348 342 342 341 345 341 338 337 338 338 339 340 339 341 348 349 348 351 353 360 359 361 363 362 361 359
350 354 355 356 357 354 352 351 349 346 343 341 338 338 339 351 352 350 347 343 343 345 344 342 340 338 335 338 337 341 344 349 351 351 349 351 355 359 360 361 362 363 361
351 352 354 357 358 355 353 353 351 350 346 342 338 346 348 354 352 351 349 346 344 342 339 336 337 333 332 333 337 339 341 347 351 352 351 350 352 352 358 360 360 361 362
352 354 351 352 353 350 350 350 351 351 350 352 353 347 349 350 352 350 349 349 347 346 339 335 334 332 335 336 338 338 343 345 348 352 351 352 350 353 351 356 358 358 360
355 354 353 350 347 347 347 347 347 346 349 344 347 341 344 341 344 346 349 350 345 344 341 338 334 334 335 341 345 345 342 339 345 347 350 352 350 351 353 352 352 354 360
355 353 349 348 344 342 339 338 337 339 344 345 344 340 337 339 339 339 348 346 345 343 343 343 343 340 339 340 339 333 341 343 345 346 348 349 350 351 350 351 350 350 352
352 353 352 347 344 340 338 339 341 346 347 350 349 346 344 343 339 347 345 344 344 342 340 342 342 338 337 340 332 329 327 331 339 345 345 346 347 349 350 352 351 349 348
349 352 348 347 345 344 343 347 343 345 346 343 343 345 348 349 349 345 344 342 342 342 341 341 339 337 335 339 340 334 326 323 329 337 341 344 343 347 348 352 350 348 348
350 353 348 347 345 346 346 342 344 340 338 341 343 344 344 346 346 345 344 344 343 343 341 342 343 339 337 333 337 341 339 337 326 324 334 339 342 345 347 345 346 348 348
351 350 347 346 346 344 341 343 343 341 343 344 341 342 342 343 344 345 345 345 343 343 342 342 341 339 338 336 335 335 334 336 337 328 324 329 339 343 345 347 348 345 347
347 351 347 345 342 345 347 347 346 342 341 340 339 339 338 341 342 344 346 344 343 342 341 342 341 340 338 339 339 338 334 332 332 332 327 327 327 333 338 343 343 341 345

GFSSE_sfc_thetae_030.txt.gz
Theta_e
356 364 371 372 372 371 369 367 366 366 365 367 367 366 366 366 366 368 367 366 365 365 362 360 361 361 361 360 359 360 361 360 360 359 360 359 359 357 359 357 356 352 357
360 365 371 373 373 372 370 369 367 367 366 365 366 365 364 364 364 364 365 365 363 363 362 361 361 361 361 360 360 360 360 361 360 360 360 359 358 357 356 356 356 353 355
359 364 369 371 373 372 371 369 368 366 366 366 366 365 364 365 363 363 363 363 362 362 360 362 362 362 361 361 361 361 361 360 361 360 358 351 352 357 355 354 353 356 353
361 363 367 371 372 372 371 370 369 367 366 366 365 364 363 364 363 362 363 364 362 362 362 361 362 362 361 362 361 361 361 361 359 358 350 352 353 358 355 357 353 357 356
361 364 367 373 373 370 370 370 369 369 366 365 365 365 364 363 363 362 363 362 362 361 362 361 362 361 362 361 361 362 360 359 359 355 350 347 350 357 356 354 353 354 355
361 365 370 372 371 370 370 370 369 368 367 366 365 365 364 364 363 362 362 362 362 362 361 362 362 361 361 361 362 360 360 358 358 351 350 351 346 356 357 355 356 356 356
360 364 367 371 372 372 371 370 368 368 367 366 365 365 364 364 363 362 361 361 361 360 361 361 360 360 358 361 363 361 360 358 353 353 351 349 347 358 356 357 357 354 355
358 363 365 370 371 371 370 368 368 367 366 365 364 363 364 363 362 362 362 360 360 360 360 362 361 360 359 359 360 360 359 357 355 351 350 349 354 360 358 358 358 354 355
359 360 362 363 365 368 367 367 367 366 365 364 364 365 364 363 363 362 363 363 361 359 356 360 360 361 361 361 360 359 358 357 351 351 350 351 357 360 359 359 358 355 354
356 358 358 357 358 359 361 367 366 366 364 364 364 365 364 364 363 363 365 365 361 361 359 358 361 361 361 363 362 361 359 356 351 350 352 350 358 360 359 357 356 357 356
353 354 356 356 356 357 359 361 366 364 364 365 365 364 364 355 357 360 362 361 360 359 359 359 359 362 362 361 362 361 360 353 351 349 349 357 359 362 358 357 357 355 355
347 350 354 354 354 356 360 357 358 357 356 355 356 355 354 354 354 358 360 360 361 361 360 361 361 360 360 353 352 359 353 351 347 349 349 356 358 364 361 360 360 357 356
347 350 352 353 354 354 356 355 355 355 355 355 355 354 354 356 354 354 353 354 354 358 353 358 356 356 352 351 350 351 350 350 346 349 349 357 359 362 361 360 360 358 357
348 349 352 353 355 355 356 356 356 356 355 355 353 353 353 349 344 348 351 350 350 350 350 350 350 345 343 347 345 348 349 348 346 350 350 356 358 361 363 361 360 358 359
348 351 352 354 354 354 354 351 350 346 351 352 350 352 350 344 345 347 348 348 349 350 347 342 343 344 340 341 343 343 345 348 348 349 350 355 358 358 362 362 361 359 358
348 349 353 353 353 353 352 347 342 338 344 346 342 344 349 348 346 346 340 340 339 345 343 340 339 338 338 338 341 340 340 343 348 349 350 350 358 359 360 363 363 361 360
347 350 354 352 353 351 348 348 347 342 344 343 341 341 337 343 348 346 342 340 340 339 343 339 338 337 335 336 337 338 340 343 349 350 349 350 351 359 358 360 362 362 360
349 350 352 357 351 350 349 350 351 350 345 343 341 340 342 342 350 348 346 344 343 342 341 339 337 335 332 331 332 336 340 343 345 349 350 350 351 351 356 359 359 360 362
350 350 350 353 349 348 347 347 347 349 348 348 344 341 345 349 352 350 349 348 345 343 339 337 337 332 331 332 332 336 339 343 346 350 350 349 349 352 351 356 358 358 359
350 349 348 347 347 345 344 345 346 343 345 348 344 344 345 340 344 343 345 344 342 342 338 336 333 332 332 335 343 345 343 343 343 343 347 349 350 349 350 350 350 352 358
350 348 346 342 340 342 335 336 337 338 342 345 344 341 338 337 340 334 339 344 343 341 340 339 335 332 333 337 335 333 334 340 340 339 343 346 347 347 348 350 347 348 350
348 346 342 340 337 337 336 335 336 340 343 347 346 343 343 343 340 338 343 343 342 340 338 338 339 335 337 340 332 327 322 329 336 341 342 345 346 346 348 349 349 348 347
349 345 342 340 338 337 336 342 342 342 342 339 340 342 344 347 346 344 341 340 339 339 337 337 337 335 332 335 337 329 324 323 328 333 338 342 344 342 344 346 347 349 348
348 346 344 342 340 339 340 339 341 337 337 338 340 340 341 343 342 343 342 342 340 340 338 338 340 337 334 331 336 340 338 334 327 325 331 336 341 342 342 343 344 347 347
350 347 344 342 341 343 339 337 336 339 340 340 338 336 338 340 342 344 343 341 339 339 340 338 338 337 335 333 331 333 335 334 334 330 325 329 335 339 341 341 343 345 344
349 345 344 340 340 340 339 339 342 339 337 337 335 335 336 338 338 340 343 341 340 339 338 339 339 337 336 335 335 335 334 330 329 331 328 328 326 330 336 338 339 340 341

GFSSE_sfc_thetae_033.txt.gz
Theta_e
355 362 369 369 367 367 366 365 364 364 364 366 367 367 366 365 364 365 365 363 362 362 360 360 360 360 359 359 361 360 358 358 359 357 356 358 356 355 355 357 357 351 356
359 365 371 370 370 368 367 365 365 364 363 365 365 365 364 365 363 363 363 362 361 361 361 361 361 360 360 359 358 359 357 359 359 358 358 358 359 357 356 356 357 352 356
360 364 368 370 371 368 367 365 365 364 363 363 364 364 364 364 363 362 362 362 361 360 361 361 361 360 360 359 359 359 359 359 359 359 358 351 351 356 355 355 356 354 354
361 364 365 369 371 369 367 366 365 365 364 364 363 362 362 363 362 362 363 363 362 361 360 361 360 361 360 360 360 360 359 359 359 358 352 351 352 355 353 352 355 353 353
360 363 365 372 371 368 367 367 366 365 365 364 363 362 361 362 362 363 363 362 361 362 361 361 360 360 360 360 361 360 360 359 357 354 348 348 349 353 356 352 355 356 356
361 363 370 372 370 367 367 367 366 365 365 364 364 363 362 362 362 362 361 360 360 360 361 362 361 359 360 361 360 359 358 358 357 350 347 353 349 356 355 354 353 354 354
360 364 366 370 371 369 367 366 366 365 365 364 364 363 363 363 362 361 361 361 361 359 360 361 360 359 360 362 361 359 358 357 350 350 349 349 347 358 355 355 355 357 354
360 362 365 369 370 368 367 366 366 365 365 365 364 363 363 364 362 362 361 360 360 359 359 359 360 359 359 361 361 360 358 358 355 351 349 347 350 358 356 358 356 354 353
361 361 362 363 364 367 367 366 366 366 365 364 363 363 363 362 362 362 361 360 359 359 357 360 359 358 360 360 361 358 357 357 350 349 348 349 356 358 357 357 357 354 354
358 360 359 360 360 360 361 367 366 366 364 363 364 364 364 363 361 361 363 362 359 358 356 357 359 359 358 361 361 359 357 354 348 350 348 349 358 359 359 358 358 354 354
354 355 356 354 356 356 357 361 366 365 363 362 363 363 362 356 357 359 361 361 360 359 359 358 358 359 359 359 361 360 358 352 350 348 349 354 358 359 359 358 358 356 355
348 350 353 353 354 355 359 356 356 356 355 355 357 355 355 353 354 358 361 362 360 360 359 359 358 359 359 352 353 359 352 351 348 347 347 356 357 358 361 360 359 356 356
347 350 351 352 352 353 355 354 354 354 354 355 354 352 352 352 351 354 354 354 352 361 352 356 355 355 352 350 349 349 349 349 346 347 351 355 358 358 360 359 358 357 355
345 347 350 351 352 352 354 355 354 353 354 351 354 353 352 352 348 345 348 349 348 350 349 349 350 351 348 348 347 346 348 348 346 347 348 355 358 359 360 359 359 359 357
344 347 349 351 351 352 353 354 354 354 352 352 349 351 350 345 341 343 347 348 348 348 348 345 345 346 342 342 344 344 345 346 347 347 349 356 360 359 358 360 360 358 358
346 347 350 351 352 352 350 350 350 348 347 347 348 348 349 344 341 344 342 341 342 343 345 343 341 341 340 338 339 342 341 342 344 348 347 349 359 359 358 360 360 361 358
348 349 350 352 353 352 349 346 344 342 342 342 343 343 342 341 344 345 342 339 339 339 342 340 339 337 336 335 335 339 338 339 341 346 347 348 351 359 358 359 360 362 363
347 349 351 355 353 348 348 347 346 346 345 342 342 342 341 339 338 345 346 342 343 340 340 339 336 334 333 331 331 333 335 339 339 343 347 348 349 350 355 359 357 358 362
347 348 351 349 349 350 347 345 344 347 345 346 345 341 341 344 346 344 345 345 344 342 340 338 337 335 330 329 330 330 333 335 339 344 346 347 348 349 348 354 358 356 359
348 348 349 345 346 345 343 342 342 344 345 346 345 343 344 345 347 345 344 344 343 341 339 336 335 334 333 331 335 338 337 337 339 341 343 347 347 348 349 348 348 351 356
347 345 346 342 340 339 337 336 337 338 340 343 343 341 340 337 337 337 335 341 341 339 339 337 334 331 330 332 331 330 331 336 340 340 341 343 345 348 348 348 348 348 349
345 343 340 338 337 335 335 336 336 338 342 345 346 345 342 342 338 335 336 340 339 338 337 336 337 335 331 334 330 328 325 327 333 338 338 340 341 345 345 347 347 347 347
344 341 339 337 335 334 335 342 341 340 341 338 339 339 341 344 344 342 340 339 337 337 336 335 335 335 330 336 333 328 322 321 327 333 336 338 340 341 343 345 346 346 346
345 343 338 337 335 334 339 338 338 336 334 336 337 337 338 341 341 342 341 340 338 337 336 336 337 335 332 329 334 336 332 332 325 323 330 332 337 338 340 340 342 344 345
346 344 341 338 335 338 338 335 336 337 338 337 335 335 336 337 339 341 341 340 338 337 337 337 335 335 334 331 330 330 330 333 334 328 324 328 332 336 339 339 341 342 345
344 343 341 338 337 338 336 339 339 337 336 333 334 334 334 335 335 336 339 339 338 337 337 336 336 336 334 333 332 331 330 329 330 328 325 328 328 332 336 337 338 342 341

GFSSE_sfc_thetae_036.txt.gz
Theta_e
354 361 368 368 366 365 365 364 365 366 366 367 367 366 365 364 363 363 363 363 362 361 360 360 359 360 360 360 360 359 358 358 357 355 356 358 357 354 354 356 354 349 355
357 363 369 369 367 365 365 365 364 365 365 366 367 366 366 364 364 363 362 361 361 361 360 360 360 361 360 360 359 358 357 358 356 356 357 357 355 356 357 356 356 353 355
359 363 366 369 369 366 365 365 364 364 363 364 366 366 365 366 364 362 362 361 361 360 361 362 361 361 359 358 358 358 359 358 360 357 358 354 354 355 354 356 356 356 355
361 363 364 369 369 367 365 365 364 363 363 363 363 364 364 363 362 361 362 360 359 360 361 360 360 361 359 360 359 360 359 359 359 358 354 353 351 354 354 356 355 354 353
361 362 363 370 370 366 365 366 365 365 364 363 363 363 363 362 362 362 363 362 360 361 360 361 359 360 360 361 361 359 358 359 358 355 352 353 354 352 352 356 353 353 352
361 363 368 370 367 366 366 365 365 365 364 364 363 362 362 362 363 363 361 360 360 361 361 360 360 359 360 360 360 359 359 359 357 351 352 355 353 356 352 357 357 356 354
359 363 366 370 369 368 365 365 365 365 364 363 363 362 362 362 362 362 360 361 360 360 360 361 360 358 360 361 358 358 358 358 351 352 351 355 353 358 353 353 353 354 352
360 362 364 368 369 366 366 365 365 364 364 363 363 362 362 363 362 361 360 360 360 358 359 358 359 358 359 360 357 358 357 356 354 352 352 352 352 358 355 354 356 356 353
360 361 361 362 364 366 366 364 364 364 364 364 363 362 363 363 362 362 361 360 359 358 357 358 358 359 358 361 359 359 358 356 354 353 351 351 354 357 356 357 354 354 354
358 360 359 360 359 360 361 366 365 365 365 364 362 362 362 362 361 361 363 362 360 358 354 356 357 359 361 360 361 358 356 357 353 352 352 351 355 356 356 357 356 354 354
355 357 358 356 357 358 359 363 366 365 364 362 362 364 362 359 359 360 361 360 360 359 358 357 357 357 359 361 360 359 356 355 352 351 352 353 357 358 358 359 357 354 354
349 353 355 354 355 356 360 358 358 358 357 356 359 358 357 357 357 360 362 360 360 359 359 359 358 358 358 355 357 360 356 353 352 351 353 354 358 356 359 358 358 357 355
349 352 353 353 354 354 356 354 355 354 354 356 357 357 356 355 355 354 353 355 357 360 356 358 359 358 355 354 354 354 354 353 351 350 352 356 358 357 357 360 359 357 357
346 349 351 352 352 351 353 353 355 353 354 354 354 353 351 350 352 352 351 353 351 355 353 354 355 355 355 353 352 351 352 351 351 350 351 355 357 359 359 359 359 357 356
344 347 348 351 351 351 351 351 352 350 351 352 353 353 351 349 348 344 347 351 351 351 352 352 352 352 351 350 350 349 349 351 351 350 351 354 357 358 360 358 356 357 358
345 345 348 350 351 351 348 348 348 350 350 351 350 351 352 346 345 345 346 346 347 349 351 350 348 349 348 346 344 347 346 347 348 350 350 354 357 357 359 359 358 359 358
345 346 348 349 352 348 350 350 349 346 346 344 347 348 347 348 347 347 347 345 344 343 347 347 345 344 343 342 341 342 344 344 344 346 350 352 352 356 358 358 358 360 360
347 347 350 352 350 351 349 347 346 345 344 342 342 344 345 343 341 341 345 346 344 343 342 342 341 340 339 339 339 339 340 341 342 343 347 351 352 351 356 359 357 357 358
347 347 349 348 349 349 348 347 346 347 346 346 346 344 344 344 346 344 345 347 348 346 344 342 341 340 337 336 335 336 336 337 339 341 345 348 351 353 352 354 357 357 358
347 349 350 346 347 345 344 343 342 344 345 346 344 344 346 346 349 348 347 348 346 345 344 341 340 340 339 337 336 337 338 337 339 341 342 346 350 352 353 353 355 354 357
347 347 347 344 341 340 338 337 337 337 340 344 343 344 343 342 341 341 342 342 345 343 344 342 340 338 336 336 335 335 336 340 341 343 345 345 348 351 352 354 354 354 354
345 345 343 339 338 337 336 337 337 339 341 344 344 347 346 346 344 340 340 343 343 343 342 341 339 337 335 335 333 332 331 334 335 340 343 344 344 348 350 351 352 352 353
343 343 340 339 337 335 336 340 340 339 341 341 339 341 343 345 345 344 344 342 342 341 340 340 339 338 333 337 337 335 326 327 331 334 339 342 344 346 348 349 351 352 352
341 341 340 337 335 335 340 339 340 337 336 338 339 340 341 343 343 344 344 343 343 342 340 340 341 339 337 334 338 338 337 335 326 324 336 335 343 342 344 347 349 350 351
333 339 338 336 335 336 338 341 340 338 338 338 337 339 339 339 340 341 342 342 341 342 341 341 341 340 338 336 336 335 336 337 338 333 328 331 337 339 340 341 346 348 349
334 340 340 336 335 337 337 341 340 338 336 336 336 336 336 336 337 338 341 341 341 342 341 341 341 340 340 338 337 337 335 334 334 331 328 328 329 335 339 342 342 343 343

GFSSE_sfc_thetae_039.txt.gz
Theta_e
353 360 368 367 365 366 366 366 368 369 368 368 367 365 365 365 365 364 365 365 358 361 361 359 360 360 360 361 360 359 359 358 357 356 358 357 355 356 356 353 355 351 355
354 360 369 369 367 365 366 366 366 368 367 366 367 367 366 366 364 363 362 363 361 360 361 360 361 361 361 360 360 359 358 358 356 356 359 357 355 355 356 355 351 355 356
353 359 364 368 368 365 365 365 365 366 365 366 367 366 365 365 364 361 361 361 361 360 359 361 361 360 359 361 358 358 359 358 358 358 357 352 353 357 356 356 356 356 357
356 358 361 368 368 367 365 366 365 365 363 365 365 366 366 365 363 361 361 360 359 359 358 357 361 360 359 358 359 359 358 358 358 358 355 352 349 355 356 356 357 357 353
358 360 363 370 369 366 365 366 366 366 364 364 363 363 363 363 362 362 361 360 358 360 360 357 358 360 360 359 360 359 359 359 358 356 356 357 353 352 354 355 354 353 351
359 360 367 370 367 365 365 365 365 364 364 363 363 363 363 362 363 362 362 361 361 361 361 361 356 360 360 360 360 359 359 359 358 355 356 356 354 352 354 355 351 354 350
359 361 365 369 369 367 366 365 366 365 364 363 362 363 363 363 362 361 361 360 359 359 360 361 361 358 358 360 360 359 359 358 355 355 356 354 353 357 352 357 357 356 352
358 361 364 368 369 366 365 365 365 364 364 364 363 362 362 362 362 361 360 360 359 358 358 359 359 359 360 361 359 359 357 357 352 353 355 356 356 356 353 352 354 354 352
361 362 364 365 366 366 366 364 364 363 362 363 363 363 363 362 362 360 360 359 359 358 358 359 359 358 360 361 358 357 356 356 356 355 355 355 357 356 355 354 356 355 352
361 361 363 365 365 365 365 366 365 364 363 364 363 362 363 362 362 362 361 360 359 357 354 357 358 360 360 362 359 358 358 357 356 356 357 354 355 356 357 355 355 354 353
358 361 363 364 366 366 366 364 365 365 365 363 362 362 362 361 360 360 359 359 359 359 357 356 357 359 361 360 360 358 357 356 355 355 357 357 354 356 358 357 356 355 354
353 357 358 363 364 364 361 366 365 363 361 361 361 365 361 363 363 361 360 360 360 359 359 358 357 358 358 357 359 358 353 354 354 356 358 355 356 356 358 357 357 356 355
353 356 356 361 364 364 362 362 363 361 360 362 364 365 364 363 364 363 366 366 362 361 359 357 358 357 358 356 356 358 356 354 351 353 356 356 357 356 357 361 360 359 357
353 355 359 360 361 363 362 363 362 361 362 361 364 364 361 362 361 361 365 363 363 365 363 358 356 357 359 358 355 357 357 355 352 351 353 356 358 358 358 360 359 358 357
352 355 358 360 361 362 362 363 352 352 356 361 360 364 356 355 353 351 349 355 357 360 360 364 362 359 358 358 359 356 354 354 355 353 352 354 357 358 359 358 358 359 358
353 354 357 359 360 361 359 358 354 348 348 350 358 355 356 356 351 356 354 353 356 358 359 358 361 361 361 359 356 357 356 355 356 357 354 353 356 358 359 359 361 357 358
354 355 354 353 355 358 353 356 356 351 350 347 349 355 359 353 358 356 353 353 355 357 358 358 358 357 356 358 356 355 354 355 353 354 354 356 355 357 358 359 359 358 357
355 354 349 343 342 353 355 358 355 355 348 345 345 351 355 356 357 357 355 354 355 355 353 351 352 352 352 352 352 351 351 352 352 353 353 353 355 354 357 358 358 358 358
357 356 349 342 341 346 354 359 358 351 352 354 351 349 355 355 355 352 351 352 357 353 350 351 350 349 345 348 348 348 348 347 348 349 350 351 352 353 355 357 357 356 359
355 353 354 349 343 349 356 354 352 347 349 350 351 351 356 356 355 354 352 355 357 356 354 353 352 351 350 349 346 345 346 346 345 344 345 346 349 352 356 358 357 356 358
350 352 351 355 358 354 349 347 348 349 341 346 348 347 349 351 349 352 350 353 355 354 354 355 352 350 346 347 344 344 345 347 346 346 348 348 346 352 357 357 364 365 357
333 340 353 356 354 353 348 348 346 342 346 347 345 351 354 354 354 352 354 354 355 352 352 352 350 344 342 346 341 341 335 340 343 345 345 348 350 351 353 356 358 361 363
331 337 344 351 352 349 348 347 346 346 347 346 345 349 352 353 353 353 353 354 353 351 348 351 350 344 339 341 345 343 335 332 338 339 343 345 347 349 351 353 355 356 359
335 337 343 346 348 347 351 349 348 343 344 347 346 350 349 350 349 350 351 352 353 351 350 350 351 347 344 341 340 342 345 342 338 332 341 341 344 345 350 352 354 356 358
338 338 345 347 347 347 349 351 350 348 347 346 347 349 349 348 348 348 350 350 353 353 352 351 350 349 344 341 339 342 339 343 346 342 334 335 340 342 342 345 351 354 352
336 339 344 347 347 347 346 347 351 348 345 344 345 345 342 344 346 349 349 348 348 350 350 351 350 348 348 344 344 346 345 340 341 340 340 334 336 339 342 344 346 346 349

GFSSE_sfc_thetae_042.txt.gz
Theta_e
354 360 369 367 366 367 367 369 369 369 367 366 366 365 364 364 363 363 364 358 360 362 361 360 359 359 360 360 359 360 359 359 357 357 357 356 356 356 355 355 354 350 353
356 360 368 368 367 367 367 368 369 368 367 367 366 365 363 363 363 362 363 359 358 359 359 359 360 361 360 361 360 360 358 357 356 359 359 354 356 356 354 352 355 353 353
356 361 364 368 367 366 367 367 367 366 365 368 367 364 362 363 361 360 361 360 355 350 357 360 361 361 361 360 359 359 357 357 356 358 355 355 354 357 356 354 356 357 355
357 360 362 368 368 366 366 366 366 365 364 365 366 364 362 363 360 359 360 360 357 357 354 358 361 360 359 359 359 359 357 358 358 357 355 347 350 356 356 356 356 356 353
357 359 367 368 367 366 365 365 366 365 364 364 364 363 362 361 361 361 360 359 358 359 354 354 360 360 359 358 360 358 359 359 358 358 356 351 349 355 356 357 357 354 350
358 360 366 369 366 366 365 364 364 364 364 364 363 363 362 362 362 360 361 360 359 359 360 358 357 359 361 360 359 360 359 359 358 351 355 353 354 354 354 353 351 351 354
359 361 364 369 368 366 365 364 364 364 363 363 363 363 363 362 362 359 361 360 360 359 360 361 358 356 361 361 359 359 359 358 354 351 351 351 355 354 353 354 353 351 354
358 360 363 367 368 366 365 365 364 364 363 362 362 362 363 362 360 361 360 360 359 359 359 361 361 359 359 361 360 359 359 357 353 351 353 352 357 355 353 355 355 355 353
360 361 364 364 367 366 365 365 365 364 363 363 363 362 362 362 362 361 360 359 359 358 357 359 359 360 361 362 360 359 359 358 355 354 353 354 356 355 354 352 354 354 352
361 361 361 364 365 366 365 365 365 362 363 363 363 362 362 362 362 362 361 360 360 358 356 358 359 359 362 363 359 358 357 357 356 353 356 356 359 357 356 355 356 356 354
360 361 362 362 364 365 364 365 365 363 363 363 363 361 362 361 360 362 362 359 360 358 356 357 358 360 361 360 359 358 358 355 355 353 359 358 358 356 357 357 357 356 354
356 358 361 362 362 363 360 365 363 362 362 361 360 363 360 359 360 357 359 358 359 360 359 359 358 359 359 356 357 358 355 354 354 357 359 359 357 356 357 361 358 358 356
356 358 361 362 363 361 359 359 366 359 360 361 363 366 368 365 361 357 363 361 364 362 359 358 358 356 354 357 355 354 352 354 353 355 357 358 357 357 357 360 360 358 357
355 357 360 362 362 362 360 358 359 356 357 364 363 365 369 370 366 361 361 358 364 369 362 358 354 356 358 358 356 356 355 353 350 351 356 358 358 359 358 358 360 360 359
355 358 361 363 364 363 364 367 365 362 356 357 361 353 356 358 355 356 358 355 358 368 361 361 362 358 359 358 357 356 355 355 355 353 352 358 358 360 359 359 360 360 360
356 358 361 361 364 364 363 362 357 354 353 353 353 351 350 353 354 354 352 352 354 362 369 368 363 357 355 356 357 358 358 356 356 356 354 355 360 360 360 359 362 361 359
358 359 358 353 359 364 363 359 359 353 351 352 349 351 353 352 355 359 363 358 354 358 364 365 362 361 358 356 355 357 356 357 355 357 357 355 357 358 360 361 361 360 359
360 360 352 349 349 355 361 360 362 360 353 354 349 348 349 358 361 360 355 357 358 367 372 367 358 364 361 356 358 356 354 354 355 356 356 356 354 354 357 360 360 359 359
361 360 348 349 353 354 356 362 357 357 352 353 349 351 349 358 360 364 362 359 362 355 357 355 353 357 356 354 351 353 353 353 353 351 353 356 357 356 356 360 359 358 359
355 350 339 347 350 351 358 362 361 351 348 344 356 354 352 361 361 360 362 356 357 361 364 361 357 356 352 350 349 348 350 352 352 349 349 352 355 355 355 357 359 357 359
348 336 333 332 354 355 353 356 353 342 345 350 346 351 356 357 356 361 363 358 358 356 355 357 354 353 354 353 351 346 347 352 352 349 349 347 348 349 352 355 368 357 356
343 345 346 347 360 360 357 356 352 344 347 347 349 350 358 350 358 358 358 356 357 357 356 356 356 354 352 354 345 343 338 343 346 349 349 349 350 349 351 358 362 361 359
345 349 350 355 358 359 355 351 350 351 348 345 349 353 358 356 357 358 356 357 357 355 348 355 354 352 344 347 350 344 339 332 346 348 350 349 352 349 351 353 357 359 361
349 352 351 353 357 355 357 353 352 346 344 350 351 357 352 355 354 354 354 354 355 352 354 353 353 354 351 345 347 347 349 349 342 341 348 348 351 348 351 353 355 359 360
347 353 356 358 355 355 357 356 353 351 354 349 350 354 355 354 351 350 352 353 354 359 357 356 354 354 352 350 348 345 345 346 350 345 340 339 345 344 345 347 350 356 355
346 352 355 356 354 356 355 357 356 354 352 349 349 346 347 348 346 351 351 349 351 355 356 355 355 353 350 350 347 344 346 343 342 346 344 343 342 339 340 343 346 350 349

GFSSE_sfc_thetae_045.txt.gz
Theta_e
354 360 369 366 364 365 367 369 367 366 364 364 363 363 364 363 363 357 361 360 361 360 360 359 359 358 358 359 359 360 359 358 357 358 357 357 357 357 355 354 356 344 355
356 359 369 369 366 366 366 368 368 367 364 364 364 364 363 362 362 361 355 359 359 359 359 359 359 361 361 361 361 359 358 357 359 358 356 358 357 353 354 354 356 355 355
356 359 363 369 368 366 366 366 365 367 364 364 362 362 362 362 361 361 360 353 348 350 357 359 361 361 360 360 360 358 357 356 358 360 356 352 354 355 354 356 357 355 352
357 358 359 368 368 367 366 366 365 365 365 366 363 362 361 361 360 360 359 356 351 352 354 358 360 360 362 359 358 357 357 357 357 356 355 352 352 356 356 356 357 355 355
356 358 364 368 367 366 365 365 366 364 365 364 364 362 360 360 359 360 359 357 358 358 352 356 358 359 359 358 360 359 358 358 356 356 353 352 350 356 358 357 357 352 349
358 362 366 367 366 365 365 364 364 364 364 364 363 362 361 360 360 360 359 357 357 359 358 354 357 359 359 360 360 359 360 359 359 355 355 352 354 358 356 354 352 352 355
361 362 365 369 367 365 364 364 364 363 363 363 362 362 361 361 360 358 360 359 358 358 359 360 357 359 361 361 359 360 360 360 357 347 352 350 354 357 356 351 354 349 355
357 360 364 368 367 366 365 364 364 364 363 362 363 363 362 360 359 359 359 358 359 359 359 360 359 357 361 361 359 360 360 359 354 348 348 351 357 354 356 356 355 351 355
358 361 363 364 368 365 364 366 365 364 363 362 362 363 361 360 361 361 359 360 358 357 357 359 360 359 359 361 361 360 360 358 355 352 349 355 359 356 354 356 356 355 353
357 360 361 364 367 367 363 365 365 364 363 365 362 362 363 361 360 360 360 360 359 357 357 358 359 359 360 362 361 360 359 359 355 353 351 353 359 356 356 354 356 356 352
356 358 363 363 365 365 365 364 364 362 362 363 362 362 362 358 360 360 362 359 360 358 355 357 358 359 361 362 360 358 358 354 351 354 356 358 360 357 358 357 357 357 355
353 355 358 361 363 363 359 366 362 361 360 360 361 362 359 360 359 358 361 360 359 360 360 358 358 359 359 355 356 358 355 354 353 354 357 361 360 356 357 360 358 357 356
354 354 358 360 364 361 359 359 358 358 358 358 363 365 363 362 362 357 364 357 358 361 357 358 358 355 354 356 356 353 352 351 353 353 356 361 361 357 357 360 360 358 358
352 354 358 361 363 366 368 356 357 356 360 362 359 364 364 364 364 361 363 363 361 359 363 352 352 356 357 355 354 356 356 354 353 354 359 361 361 359 358 359 362 360 359
353 356 362 362 364 365 365 365 366 361 359 358 358 358 357 359 359 356 354 355 356 366 355 364 362 358 359 357 356 356 354 356 354 352 357 362 360 361 360 359 360 360 361
355 359 361 362 365 365 369 363 360 358 355 355 355 355 357 354 353 351 351 351 351 355 358 360 366 358 357 357 354 356 358 357 356 358 353 358 362 362 361 360 362 363 360
357 357 360 364 364 366 364 361 358 357 352 352 354 356 355 353 353 353 351 351 352 357 363 362 365 364 360 357 356 357 357 357 353 356 356 358 356 360 362 362 362 362 362
357 341 354 361 352 357 362 367 366 357 356 356 353 352 352 352 352 357 357 354 357 361 362 365 366 357 361 358 362 354 355 356 359 356 356 354 359 352 358 360 361 361 362
352 341 350 355 349 351 358 364 363 358 358 353 353 351 350 350 357 358 355 356 363 356 369 361 355 360 357 355 356 359 355 354 355 351 352 355 357 356 354 357 359 360 361
350 359 354 349 348 345 354 363 354 345 347 349 352 350 353 352 355 363 360 364 362 365 367 356 358 362 354 353 350 347 353 353 351 350 350 350 352 354 354 358 361 356 360
344 346 341 338 341 350 354 358 351 344 342 345 348 351 352 353 360 364 365 364 366 365 359 359 356 356 350 352 349 347 348 350 351 350 351 347 350 352 355 355 357 357 356
346 346 350 346 349 356 361 358 355 347 346 348 348 351 352 355 358 359 360 361 359 358 358 356 357 354 353 355 347 352 340 343 343 347 347 349 347 349 349 355 357 364 365
349 348 357 353 359 362 359 355 352 351 349 344 347 350 351 355 356 356 356 356 357 357 348 360 355 354 352 356 354 346 339 340 342 347 350 349 352 355 350 354 354 347 363
349 356 359 361 362 358 357 355 354 346 345 355 354 358 361 355 354 353 354 355 356 352 357 354 361 357 355 348 355 355 349 350 343 341 353 357 354 352 354 356 356 357 355
352 352 352 362 361 358 359 358 353 354 357 353 353 353 357 356 351 351 354 357 356 357 358 356 357 355 356 351 350 350 350 347 346 345 336 342 344 345 348 350 353 354 352
350 353 356 360 358 359 357 357 354 352 353 353 354 352 349 348 348 352 351 353 353 354 357 358 357 355 355 355 355 348 344 347 347 343 344 338 339 339 341 341 342 342 344

GFSSE_sfc_thetae_048.txt.gz
Theta_e
351 360 369 369 369 369 369 368 366 366 364 364 364 365 365 364 358 361 361 362 362 361 361 359 358 358 359 360 360 359 359 357 358 358 358 358 359 358 357 355 357 351 353
353 359 368 369 369 369 369 368 367 366 365 365 365 364 364 362 360 357 359 362 361 361 360 359 360 361 361 361 361 359 357 358 359 357 361 357 355 356 356 357 359 353 354
353 359 362 368 369 368 369 369 368 366 365 364 364 363 363 361 360 358 358 352 353 356 359 359 359 359 361 361 359 357 355 358 359 358 360 350 350 356 357 357 355 353 353
354 356 360 369 368 367 368 368 368 367 365 365 365 362 362 363 360 360 359 352 351 353 358 359 359 360 360 359 359 359 357 356 358 358 354 352 349 358 357 358 356 356 356
354 355 363 370 368 366 366 367 367 367 366 365 364 363 362 361 358 357 358 359 356 356 353 357 358 359 359 359 360 358 358 358 357 357 354 352 350 356 358 358 354 351 353
357 356 366 369 367 366 366 367 366 365 366 366 364 362 361 360 358 357 357 356 356 357 355 355 356 359 358 360 359 359 359 359 358 355 352 356 352 359 358 356 355 356 354
358 357 363 369 366 365 365 365 365 365 365 364 363 362 361 361 360 359 359 357 357 357 358 359 357 359 359 361 360 360 360 359 356 356 352 350 355 360 355 354 352 356 356
359 358 361 367 367 365 364 364 364 363 363 363 362 362 362 361 360 359 359 358 358 358 358 359 358 358 361 361 359 361 361 360 356 353 351 351 356 360 356 353 354 354 355
359 361 362 361 365 365 364 364 364 363 363 363 364 364 363 362 359 359 359 359 358 357 358 359 360 359 359 361 360 360 361 360 354 354 351 352 358 360 359 358 357 353 356
361 361 360 364 363 363 360 366 365 365 363 363 362 363 362 360 360 361 362 363 359 357 356 357 358 360 362 363 362 361 360 360 352 353 353 352 359 358 357 357 356 356 354
358 360 362 363 368 367 364 363 367 364 363 364 362 362 362 360 358 359 361 363 360 359 357 358 358 362 361 360 362 361 359 352 349 352 353 358 359 360 357 357 358 359 354
352 357 361 361 362 364 359 365 362 361 359 361 362 362 358 351 354 352 359 361 359 360 359 359 359 361 359 356 358 359 354 352 352 352 355 359 361 361 361 361 360 359 356
354 357 361 363 362 361 362 362 360 360 356 358 359 361 357 354 347 353 354 357 359 360 356 357 357 355 355 354 355 354 353 352 352 354 355 361 361 361 360 362 362 359 358
353 354 356 364 365 367 358 355 363 356 350 345 356 364 358 354 356 354 357 359 360 362 358 351 346 350 353 355 356 352 354 352 351 351 357 362 361 361 361 362 363 361 360
353 356 361 365 369 372 370 364 365 358 350 351 355 365 362 359 359 359 354 355 354 360 358 350 341 336 351 357 356 354 353 352 355 355 358 362 360 361 361 361 362 361 361
338 340 342 363 365 365 364 365 360 361 359 357 355 357 363 360 358 356 347 347 348 357 353 353 352 350 352 358 357 354 352 354 354 355 355 356 360 360 361 363 363 363 362
331 332 340 346 360 360 362 359 365 364 359 352 351 353 359 358 356 354 347 348 349 346 341 345 352 356 355 358 357 351 357 357 355 356 353 355 356 362 362 362 363 362 361
332 331 332 345 359 360 363 366 367 364 357 353 353 354 355 356 356 352 348 354 348 348 341 338 351 352 354 353 353 355 351 354 356 354 356 355 355 353 359 361 360 361 361
341 337 335 351 355 356 360 361 361 352 351 352 355 351 349 350 353 351 355 355 360 354 348 345 357 355 354 354 353 350 350 355 357 353 353 352 355 354 355 357 357 357 360
338 340 344 356 352 351 359 359 351 348 346 348 352 351 350 353 353 355 356 358 361 359 355 353 354 354 352 351 352 350 352 353 354 352 351 351 350 353 355 354 353 353 357
345 354 350 347 347 353 358 355 345 344 344 342 348 348 350 351 354 354 352 356 356 357 355 355 353 351 352 353 349 348 349 352 351 351 351 350 346 352 350 349 354 354 355
348 349 352 348 357 361 362 363 353 346 344 345 344 347 348 351 352 357 355 352 352 354 354 354 353 352 352 354 345 345 338 343 347 347 347 348 345 349 349 351 351 351 347
347 349 351 352 358 364 363 356 354 353 344 343 343 346 349 352 352 351 355 356 357 357 353 355 356 353 347 353 352 344 337 334 340 347 344 345 347 347 350 351 350 347 346
349 352 358 360 360 364 364 356 357 353 348 350 354 352 352 356 354 355 356 355 353 356 355 355 357 354 352 345 351 349 347 345 337 333 341 344 345 346 347 350 350 347 341
349 352 354 360 362 362 364 363 358 357 358 354 355 357 357 351 353 352 353 355 355 356 357 356 357 355 353 348 348 347 345 344 344 339 333 338 340 342 344 345 344 348 344
351 352 351 359 362 363 363 361 363 359 358 352 352 351 351 353 350 354 352 354 356 355 355 356 353 352 353 352 350 349 345 342 341 340 337 336 332 335 337 340 340 342 343

GFSSE_sfc_thetae_051.txt.gz
Theta_e
353 361 369 371 371 370 368 367 364 363 362 363 364 363 364 362 362 362 362 362 362 363 361 360 359 360 360 361 360 360 357 358 360 359 360 359 358 357 357 359 354 347 355
356 362 369 369 371 370 370 369 367 365 363 363 364 364 363 361 360 360 362 362 362 361 360 361 361 361 361 361 360 358 358 359 358 359 357 358 358 358 363 357 356 354 356
356 361 364 369 370 370 370 369 367 366 364 363 365 364 362 363 357 361 357 357 359 360 362 361 361 360 361 360 358 357 359 360 359 360 355 349 352 358 356 355 352 353 356
356 357 362 368 369 370 370 369 368 367 364 364 364 364 364 362 360 360 353 353 356 359 360 360 361 361 360 359 359 357 358 358 359 357 354 349 351 359 358 355 355 356 354
355 357 362 369 370 368 369 368 368 367 366 364 364 362 363 364 362 360 359 356 356 355 359 359 360 362 358 360 358 358 358 358 358 356 352 348 347 356 358 355 352 357 353
354 361 368 369 367 367 369 369 368 368 367 366 364 362 362 362 362 361 359 358 359 359 355 358 359 358 358 360 359 358 359 358 357 352 349 352 350 359 360 354 354 352 355
354 361 365 369 369 368 368 368 368 368 367 366 363 362 362 362 362 361 360 359 358 358 359 356 358 360 358 360 359 359 359 358 354 353 348 351 353 361 357 356 356 356 356
355 359 361 367 367 366 365 365 365 365 364 364 363 362 361 362 361 362 361 360 359 359 359 360 357 358 360 360 359 360 359 359 355 353 350 350 358 359 356 355 354 356 353
356 356 359 361 362 364 364 364 364 364 364 363 364 364 362 361 359 360 361 361 359 358 359 359 359 358 359 360 359 360 359 359 353 350 350 349 360 360 355 357 352 356 355
355 356 357 358 358 357 359 365 365 365 363 363 363 364 362 361 359 359 362 362 360 357 356 357 360 360 360 362 361 359 359 360 352 352 348 347 359 360 360 358 357 354 357
355 355 357 356 356 356 356 362 366 364 363 363 361 361 362 354 353 353 356 361 359 358 357 357 360 362 361 360 362 361 360 352 349 347 349 358 360 361 359 358 359 356 354
350 352 356 357 357 357 358 357 357 358 356 356 356 354 353 350 343 344 346 358 358 358 357 358 357 359 359 354 356 359 353 351 348 350 350 359 360 361 359 359 360 358 355
349 352 354 355 356 356 356 356 355 352 350 343 351 353 351 341 339 339 339 348 351 356 353 356 354 354 352 351 351 352 352 350 348 351 355 359 360 361 361 361 361 358 357
337 337 338 353 355 355 353 344 343 346 342 342 341 351 347 346 340 341 344 349 349 348 348 345 340 341 337 347 352 351 351 348 347 351 351 359 360 359 360 361 361 359 358
333 335 341 341 345 352 349 345 344 346 343 343 341 350 353 345 349 348 348 349 348 349 347 347 342 338 338 343 351 350 350 349 349 351 351 362 361 359 361 360 361 360 360
336 337 338 340 341 351 350 351 348 347 342 345 343 352 353 350 347 346 343 343 345 350 346 346 347 345 344 345 346 350 351 349 349 352 353 354 361 359 361 362 363 363 361
336 336 334 339 346 349 352 351 349 350 348 345 345 348 350 349 348 346 342 343 346 344 341 341 341 347 345 347 347 349 351 350 352 352 351 351 355 361 360 361 362 363 363
335 333 333 337 346 350 351 351 350 349 347 346 346 348 350 350 348 346 343 347 347 344 340 338 337 338 343 346 345 346 348 347 348 348 351 352 351 351 357 360 358 359 363
334 335 333 336 348 346 351 351 346 344 344 347 348 345 345 347 347 345 343 349 350 345 343 343 340 338 340 344 346 345 346 347 349 351 349 350 352 353 352 357 359 358 361
335 336 336 338 343 341 348 345 343 342 341 342 345 343 347 346 348 345 348 349 349 347 345 344 341 342 344 344 347 346 344 345 347 347 346 349 349 352 352 352 352 353 357
337 336 341 345 338 338 348 340 338 337 338 339 342 343 345 345 348 347 347 348 348 345 347 346 344 341 341 344 339 338 341 344 345 345 345 346 345 346 349 350 347 349 349
338 343 336 336 338 341 350 347 341 336 341 339 338 343 344 346 348 348 346 348 347 345 344 344 343 341 342 343 336 334 328 333 339 344 344 346 344 346 346 349 346 347 344
342 343 342 343 349 350 348 344 343 339 337 337 338 343 345 349 350 347 347 347 346 345 343 343 343 342 338 340 341 334 327 325 330 337 338 340 343 343 346 347 347 344 344
344 344 350 340 348 354 345 342 340 339 333 335 342 344 345 348 348 347 347 347 346 346 344 345 347 342 341 336 339 342 339 335 327 324 335 340 341 341 344 346 344 342 338
345 349 351 351 351 349 349 344 345 342 344 345 344 344 342 342 345 347 345 344 344 345 345 344 343 341 342 340 338 337 335 335 335 329 323 333 337 339 341 341 343 342 343
347 347 349 350 350 347 349 347 344 343 343 341 339 338 338 342 342 345 346 343 343 343 343 344 344 343 342 342 340 339 336 332 331 331 327 330 330 333 335 339 341 341 342

GFSSE_sfc_thetae_054.txt.gz
Theta_e
354 361 369 370 367 366 365 364 362 362 363 364 365 365 365 365 364 363 364 364 362 360 360 359 359 360 361 360 360 358 357 358 358 357 358 358 358 358 358 352 354 350 351
357 362 369 370 369 366 365 364 362 362 363 363 364 362 363 363 362 362 365 362 361 360 361 360 359 361 361 360 358 357 357 359 359 359 359 358 358 357 357 353 356 353 353
358 361 365 369 370 367 366 365 363 362 363 363 364 363 360 360 362 361 361 362 361 361 361 362 360 361 361 359 357 360 359 360 360 357 359 350 350 359 357 353 356 357 353
359 359 363 369 369 369 367 366 365 363 363 363 363 362 361 359 360 354 356 358 361 361 361 360 361 361 359 357 356 360 360 359 360 356 349 351 352 356 353 354 353 353 355
356 359 362 369 369 367 367 368 367 366 364 364 363 362 361 361 360 357 355 356 356 359 360 361 360 359 359 358 357 358 359 359 359 356 350 345 348 356 355 356 357 352 350
356 359 367 369 366 366 367 368 367 365 365 365 363 361 361 360 360 360 360 359 359 357 358 359 359 359 357 360 357 358 357 357 357 351 349 350 349 358 353 355 355 353 356
356 361 363 369 368 367 367 367 368 366 365 364 362 361 361 360 360 360 359 359 359 359 357 358 359 357 358 359 358 357 356 357 353 351 347 349 350 361 355 355 353 354 353
358 361 363 368 368 366 365 365 365 364 363 363 362 361 361 361 360 361 360 360 359 359 360 358 358 359 359 359 358 358 355 354 354 352 349 350 354 361 357 356 356 357 355
359 359 360 361 362 365 365 364 364 364 364 364 363 362 362 361 361 361 361 361 361 360 360 361 358 358 360 360 358 357 357 356 351 349 348 349 357 358 356 355 356 354 352
356 358 357 356 356 357 358 364 363 364 363 363 363 362 361 360 360 360 362 363 360 359 359 359 360 359 358 360 360 358 357 356 352 350 346 348 357 357 356 354 354 356 354
353 354 356 355 354 354 356 360 365 363 363 363 362 364 361 353 353 357 360 360 360 359 359 359 360 361 359 359 361 360 359 351 350 346 349 354 358 359 358 358 354 355 357
336 341 342 342 350 355 359 357 358 357 355 355 355 353 354 350 347 347 354 361 359 359 358 357 358 360 358 353 353 359 352 351 349 346 348 357 358 359 360 360 358 356 355
339 340 339 338 344 350 355 356 357 354 352 353 354 351 348 346 342 336 339 348 350 357 351 356 354 353 352 350 350 352 351 350 347 350 354 358 357 358 358 358 358 358 355
338 335 337 339 343 339 347 351 346 348 345 344 344 349 346 339 336 334 336 345 347 349 347 345 341 342 338 342 347 349 350 349 347 351 351 355 358 358 358 358 358 358 358
335 333 336 339 337 339 342 343 341 343 344 344 339 348 346 341 341 340 342 347 345 347 345 342 340 337 337 338 347 348 349 350 347 348 347 357 358 358 360 361 360 359 359
337 332 337 335 339 343 347 342 341 342 342 343 339 339 351 342 345 343 342 341 342 345 343 343 343 342 341 342 345 345 346 349 347 348 349 350 360 360 360 361 361 361 360
335 336 336 337 345 344 347 347 345 344 342 341 340 345 352 348 345 342 339 338 340 344 341 338 337 341 343 344 345 346 348 350 349 349 350 350 354 361 360 359 359 359 361
336 332 332 336 341 347 347 348 346 347 343 343 343 345 348 347 346 342 340 341 344 341 339 335 334 335 338 342 343 343 346 347 347 346 349 350 351 353 358 359 358 359 361
332 331 330 331 345 348 348 345 343 342 342 345 346 344 344 347 348 343 341 340 346 344 340 338 340 337 335 339 342 343 344 344 346 348 348 348 349 350 350 356 358 358 358
333 333 331 333 342 343 343 342 340 339 340 342 343 344 342 343 345 343 342 343 346 345 343 341 340 339 340 341 346 347 343 344 344 343 345 348 345 350 349 351 351 353 357
334 334 333 340 338 340 344 334 333 332 335 338 340 342 342 345 345 342 342 344 344 343 344 345 342 340 339 341 338 336 338 341 342 343 345 344 344 347 346 346 346 348 347
336 339 338 340 335 336 345 342 336 333 336 336 340 340 342 343 346 346 343 344 345 344 343 343 342 339 340 340 334 331 327 330 335 340 341 343 341 345 346 346 346 346 342
337 340 333 335 337 342 344 338 336 335 334 333 335 341 344 345 346 345 344 343 344 343 342 341 341 339 335 337 339 332 325 323 327 334 338 339 341 342 344 346 344 343 341
340 342 339 343 347 346 340 338 334 331 328 331 337 340 344 346 345 345 345 344 343 343 343 342 344 339 338 335 337 340 336 333 325 322 335 337 340 339 339 338 342 340 339
343 342 345 337 347 349 340 338 339 336 338 341 341 339 338 341 345 345 343 344 343 343 342 342 341 339 340 337 336 335 334 333 332 327 323 331 335 338 340 343 342 341 342
344 349 348 346 346 346 343 342 341 341 339 337 336 333 337 337 340 342 343 341 340 341 341 341 340 340 339 338 337 337 334 330 328 328 327 329 329 332 334 337 340 339 340

GFSSE_sfc_thetae_060.txt.gz
Theta_e
351 359 365 366 365 362 361 360 362 362 363 365 364 364 364 362 361 361 360 360 360 359 359 359 358 359 359 358 358 357 356 357 359 356 357 359 356 356 356 357 355 346 349
355 361 363 367 365 363 362 362 362 363 363 364 364 363 363 362 362 362 361 360 360 360 359 359 359 359 357 358 356 355 355 359 358 358 357 357 354 353 354 353 352 349 349
358 362 364 367 367 363 362 363 363 363 362 363 364 362 362 363 363 362 360 360 360 359 359 361 360 360 358 357 356 357 356 358 359 357 357 355 349 353 355 357 351 355 352
358 360 363 367 367 364 362 363 364 362 361 362 362 363 363 362 362 361 361 360 361 362 361 361 360 358 357 357 357 358 359 359 358 357 353 353 350 356 355 355 351 353 356
357 359 362 367 367 365 362 363 364 364 363 361 360 362 360 359 360 361 360 361 361 361 361 361 360 357 357 360 358 359 356 357 357 354 351 352 352 350 355 355 355 352 355
356 358 364 367 366 365 363 362 363 364 363 361 360 360 360 357 358 357 358 360 360 361 361 361 358 359 357 358 357 357 356 357 355 350 349 353 352 353 354 353 352 356 354
354 357 362 368 367 366 364 363 364 364 362 361 361 361 361 360 358 359 358 358 360 358 360 360 357 359 358 358 357 355 356 355 352 352 348 353 353 356 355 355 349 352 355
354 358 361 365 366 365 364 363 363 363 361 361 361 360 360 361 361 360 359 359 358 357 358 359 358 359 359 358 356 356 357 356 353 351 349 352 354 356 355 354 353 355 352
358 358 359 359 362 364 364 363 363 362 361 362 361 361 361 360 359 359 360 360 360 360 358 359 360 359 359 358 357 357 356 356 353 350 349 351 357 357 355 354 355 352 351
358 358 357 356 354 356 356 362 362 363 362 362 362 361 360 361 359 360 361 362 359 360 360 359 359 361 360 359 358 357 356 355 353 350 351 351 357 359 357 355 356 356 351
351 351 349 349 349 351 353 357 361 362 363 361 361 362 360 356 356 359 359 360 359 359 359 359 358 359 360 360 359 357 356 353 351 349 350 353 358 357 356 356 355 355 352
343 343 341 344 344 346 354 354 355 355 356 356 357 356 355 354 353 356 358 359 359 358 358 359 360 359 358 356 357 359 355 352 351 349 353 355 359 357 358 357 357 355 354
342 342 342 343 342 344 344 344 351 353 354 354 355 355 355 352 352 354 352 354 356 358 354 356 356 356 353 354 354 355 354 352 351 352 352 356 359 357 359 360 358 356 356
340 340 339 341 341 341 342 345 347 351 351 350 352 352 348 347 347 343 344 349 351 353 353 353 351 351 350 351 350 351 351 352 351 351 353 357 359 360 360 360 361 357 356
337 337 337 338 341 341 343 345 345 344 349 349 349 350 348 345 342 340 339 345 348 350 350 349 346 344 342 341 344 346 350 351 352 351 354 357 359 359 359 360 359 358 358
333 334 335 337 340 341 343 343 343 344 343 345 345 343 346 343 340 338 337 340 347 347 349 347 345 343 343 345 343 344 347 350 353 352 351 354 359 359 359 359 359 358 358
336 334 334 335 340 338 340 342 345 344 343 341 343 341 343 344 341 342 340 342 346 348 347 345 344 344 344 345 345 345 348 348 349 352 351 352 351 357 359 360 359 360 359
334 332 333 338 339 338 341 345 347 345 343 341 342 343 343 347 344 343 342 343 344 345 345 342 340 339 338 339 342 345 348 349 350 352 352 352 352 351 354 360 358 358 358
333 331 332 334 336 338 341 345 346 345 344 343 342 343 344 346 347 344 343 342 343 343 342 341 339 338 339 339 339 342 344 346 348 349 350 351 353 353 354 357 358 358 359
332 331 331 330 339 344 342 341 340 340 343 344 344 344 345 347 347 345 344 340 342 344 343 342 340 341 341 341 340 345 348 347 348 348 348 350 352 352 355 354 354 356 358
332 330 328 331 340 340 336 334 333 334 339 340 342 343 344 344 345 343 343 343 343 342 343 344 344 340 341 340 341 342 341 341 342 343 345 347 349 350 352 353 353 354 354
331 330 329 335 338 341 340 335 334 335 336 337 341 341 343 343 344 344 343 341 342 342 343 344 345 338 339 342 340 337 333 334 338 342 343 345 345 348 349 349 351 350 350
333 336 333 337 336 338 343 334 334 334 334 334 336 338 341 344 345 345 345 344 344 344 343 344 344 343 339 342 342 337 329 326 332 339 339 341 342 342 344 345 346 346 347
336 339 335 338 335 337 340 334 333 330 329 332 336 341 342 347 346 346 345 345 345 343 342 342 343 343 341 338 339 341 338 335 329 328 337 338 339 340 342 342 343 343 342
338 339 336 336 338 344 339 335 335 334 336 338 339 339 341 342 344 345 344 345 344 343 344 343 345 343 342 340 340 338 339 337 336 332 328 332 336 335 340 342 342 343 344
341 340 339 340 343 343 339 337 341 338 338 338 338 336 337 339 341 343 343 343 343 343 343 344 344 344 343 343 341 339 337 336 334 333 331 331 330 331 333 336 337 338 341

GFSSE_sfc_thetae_063.txt.gz
Theta_e
353 358 366 365 362 361 362 362 363 365 366 366 365 363 362 361 360 360 359 359 359 360 359 358 360 359 359 359 357 357 356 357 355 356 356 358 355 356 354 355 353 346 350
356 357 365 366 364 361 361 362 363 365 365 366 365 364 362 361 361 360 360 360 359 359 359 359 360 360 360 358 357 356 358 358 357 358 357 353 357 357 357 355 346 346 356
356 358 361 365 365 363 362 362 362 363 362 362 364 362 361 362 361 361 360 360 359 359 359 360 360 359 359 356 356 356 358 357 358 357 357 348 349 354 353 350 356 351 354
358 359 360 365 365 365 364 364 363 363 361 362 362 362 363 363 362 360 359 360 360 359 360 360 360 358 357 356 358 357 357 357 357 357 354 347 349 355 357 351 356 354 355
359 360 362 366 366 362 363 365 365 363 363 362 363 363 363 362 361 360 360 360 358 359 360 360 358 357 357 357 359 359 359 359 357 355 355 353 349 355 356 351 353 357 356
358 359 365 366 366 363 362 363 364 364 364 362 363 362 360 360 360 360 359 360 360 360 359 359 358 357 359 359 360 356 357 357 356 354 355 355 349 354 353 355 353 355 354
358 360 363 366 366 365 364 362 363 363 364 363 361 361 358 359 358 358 358 358 358 358 358 359 359 356 358 357 357 356 358 356 352 352 354 353 352 356 356 350 355 355 354
357 359 363 364 364 365 363 363 363 361 362 361 361 361 361 359 359 360 359 358 357 358 359 359 358 358 358 358 356 357 356 355 355 354 352 354 356 355 356 352 350 353 357
358 361 363 363 363 363 363 363 363 362 361 361 362 361 360 361 361 359 359 359 359 358 357 358 358 360 358 357 356 356 357 357 355 355 353 352 357 354 356 354 354 354 352
358 360 362 361 363 364 363 362 362 361 361 361 361 361 359 360 359 359 361 360 359 359 359 358 358 359 359 357 356 357 357 357 356 355 355 354 357 357 355 355 355 353 351
357 360 362 359 360 364 364 363 363 362 362 361 362 362 361 360 358 359 360 359 360 360 359 358 358 359 359 359 358 356 356 355 354 355 356 356 357 358 357 357 356 356 353
353 356 358 359 358 359 360 364 363 362 363 362 362 363 364 361 361 359 358 359 358 358 357 357 358 359 359 356 355 357 353 354 353 355 357 356 357 358 358 360 358 356 354
353 354 353 353 350 353 355 364 361 359 362 361 362 363 362 361 360 359 358 357 360 359 356 358 357 357 355 357 355 355 355 353 352 353 356 356 358 358 358 362 359 357 355
351 351 352 350 343 344 345 358 363 362 360 361 361 363 363 359 360 359 357 357 360 361 359 358 357 358 357 357 357 356 355 353 351 352 355 355 359 358 358 359 359 357 357
349 350 351 348 347 345 348 356 358 359 359 360 361 363 361 360 360 358 356 357 357 359 358 358 357 356 356 355 356 355 354 353 353 352 352 356 358 359 359 358 358 359 357
349 350 349 344 346 346 347 350 351 349 349 352 358 356 360 360 358 356 356 354 356 357 357 356 357 355 353 351 351 353 354 355 357 357 354 354 358 359 359 360 360 359 358
347 346 342 343 346 345 346 350 350 349 351 352 354 351 351 349 345 346 351 350 356 357 358 359 356 354 352 352 352 352 350 353 353 358 359 357 356 357 360 360 360 359 360
349 343 342 342 345 348 347 349 352 352 351 350 349 346 344 347 347 344 346 349 351 354 355 354 352 349 348 348 349 349 350 352 355 357 357 358 357 357 358 359 359 359 360
345 346 342 343 345 343 345 349 351 353 353 352 351 350 347 345 352 351 344 347 354 353 353 352 351 349 347 348 347 347 349 349 353 352 356 358 359 358 357 359 358 358 360
342 343 343 342 344 349 351 349 349 349 348 348 349 350 350 346 347 353 349 347 349 347 346 349 350 350 348 348 347 346 350 351 354 353 354 355 357 358 358 360 366 357 359
340 342 342 341 347 351 350 347 343 343 345 346 348 353 352 353 350 348 345 348 349 347 349 351 350 349 348 350 341 348 349 351 352 352 348 350 355 356 358 359 360 359 357
340 340 340 341 352 351 350 347 346 346 344 349 348 347 345 348 348 347 345 345 353 349 350 350 350 347 349 341 338 340 338 340 347 347 349 349 352 355 355 357 358 359 359
339 340 340 342 352 352 353 345 345 345 345 344 345 345 343 344 344 348 351 351 351 350 345 349 350 349 344 342 344 346 340 333 338 345 344 345 346 347 347 351 353 354 356
341 343 347 343 351 352 354 345 344 341 340 344 345 348 347 346 347 350 352 351 354 352 351 350 355 353 352 340 346 349 348 345 337 333 342 341 343 343 347 345 346 349 352
343 345 345 348 350 348 353 350 343 344 344 343 347 350 351 349 348 347 345 347 349 347 346 344 347 344 347 352 347 345 345 342 342 339 331 335 338 338 343 345 346 348 350
344 345 346 345 347 348 354 351 346 350 349 347 344 345 347 348 350 350 346 346 348 346 348 348 348 353 352 350 349 347 344 341 339 341 338 336 333 332 334 337 340 345 348

GFSSE_sfc_thetae_066.txt.gz
Theta_e
353 360 366 363 363 363 364 365 367 368 365 364 363 361 361 361 361 360 361 360 359 359 357 359 358 358 360 359 358 356 356 355 355 358 359 358 358 356 358 355 352 349 353
357 359 366 365 362 363 364 364 365 368 366 365 363 362 361 361 361 360 359 359 359 360 359 359 360 360 359 357 358 357 358 356 358 359 358 357 356 355 354 347 353 349 351
356 359 363 366 364 362 363 364 364 365 364 364 363 363 361 361 361 361 361 359 359 358 358 359 359 359 357 356 356 359 358 358 357 357 353 350 357 356 353 351 351 357 355
357 359 361 365 365 363 363 363 364 363 363 363 362 361 361 363 362 361 360 360 358 359 359 359 360 359 356 356 356 358 357 358 357 357 348 345 347 356 350 356 351 354 355
358 359 364 366 365 363 363 364 364 364 363 362 361 362 363 363 362 361 359 360 359 359 359 359 359 356 356 358 358 357 358 358 356 356 351 350 349 356 351 354 356 356 355
358 358 365 366 363 363 363 363 363 363 363 364 363 363 363 362 362 361 360 360 360 359 359 359 357 356 359 359 359 358 359 357 357 351 351 349 353 358 352 351 355 356 353
357 359 363 368 367 365 363 363 365 363 362 362 363 360 361 360 361 360 360 360 360 360 359 359 357 357 359 360 357 357 357 356 353 351 351 350 353 354 352 353 354 352 351
356 358 360 364 366 365 362 363 363 362 362 362 362 361 358 360 358 359 359 358 357 359 359 358 359 357 358 357 357 357 358 356 353 350 351 351 355 354 357 350 353 355 354
357 357 361 364 365 364 363 363 363 361 362 362 361 362 361 360 360 361 360 359 359 358 360 359 359 359 359 358 356 357 357 356 356 353 349 351 356 354 356 353 350 352 354
357 358 363 363 365 365 364 365 363 362 361 360 360 360 360 361 361 359 361 359 359 358 358 359 358 360 358 358 356 356 356 357 355 352 354 355 359 355 355 355 353 354 352
355 358 361 363 363 364 365 364 363 361 361 360 361 359 360 359 359 360 361 360 360 359 359 358 359 359 359 358 357 355 356 353 352 353 353 358 359 357 356 356 355 355 352
354 357 359 360 360 361 362 363 365 363 362 359 360 363 363 362 363 357 359 359 358 359 358 358 358 359 359 354 354 356 353 352 353 353 355 359 357 358 358 361 357 356 358
356 356 359 359 349 354 360 357 364 361 363 365 364 366 366 366 360 357 358 356 357 360 355 356 356 355 355 353 353 351 351 353 352 353 356 358 357 358 358 362 361 357 357
355 357 357 358 345 348 355 357 355 361 366 362 360 364 366 362 358 357 356 355 360 365 361 359 361 358 357 358 354 354 352 352 352 352 357 358 358 359 359 359 360 359 357
357 357 358 357 358 354 355 357 354 355 356 357 360 362 361 360 363 359 356 355 356 358 359 358 359 361 357 357 357 356 353 352 353 353 353 360 359 359 359 359 359 359 358
357 357 358 356 353 351 351 355 356 360 363 361 356 358 362 357 359 356 356 355 360 359 357 356 357 358 357 355 355 356 356 353 353 353 351 354 361 359 361 360 359 360 358
358 359 357 352 349 352 352 353 357 354 351 351 355 360 361 361 360 359 354 354 355 361 361 358 360 361 357 353 355 355 355 356 354 356 356 355 356 359 360 361 360 360 361
358 355 354 347 353 354 354 354 352 353 351 352 354 357 354 353 354 355 349 351 355 358 359 361 363 353 352 351 352 351 352 354 355 358 358 359 356 353 359 360 360 359 361
355 356 353 351 351 351 353 354 356 357 359 361 358 353 349 348 350 348 349 349 358 359 354 357 357 356 351 350 350 351 352 352 352 353 356 358 361 358 356 361 360 360 359
349 352 354 351 351 352 355 356 358 356 353 353 355 359 357 352 351 352 352 347 348 355 354 361 357 352 350 348 347 348 351 352 352 352 354 359 361 357 359 360 369 357 359
347 350 351 350 351 355 354 351 350 345 351 351 352 355 356 356 355 348 352 349 347 347 348 346 350 352 347 350 351 346 349 355 355 360 361 357 351 355 357 359 371 361 356
346 349 350 351 357 357 354 354 352 354 351 355 352 355 355 354 354 350 349 348 349 350 353 354 353 347 347 357 345 340 336 346 349 354 353 352 354 359 358 359 361 362 361
346 347 349 351 358 359 356 352 353 353 351 349 351 350 351 348 350 354 349 346 348 346 354 356 356 352 347 353 345 340 333 334 344 347 348 350 350 351 353 356 357 358 360
347 347 350 350 357 358 359 350 350 347 346 348 351 349 349 351 351 346 348 353 358 363 357 354 358 357 359 351 347 348 346 347 341 337 344 347 347 347 353 352 352 355 356
348 348 351 351 355 358 358 355 348 350 354 350 351 352 355 355 349 346 348 351 353 358 357 357 354 351 349 343 342 350 350 350 347 342 338 338 340 342 346 347 353 351 355
349 350 349 352 355 357 356 358 355 351 351 350 349 350 351 356 353 353 349 349 347 350 352 352 348 348 348 347 351 351 347 343 342 342 342 340 340 333 335 339 344 350 353

GFSSE_sfc_thetae_069.txt.gz
Theta_e
353 357 366 364 365 365 365 366 366 365 363 361 360 361 361 361 360 360 361 359 358 356 358 358 358 359 360 359 358 356 354 357 359 360 359 358 358 357 355 353 356 349 351
356 357 365 365 365 365 365 366 366 366 363 362 361 361 362 361 361 361 360 360 359 359 359 360 359 359 358 358 357 358 356 357 358 358 355 357 355 355 351 351 356 349 353
355 359 358 366 364 364 365 366 364 365 362 361 362 361 361 361 360 359 360 360 360 359 359 360 360 359 356 357 357 359 358 358 357 354 357 355 356 354 350 352 358 353 356
355 359 356 365 365 364 364 364 365 363 362 362 361 361 361 361 361 362 362 360 360 358 359 359 359 359 356 356 358 357 358 356 357 357 353 345 349 350 356 352 355 357 357
355 356 362 365 364 363 364 364 364 364 363 362 361 361 360 360 361 360 360 360 359 360 360 359 358 357 357 357 358 358 357 357 358 358 348 352 350 352 354 355 354 355 354
352 359 364 366 363 363 363 363 363 363 363 362 361 361 361 361 361 360 360 359 359 358 360 359 357 357 358 359 358 357 358 358 357 351 350 350 355 354 350 352 356 356 354
358 363 363 367 366 364 363 362 364 363 362 362 362 361 361 360 360 360 359 360 359 360 359 359 356 358 359 359 358 359 357 355 356 347 348 348 356 356 355 352 355 354 353
352 359 363 365 365 363 363 363 363 364 363 363 360 359 360 360 359 359 359 358 359 361 360 359 357 360 360 359 356 356 356 356 352 347 348 352 356 356 353 349 355 353 350
355 359 361 362 364 363 363 363 363 362 362 362 361 360 359 359 358 358 358 358 358 359 360 358 358 359 358 357 357 356 357 358 356 353 346 352 357 355 357 352 349 352 355
355 358 360 365 363 364 360 363 363 362 361 362 360 360 360 360 361 360 359 359 359 358 360 359 360 359 359 359 357 356 357 359 355 351 348 352 358 355 357 354 352 355 351
356 359 359 360 357 357 364 362 362 361 359 360 359 358 358 358 359 360 361 360 360 358 358 359 359 360 358 358 357 356 356 351 351 351 351 358 360 355 355 355 355 354 352
354 356 356 360 354 353 356 364 363 360 358 357 358 360 358 360 363 360 359 360 360 360 359 359 360 360 360 352 354 356 352 352 353 350 356 361 361 357 358 359 356 356 355
357 359 360 361 354 355 357 363 364 366 361 369 361 362 366 366 359 357 364 356 355 360 357 357 357 355 353 353 353 353 348 352 351 353 357 362 361 358 358 360 360 358 356
356 358 357 362 357 355 354 353 362 364 363 366 363 365 369 366 363 364 354 362 364 358 360 360 356 356 358 358 358 353 350 352 353 352 359 362 361 359 359 359 362 360 359
355 358 359 360 359 357 357 357 355 357 356 358 359 365 362 358 359 357 360 358 357 363 358 357 361 358 361 358 356 358 352 351 351 353 356 364 362 362 360 360 360 360 360
357 358 359 358 360 358 355 358 356 357 365 354 360 359 363 360 360 356 356 352 356 358 358 356 358 363 356 357 355 358 357 355 352 352 351 359 362 360 362 362 363 361 360
358 359 359 359 356 355 357 355 355 354 360 359 361 363 361 361 365 364 354 353 356 360 361 360 363 359 356 357 355 357 354 355 354 356 353 354 357 361 361 362 362 362 363
359 359 359 354 357 356 356 356 355 354 354 353 353 354 359 360 361 361 354 352 355 358 356 355 357 362 355 353 354 353 354 358 356 356 357 359 358 354 358 362 362 361 362
359 358 356 354 356 357 358 355 359 359 356 352 353 360 360 359 356 358 352 351 356 355 355 357 356 357 354 352 353 353 354 352 355 351 354 357 361 358 358 359 360 359 361
355 357 357 355 356 354 354 358 356 357 357 358 358 360 359 358 355 351 351 352 352 350 351 357 356 355 351 350 347 347 356 353 352 352 353 353 358 359 353 353 357 358 360
352 354 358 354 357 356 354 352 349 346 352 352 355 358 358 359 354 353 353 360 355 351 355 357 358 355 348 351 352 345 347 350 349 351 355 356 358 358 358 357 371 357 359
351 353 355 355 356 359 356 354 351 352 353 354 357 358 358 357 357 357 354 350 353 351 353 351 349 348 348 353 348 351 336 342 347 352 361 356 356 360 355 358 361 361 362
351 351 353 355 359 360 359 353 354 353 353 350 353 354 353 355 356 356 351 350 351 349 345 349 353 354 352 359 356 347 336 335 337 354 353 351 351 351 356 356 356 359 361
351 353 353 354 359 360 360 354 353 349 349 354 351 352 352 353 352 354 355 353 348 348 351 346 356 358 357 351 354 350 348 345 333 331 346 349 351 350 354 354 352 355 358
352 352 351 354 356 360 360 357 351 351 352 349 348 353 354 354 352 349 346 350 348 353 358 357 357 357 358 354 353 345 345 342 341 338 333 343 344 343 344 347 354 356 356
353 353 353 354 356 360 359 357 356 353 351 349 352 349 352 351 353 351 346 348 348 349 353 351 355 354 354 353 348 343 342 347 345 343 342 343 339 334 336 340 344 352 354

GFSSE_sfc_thetae_072.txt.gz
Theta_e
350 357 368 369 369 369 368 368 366 365 362 361 361 361 360 360 359 361 360 359 358 359 359 359 359 360 360 359 357 355 359 360 360 358 360 358 356 358 358 354 357 347 355
352 356 367 368 369 369 367 369 367 364 363 362 363 361 361 360 360 359 360 359 359 359 361 359 359 360 359 358 357 356 356 359 359 360 358 357 357 352 357 358 356 348 351
350 355 360 367 368 368 367 369 368 366 362 362 363 362 361 361 359 358 359 360 360 359 360 360 359 358 359 358 359 357 358 359 360 357 359 350 349 351 355 355 353 358 356
353 349 355 366 367 367 367 368 367 365 362 362 364 362 361 360 360 359 360 359 358 359 360 360 360 358 357 358 359 358 357 357 357 356 354 349 342 355 352 359 358 356 352
355 352 357 366 366 365 367 368 367 366 365 363 362 361 360 360 362 361 360 358 360 359 360 361 360 357 357 358 358 358 357 357 357 357 354 354 343 355 354 354 355 356 356
353 357 362 366 364 364 365 366 366 366 365 363 361 360 361 360 361 361 358 359 360 360 361 359 357 358 359 358 359 357 357 356 356 355 352 355 347 355 358 357 358 356 352
350 359 358 366 365 364 363 364 364 365 364 363 361 360 360 361 361 359 359 360 359 359 360 358 357 359 360 360 359 358 358 357 353 350 348 353 351 357 354 357 358 355 356
357 358 357 365 366 365 363 362 362 362 362 363 362 360 359 360 361 360 360 360 359 359 360 359 359 360 360 358 357 356 357 356 355 350 350 350 355 357 354 356 355 352 351
358 361 360 359 362 363 362 363 363 362 362 362 361 360 360 360 359 360 360 359 359 359 360 360 358 361 360 358 356 356 358 358 353 354 351 350 359 360 354 351 356 356 354
357 359 358 361 365 361 359 363 363 362 362 362 360 360 361 359 359 359 361 362 359 359 360 359 358 359 359 358 358 357 358 358 351 351 352 349 359 359 360 353 351 352 355
356 349 341 348 356 361 362 363 362 360 361 361 360 360 360 358 359 361 360 362 359 359 360 359 360 361 360 359 358 358 357 350 350 352 350 356 359 360 359 357 354 356 353
353 348 336 348 352 356 355 362 362 358 357 357 358 360 357 358 359 360 361 360 360 359 359 360 362 361 359 354 355 357 352 349 350 353 353 359 360 360 358 360 358 357 354
354 355 354 355 353 351 351 353 358 364 360 363 363 363 361 362 359 357 358 357 359 360 356 358 358 356 355 353 349 351 349 348 350 351 356 361 361 361 359 361 360 358 356
356 357 358 357 356 356 356 354 359 355 359 361 362 363 363 361 361 359 356 359 357 357 358 355 354 354 354 355 351 350 351 349 348 349 357 362 362 362 361 361 363 361 358
357 359 360 361 359 357 358 361 360 357 360 358 358 363 362 362 359 357 357 358 359 361 357 357 360 354 355 359 357 354 354 354 353 351 356 363 363 362 363 362 362 361 361
357 360 361 360 359 361 358 358 359 359 358 359 361 361 363 360 362 360 360 353 358 356 357 358 356 357 355 358 358 358 353 354 355 355 355 359 361 361 363 364 364 364 362
358 362 359 358 359 358 358 359 358 361 361 362 357 357 361 360 363 362 361 357 355 358 363 354 357 360 356 357 356 354 355 353 353 352 353 356 358 362 361 361 363 363 363
360 361 361 358 358 358 358 358 357 354 355 358 358 358 362 362 362 362 354 353 358 356 361 360 355 357 358 355 352 355 354 354 354 354 355 353 356 354 359 361 360 359 360
363 363 361 358 358 358 359 359 362 363 360 360 357 360 360 359 361 361 357 359 358 358 360 358 359 358 353 351 351 348 350 355 352 351 352 353 353 357 355 360 359 354 356
362 361 359 357 360 361 358 360 358 360 360 363 361 361 356 359 360 357 356 357 356 351 355 352 353 355 354 355 350 347 353 348 354 351 353 351 357 356 356 356 347 349 354
357 360 359 358 358 355 355 354 354 351 353 356 358 359 356 353 356 355 353 356 354 349 346 354 354 348 351 355 343 346 348 348 351 350 350 355 351 355 350 357 353 353 351
354 357 359 358 359 358 358 358 360 360 357 360 363 359 359 355 351 352 353 351 355 353 354 352 351 349 351 349 346 345 338 343 347 349 353 352 352 353 353 356 355 355 355
353 356 357 358 358 360 361 358 359 358 358 355 356 357 358 356 354 350 350 353 353 351 347 349 350 349 344 345 351 343 335 331 342 349 345 348 349 350 354 353 354 356 356
353 355 358 358 359 362 364 356 355 353 350 354 355 356 356 355 355 352 350 351 352 350 347 345 344 343 344 341 348 347 348 345 334 330 339 338 347 348 349 350 351 352 352
354 353 355 358 360 364 364 363 357 356 354 354 354 355 359 356 354 352 351 352 350 350 348 348 347 348 346 346 344 345 345 345 342 335 329 334 340 340 341 342 346 350 351
354 354 353 356 358 364 362 361 361 358 358 355 352 352 352 354 352 352 350 349 347 346 342 345 347 345 346 348 348 341 338 337 336 335 334 337 336 334 335 337 340 347 348

GFSSE_sfc_thetae_075.txt.gz
Theta_e
352 362 369 371 370 369 368 366 364 363 361 361 361 361 360 361 362 361 360 359 360 360 360 360 360 361 360 356 356 360 360 358 359 358 357 359 358 357 357 356 354 352 354
356 362 369 370 369 369 369 369 366 363 361 361 361 361 360 361 361 360 360 359 360 361 360 359 360 359 358 357 354 357 360 360 361 360 358 357 355 355 361 356 351 353 358
356 362 364 368 369 369 370 369 366 364 361 361 361 362 361 361 361 359 361 360 361 360 360 360 360 359 358 358 357 358 359 359 361 358 356 347 347 357 353 354 356 353 357
355 357 362 367 369 368 370 369 368 364 361 362 362 361 361 360 360 360 360 361 360 360 361 360 359 358 358 359 358 359 359 358 358 359 351 344 345 357 359 357 356 354 354
350 355 362 369 368 366 367 369 367 366 364 363 362 361 360 360 360 360 360 360 359 360 361 360 358 356 360 358 358 358 358 358 356 356 354 338 347 350 357 358 356 354 355
349 356 366 368 366 366 366 366 367 365 366 364 362 361 360 361 361 361 360 360 359 360 360 359 356 358 359 359 358 357 356 356 355 353 342 348 348 357 356 357 357 354 356
352 356 362 367 368 367 366 364 365 365 365 363 362 361 360 360 362 361 361 361 359 361 361 357 356 359 358 358 358 356 357 356 352 349 346 344 350 360 360 359 357 353 355
353 356 358 365 367 365 364 365 364 364 363 362 361 360 360 359 359 360 361 361 359 360 360 359 360 360 360 359 359 357 355 354 354 349 349 345 354 359 358 358 354 354 356
353 355 356 359 360 363 363 363 363 362 362 363 361 362 361 361 361 360 361 361 360 359 360 358 360 362 361 357 357 357 356 356 351 349 348 348 359 360 358 358 354 352 352
345 340 353 356 354 355 356 365 364 362 362 361 359 360 361 360 360 360 361 362 359 360 360 360 358 360 359 358 357 357 357 357 351 349 347 348 359 357 354 357 356 357 355
334 334 340 353 354 356 356 360 365 362 362 362 359 360 359 352 353 357 359 360 360 360 360 359 359 360 360 359 359 359 358 349 347 347 346 358 359 361 356 354 354 353 356
328 333 338 340 352 353 357 355 354 355 354 353 354 353 352 353 353 357 359 362 361 360 361 361 363 361 359 352 352 358 351 348 345 349 346 359 360 363 358 357 356 357 354
332 334 334 344 347 348 349 352 353 353 351 351 352 353 351 353 352 351 352 353 353 359 353 358 358 356 353 350 349 350 349 346 344 349 353 359 362 362 360 360 358 356 356
337 333 334 349 347 346 346 347 351 351 351 351 353 353 350 351 349 349 350 351 352 352 350 351 350 351 350 350 349 347 346 345 350 350 353 360 361 362 361 361 361 358 357
347 345 348 349 348 349 349 347 351 349 351 352 350 352 352 350 348 349 349 351 350 351 351 350 350 349 349 350 352 352 349 348 350 349 351 362 361 361 361 361 362 361 360
352 352 351 351 350 350 347 347 347 349 350 351 350 352 353 351 351 350 348 349 349 354 350 351 348 348 349 350 349 350 349 349 349 349 352 356 362 360 360 363 363 363 362
353 355 353 352 352 351 350 348 346 349 350 349 348 349 352 351 350 350 349 347 351 350 350 349 350 350 348 349 347 348 350 349 349 348 352 351 358 362 361 361 362 362 363
353 352 352 354 351 347 347 348 350 349 350 350 349 349 348 351 351 348 347 345 349 350 351 347 348 347 344 346 345 347 347 349 350 349 350 351 353 352 360 361 361 362 362
354 352 350 350 349 348 348 350 350 349 347 347 348 348 349 351 352 349 346 348 352 348 348 347 345 346 344 342 344 345 347 349 347 350 348 349 350 351 350 356 360 360 358
354 351 349 349 348 349 348 349 348 350 350 351 350 349 350 350 351 351 346 346 346 342 342 344 343 345 345 344 348 346 344 344 345 348 345 347 352 352 351 350 349 351 356
352 349 345 348 348 349 347 345 345 344 347 348 349 351 349 348 350 349 345 344 344 341 339 341 343 342 341 342 337 337 340 345 340 344 343 345 346 351 351 348 346 346 352
350 349 346 349 346 344 346 347 347 346 346 346 350 350 350 350 348 349 347 345 348 344 342 342 342 339 341 342 334 333 330 331 339 343 344 344 344 349 349 347 351 351 348
348 350 348 349 348 347 350 349 345 344 345 344 344 347 349 350 349 348 349 346 347 347 343 342 340 339 335 338 340 333 326 322 329 338 336 335 342 346 347 346 348 349 349
347 351 349 350 348 348 352 344 342 339 337 342 343 347 347 349 347 347 347 347 345 344 341 341 343 340 338 334 337 342 338 335 325 323 332 332 342 342 340 340 344 347 346
349 349 350 349 348 350 351 346 343 341 341 342 344 344 345 344 346 347 344 345 346 346 344 344 342 340 339 336 336 338 339 338 335 328 323 328 338 336 336 337 338 343 346
348 349 350 348 348 352 352 347 346 341 340 341 340 340 343 344 344 344 343 341 344 345 343 342 343 342 342 341 341 339 336 332 331 331 329 330 331 332 333 335 335 342 344

GFSSE_sfc_thetae_078.txt.gz
Theta_e
355 362 369 369 367 366 365 363 361 361 361 361 360 360 362 361 361 360 361 360 360 360 359 360 361 360 358 358 360 358 358 358 359 359 360 358 358 358 356 356 355 352 358
359 363 369 368 367 366 365 363 362 361 360 361 360 360 362 362 361 360 360 362 360 361 360 360 360 358 355 356 360 360 358 360 359 359 358 358 356 357 353 354 358 350 357
359 363 364 368 368 366 366 364 362 361 360 361 361 360 361 361 360 360 360 361 360 359 360 360 358 357 355 355 360 360 360 359 360 357 355 347 349 358 351 352 358 358 356
360 360 362 367 368 368 367 365 363 361 360 361 361 360 359 359 359 360 361 360 361 360 360 360 358 358 358 357 359 359 358 359 358 355 345 346 349 355 357 357 354 358 358
357 359 361 369 369 366 366 366 365 364 361 361 361 360 360 360 360 360 359 359 359 361 360 359 357 356 359 359 359 358 357 358 358 351 344 342 345 356 357 354 352 357 357
355 359 367 369 367 367 366 365 364 363 362 362 362 360 361 361 361 360 360 360 360 360 360 357 355 358 358 357 359 358 358 356 356 352 341 350 342 357 357 356 358 357 358
353 359 363 368 368 368 367 366 364 364 363 362 361 360 361 362 362 360 360 360 360 360 358 356 357 357 358 358 358 357 356 354 351 339 343 348 349 360 359 358 354 354 353
355 359 361 366 366 366 365 365 363 363 362 362 361 359 359 361 361 360 361 359 360 361 357 356 358 357 357 356 357 356 355 355 352 345 343 345 358 363 360 357 354 353 356
355 356 358 360 361 365 364 364 364 364 363 362 361 360 359 360 360 360 361 361 359 360 358 358 360 359 360 358 356 356 354 354 348 347 345 345 359 361 360 357 354 356 357
351 355 356 355 355 355 356 364 363 363 362 362 360 360 360 361 361 361 361 362 360 359 360 357 360 361 361 357 355 354 355 356 348 347 345 347 357 359 358 355 354 352 355
340 341 349 353 352 353 355 359 364 363 363 361 359 359 359 351 353 356 358 360 360 360 360 361 358 360 359 358 357 357 357 349 347 345 344 355 357 358 356 358 358 358 354
332 330 335 350 352 353 356 355 355 354 353 353 353 353 351 350 350 356 357 359 360 360 360 360 360 359 358 352 351 356 350 349 346 346 344 357 360 360 355 356 355 355 359
331 329 335 341 350 350 353 352 351 351 350 350 352 351 349 351 350 353 351 354 352 358 353 358 356 355 352 350 348 348 349 348 344 346 351 358 360 362 357 355 357 355 353
327 331 333 339 345 344 346 349 352 350 349 347 349 350 348 347 347 347 348 350 350 350 349 351 351 352 351 351 348 346 347 345 343 346 349 358 359 362 359 358 356 357 355
330 332 332 344 343 342 343 344 349 349 349 349 348 351 349 347 347 347 347 348 349 349 348 347 348 349 349 348 348 349 347 345 347 348 348 360 359 359 360 360 359 357 357
337 333 336 347 345 345 346 344 346 347 348 348 348 348 351 348 348 347 347 346 347 348 348 345 345 346 348 348 348 349 350 350 351 350 350 353 360 360 360 364 364 361 360
345 344 346 346 347 345 344 344 344 346 347 348 349 349 351 350 347 348 346 346 347 348 349 347 347 346 345 346 347 346 348 348 347 349 349 350 355 361 360 361 363 361 363
350 349 349 352 348 347 345 345 344 346 347 347 348 347 350 350 348 347 346 344 346 347 347 344 344 346 344 343 343 344 346 347 347 348 348 349 350 354 357 360 359 359 361
351 350 349 349 346 344 344 345 346 346 346 346 347 346 345 347 350 347 343 344 346 344 345 345 341 341 340 341 343 343 343 345 347 347 348 346 350 350 348 356 358 357 360
351 350 348 348 345 344 344 345 345 345 344 345 345 346 346 347 348 347 345 345 343 343 342 343 341 342 340 340 344 343 339 341 343 344 346 347 349 352 350 348 349 352 357
350 348 346 345 344 345 341 341 340 341 343 344 346 348 347 347 347 348 344 344 343 339 339 340 340 339 339 339 335 334 336 340 340 340 342 343 344 348 347 348 347 347 348
347 346 345 346 345 345 344 343 344 343 343 345 346 347 348 347 347 345 346 344 343 340 337 337 340 337 337 338 332 331 327 330 335 341 339 344 342 344 347 347 345 348 347
344 343 345 346 345 345 344 344 342 341 341 342 343 344 347 349 348 346 346 345 344 343 340 339 339 337 335 335 339 332 325 322 326 334 331 337 341 341 342 345 348 348 348
346 346 345 346 344 343 344 344 339 335 332 338 340 342 346 348 347 346 346 345 344 345 340 341 342 339 336 331 335 338 334 330 324 323 332 329 339 339 339 340 342 345 346
349 348 346 347 345 344 346 345 339 335 338 339 340 341 342 342 344 345 344 344 344 344 342 341 340 337 337 335 334 333 334 334 332 329 325 326 333 332 333 335 336 342 345
348 349 347 346 345 344 348 343 340 339 336 337 338 338 340 340 341 343 342 342 344 344 343 342 341 340 339 339 338 336 336 332 331 330 328 328 329 332 332 334 335 342 342

GFSSE_sfc_thetae_081.txt.gz
Theta_e
352 361 368 366 364 364 363 361 361 361 360 360 363 362 362 361 360 360 360 360 360 359 359 359 359 358 359 360 359 359 357 358 357 358 359 356 357 357 357 357 358 353 357
355 362 368 367 365 364 363 361 361 361 360 360 361 361 361 361 360 361 362 360 360 359 359 361 358 357 358 359 357 357 358 359 360 357 356 358 358 355 355 354 356 354 358
358 362 364 367 367 364 363 361 361 360 360 360 360 362 361 360 360 361 361 360 361 359 360 358 357 355 357 359 358 358 357 359 360 358 356 348 349 353 354 357 353 356 357
359 360 360 367 368 367 364 362 361 360 361 361 359 361 360 360 360 360 361 361 360 359 360 358 356 355 355 358 357 359 359 357 356 355 347 348 351 352 353 357 357 355 354
358 358 359 368 369 366 364 363 361 360 361 361 360 359 358 359 359 360 360 360 360 360 360 358 357 358 357 358 358 358 358 357 355 350 341 345 345 354 356 355 357 357 357
357 359 364 368 365 366 365 363 361 360 361 361 361 360 360 360 360 359 358 359 360 359 359 356 356 359 358 358 358 357 357 356 353 346 341 349 348 357 354 352 357 357 353
355 360 363 368 368 366 364 364 362 360 362 361 361 360 361 361 361 359 359 359 360 359 358 355 356 359 357 358 358 357 357 356 348 343 343 345 344 359 354 355 357 358 356
356 360 362 367 368 366 364 364 362 361 363 361 360 360 361 361 361 359 361 359 359 359 357 356 357 358 357 357 357 356 355 355 345 341 344 346 353 360 358 357 354 354 352
358 359 359 359 361 366 365 364 362 361 362 361 360 360 359 360 361 360 360 359 360 359 355 356 358 356 358 358 357 355 354 356 344 342 343 345 357 361 358 356 353 356 356
355 356 354 354 356 356 358 364 363 362 362 362 361 360 359 360 359 361 360 363 360 360 356 357 360 358 359 357 355 355 354 356 346 345 341 344 357 360 358 356 355 356 356
347 352 352 352 351 352 354 359 364 363 361 361 360 360 359 352 352 356 358 359 360 359 360 357 359 361 359 356 354 355 354 347 345 345 343 351 358 359 358 355 353 353 358
333 342 347 350 351 350 355 353 355 354 355 352 353 352 352 348 349 354 356 359 359 360 360 360 357 359 357 350 350 353 350 348 348 343 343 355 359 359 358 359 357 356 353
333 337 337 346 350 351 352 351 352 350 350 350 350 350 349 349 349 352 351 352 351 357 354 356 356 352 350 349 348 348 347 347 345 344 348 356 358 359 356 357 357 357 358
329 328 332 340 347 349 351 350 351 348 348 347 348 349 346 346 346 346 348 348 349 350 349 350 350 351 350 350 348 345 346 346 343 342 346 359 358 359 359 355 354 355 354
328 328 332 336 345 345 345 347 349 350 348 347 347 348 347 345 344 345 346 347 348 348 347 346 347 349 348 348 347 348 347 345 345 347 345 360 358 358 362 358 356 357 357
329 329 331 335 342 341 341 343 346 348 349 348 346 347 349 347 345 345 345 345 346 347 347 346 345 346 346 347 347 347 348 348 346 348 347 350 359 359 360 362 359 359 357
329 332 331 337 342 341 341 341 343 345 347 347 347 347 349 347 345 345 344 344 345 346 347 346 344 345 344 345 344 346 346 347 347 348 348 348 351 360 359 360 360 359 360
335 334 335 343 344 341 342 342 343 344 345 346 348 348 348 349 347 345 345 344 345 345 345 344 343 341 342 342 342 344 344 345 346 346 347 347 347 352 358 360 358 358 359
342 340 343 346 344 343 343 342 342 342 344 345 346 347 347 348 349 346 345 345 344 345 345 344 341 341 338 339 341 342 342 343 345 348 345 347 347 349 349 354 358 357 359
347 347 346 347 345 343 342 342 342 342 342 343 345 345 345 344 347 346 343 343 342 340 341 340 339 340 339 339 343 342 339 339 341 341 344 348 348 348 348 347 349 352 358
349 347 346 345 342 341 339 339 337 339 340 340 343 344 345 344 345 346 344 344 342 339 340 340 339 339 338 338 334 333 334 338 339 339 340 341 343 346 347 347 346 346 347
347 346 345 345 342 342 341 339 340 340 341 342 343 345 346 345 345 345 344 343 342 339 337 338 338 336 335 336 331 328 325 329 334 338 338 341 340 343 346 346 345 346 345
346 345 344 344 343 342 341 341 340 340 339 339 340 342 344 346 345 344 344 343 343 341 338 336 336 337 333 334 334 330 322 322 324 332 330 336 339 340 341 343 346 347 348
346 347 345 344 343 343 342 341 337 335 334 336 339 340 343 345 346 345 344 344 343 343 341 339 339 336 333 331 333 336 332 329 323 323 329 329 338 336 336 337 339 342 346
347 344 345 344 343 342 342 342 339 333 332 335 337 338 337 341 344 344 342 342 342 341 341 341 340 337 337 334 332 332 331 332 329 324 321 325 335 334 331 332 334 341 345
346 343 344 343 342 341 342 342 340 336 334 334 335 336 337 338 339 342 341 340 341 341 342 342 341 338 337 335 334 333 332 331 331 327 325 326 327 331 329 330 332 341 341

GFSSE_sfc_thetae_087.txt.gz
Theta_e
352 358 364 366 364 362 361 361 364 365 363 365 365 365 362 362 361 361 362 361 361 360 359 360 360 360 360 360 361 360 360 359 359 359 359 359 359 358 357 354 354 350 354
355 359 365 365 364 362 362 361 363 364 364 365 364 364 362 362 362 362 362 360 360 360 360 360 359 360 360 359 360 360 360 359 359 360 360 360 359 357 358 357 353 351 353
355 359 361 363 363 364 365 362 362 364 362 363 365 364 363 363 361 361 361 361 360 361 360 359 359 359 359 358 358 359 358 358 359 357 355 351 352 355 358 357 358 358 357
357 357 358 363 364 365 365 364 363 363 362 363 363 363 363 362 361 361 361 360 360 360 358 356 358 359 357 357 360 359 359 357 358 358 351 347 347 353 355 358 359 356 355
358 357 360 366 366 363 364 364 364 363 363 362 361 361 362 362 361 361 361 360 361 359 357 355 358 359 358 359 357 360 359 358 357 354 354 351 346 357 354 357 356 353 348
357 358 365 367 365 364 363 364 364 363 362 363 361 361 361 361 361 361 361 361 360 359 356 356 357 359 357 359 358 358 356 356 354 354 355 354 349 355 358 358 354 355 355
358 358 362 368 366 365 364 363 364 364 361 359 360 359 360 362 361 361 361 361 361 360 357 359 358 358 358 358 358 358 357 353 347 348 352 353 356 357 357 358 357 357 357
356 357 362 367 367 363 363 362 362 362 362 360 361 361 361 360 361 360 361 361 360 359 356 359 360 358 357 356 355 356 357 358 351 351 349 354 355 356 353 357 356 355 351
359 359 363 364 364 365 362 362 362 362 362 361 362 362 361 361 360 361 360 361 360 358 356 359 359 358 356 355 356 356 355 355 355 354 352 349 355 356 354 355 357 357 354
359 361 363 365 366 362 362 362 364 365 363 362 361 362 363 362 360 362 362 363 361 356 357 359 359 359 358 356 355 354 353 355 351 353 351 347 356 358 358 357 354 354 352
356 359 362 363 365 364 364 362 364 363 363 362 361 361 361 359 361 362 359 361 361 356 357 358 358 359 358 357 355 354 354 356 351 352 352 353 355 358 360 357 355 354 357
351 356 360 360 362 363 362 364 363 361 361 360 360 362 359 361 363 360 359 360 360 360 356 360 361 360 358 351 352 354 354 354 355 355 354 353 355 358 361 360 358 355 355
351 353 356 357 362 361 360 360 361 360 360 361 364 363 362 360 361 359 358 357 360 359 357 357 358 357 354 352 351 351 352 353 353 355 356 356 356 355 359 362 359 355 354
348 351 355 356 359 360 360 358 359 359 360 359 361 364 360 358 360 359 356 358 361 359 359 357 354 357 357 355 350 351 352 351 352 353 354 354 357 358 357 362 361 357 356
345 348 354 357 358 359 360 359 361 360 359 359 360 362 360 357 357 357 356 355 358 358 361 359 358 357 355 354 353 353 351 352 353 355 354 354 359 360 360 361 361 359 358
345 345 352 354 357 359 359 361 359 358 358 359 358 359 361 358 357 354 356 357 356 358 359 358 359 357 355 355 355 355 354 353 356 357 355 356 357 361 360 360 360 360 359
345 344 348 352 355 356 356 357 356 358 358 358 357 360 359 359 359 357 355 361 362 361 360 360 359 358 355 356 355 353 353 354 356 358 359 358 358 360 360 360 360 360 360
345 342 346 349 352 355 355 356 355 355 357 356 357 356 358 359 359 358 355 356 363 362 362 357 355 353 353 355 355 354 353 358 358 358 358 358 358 357 360 360 359 358 359
347 343 341 348 350 353 355 355 357 358 357 358 360 356 355 355 357 357 357 358 362 362 358 360 358 355 352 356 354 355 357 355 356 355 357 358 359 358 357 359 359 359 360
347 344 342 342 348 352 353 355 354 354 355 356 356 356 359 357 351 352 356 356 360 355 359 355 355 358 357 357 354 351 358 354 355 355 355 356 358 359 360 361 360 358 359
346 345 343 343 348 348 348 348 347 345 348 351 353 357 357 358 358 357 353 358 354 355 355 353 354 353 354 356 353 352 354 354 353 353 354 354 356 358 360 360 361 360 359
347 346 345 345 349 348 347 348 347 348 349 350 352 355 357 356 358 355 354 355 354 349 347 344 346 345 352 358 350 348 337 341 347 350 352 353 354 355 355 358 359 360 359
349 349 348 349 350 351 352 350 350 352 352 349 351 351 355 357 357 357 356 355 355 353 350 352 349 342 339 348 353 349 339 331 340 347 349 349 353 353 354 357 358 358 359
351 353 352 352 353 353 354 351 350 346 345 349 350 351 353 356 356 357 356 352 354 353 352 352 348 343 341 336 344 348 347 344 333 332 345 347 349 351 354 354 354 354 355
352 353 354 354 354 355 353 353 350 349 349 351 352 354 356 358 357 355 356 355 355 353 353 352 350 347 340 339 339 349 348 348 344 337 331 337 344 348 350 351 351 351 354
353 353 354 354 354 355 353 353 351 350 350 348 351 350 351 351 353 355 354 353 353 352 350 349 348 344 339 339 342 345 347 343 342 340 335 337 338 342 348 349 347 347 348

GFSSE_sfc_thetae_090.txt.gz
Theta_e
350 358 366 367 363 363 363 363 363 363 367 365 365 362 362 361 360 360 360 361 361 360 359 359 360 360 359 359 360 360 361 360 359 360 359 359 358 357 359 358 356 349 357
353 359 367 367 365 362 363 365 363 364 365 364 364 361 361 362 361 362 360 360 361 360 361 360 360 361 361 361 360 360 360 359 359 359 360 360 359 356 353 351 357 351 355
353 358 364 366 366 363 362 364 364 364 362 364 363 361 361 362 363 363 361 361 360 361 361 361 361 360 360 360 360 360 360 359 359 360 361 355 353 359 358 358 355 356 356
354 357 359 364 365 365 363 365 365 364 362 364 363 362 362 363 361 361 362 360 361 360 359 360 360 360 359 358 359 359 357 357 358 356 350 346 345 357 358 360 359 358 358
355 356 360 365 365 364 365 364 365 365 364 363 362 362 362 362 361 360 360 360 360 358 357 359 361 358 357 359 359 360 359 359 359 356 346 346 349 352 356 359 357 353 355
355 355 362 366 366 365 364 364 364 365 365 363 362 361 362 362 361 360 360 361 360 357 356 358 360 360 360 358 360 359 357 357 357 352 352 345 351 357 357 354 352 351 353
355 356 360 366 366 365 364 364 364 363 363 362 362 361 361 362 361 361 361 361 360 357 357 357 361 359 360 359 358 356 355 353 350 351 353 352 356 359 358 357 356 357 356
355 356 359 365 366 365 363 362 362 360 361 362 360 361 361 361 361 362 362 361 361 358 359 359 360 358 358 358 357 357 356 354 349 348 350 353 358 354 356 357 357 355 356
357 357 360 362 363 363 363 363 363 362 361 360 360 362 362 361 361 361 361 361 360 358 358 360 359 358 357 356 356 355 355 358 358 351 347 351 357 354 352 353 355 356 352
359 359 361 364 366 365 359 365 365 365 364 362 362 363 362 361 361 360 361 361 361 357 358 361 359 358 357 356 356 355 354 357 353 350 351 351 359 357 355 357 354 356 352
356 359 362 363 364 364 365 363 364 363 363 362 362 361 361 360 358 361 360 361 359 357 358 359 359 359 358 356 355 354 354 352 349 351 353 353 357 357 358 359 355 353 354
353 356 359 362 364 364 360 365 362 360 362 361 360 362 360 363 364 360 359 361 360 356 357 359 359 359 357 353 353 354 352 351 351 352 355 355 355 356 359 359 358 355 354
353 355 358 360 363 363 360 367 360 359 360 369 363 367 367 366 364 358 362 361 359 359 353 358 359 354 351 351 351 352 354 353 352 353 356 356 355 355 357 360 360 357 355
352 354 358 359 361 360 358 358 358 357 358 358 360 365 367 359 365 367 356 360 364 355 354 354 350 352 352 354 353 353 354 352 351 354 358 355 357 357 357 359 362 359 356
351 354 357 359 360 360 360 357 358 357 357 358 358 364 360 357 362 358 356 357 358 363 364 354 354 353 355 354 353 352 352 353 353 353 355 359 358 359 359 358 362 360 359
350 354 357 358 361 360 360 362 359 359 359 357 356 359 363 357 358 356 356 355 355 357 357 357 353 354 353 352 350 350 352 352 353 354 354 357 361 361 361 360 361 362 360
351 352 356 358 359 360 360 361 359 357 357 356 356 360 362 362 361 359 354 356 362 365 363 359 362 357 352 351 352 352 352 353 351 355 356 357 358 361 363 362 362 362 362
354 352 355 355 357 359 360 359 356 355 355 354 355 357 360 361 361 360 355 359 368 362 364 365 355 353 352 350 350 350 350 352 353 357 358 358 356 355 361 362 360 360 361
355 355 352 357 356 358 359 357 357 359 356 354 355 355 359 359 360 358 355 356 367 361 360 364 362 355 352 358 355 354 352 350 352 352 356 357 359 358 355 361 361 359 361
355 356 352 356 358 359 357 358 355 355 363 364 366 356 359 358 358 358 359 361 364 357 361 361 358 362 362 358 354 351 358 354 351 352 354 355 357 358 359 361 362 360 361
355 355 355 353 359 357 354 352 352 352 354 354 358 360 360 360 361 359 355 355 358 354 354 360 361 356 353 359 354 349 352 353 354 354 355 355 356 357 360 360 361 359 358
354 356 355 353 355 357 355 355 353 353 351 352 353 358 361 360 362 360 359 357 352 352 355 352 357 353 351 361 345 344 340 343 348 352 352 351 354 355 356 359 361 362 362
353 355 355 354 355 357 358 356 355 354 353 351 351 352 357 360 361 361 360 359 358 359 359 355 353 350 344 349 353 349 339 334 338 349 352 351 353 353 354 356 358 362 364
353 356 358 357 357 358 359 358 357 349 346 349 351 352 354 358 360 360 361 359 358 353 357 357 361 354 352 347 349 350 352 348 341 336 345 349 353 354 356 356 356 360 360
355 356 357 359 359 361 361 363 355 353 349 351 351 356 357 359 360 359 360 359 359 357 361 360 359 357 355 348 341 347 345 349 349 339 333 341 348 349 350 353 354 356 357
356 356 358 360 362 363 361 361 359 356 353 349 351 350 351 352 363 359 357 357 358 357 356 355 358 356 354 350 346 342 343 344 342 343 340 340 339 346 348 351 354 353 353

GFSSE_sfc_thetae_093.txt.gz
Theta_e
351 358 367 366 365 363 363 363 364 365 364 362 361 361 361 361 361 360 361 361 360 358 360 360 360 358 358 358 359 360 361 360 360 361 360 360 361 361 360 359 361 350 359
354 359 367 366 366 364 364 364 364 365 365 362 362 362 362 361 360 359 361 360 360 360 359 361 361 361 361 361 360 361 360 359 359 360 360 359 356 356 354 354 360 358 359
355 359 363 366 366 365 365 364 364 366 365 362 362 361 361 361 362 360 361 360 360 361 360 360 361 361 361 361 361 359 359 360 361 360 361 352 356 357 358 354 355 355 359
354 358 360 366 366 365 365 365 364 364 363 363 362 362 362 362 361 360 361 360 360 361 361 360 360 361 360 361 359 361 359 357 357 359 357 346 350 358 359 359 358 358 356
354 356 362 367 367 363 363 365 365 365 363 363 361 362 363 362 360 360 360 361 359 359 359 361 360 359 359 359 360 358 357 359 358 356 347 346 346 358 359 359 357 358 357
353 354 363 367 366 363 363 364 365 365 365 364 362 362 361 361 361 360 360 360 360 357 357 359 358 357 359 360 359 361 358 359 358 350 347 350 350 356 358 355 353 355 356
352 360 361 366 367 366 364 363 364 363 363 363 362 362 362 362 361 361 360 361 359 357 357 360 360 360 358 360 359 356 355 354 355 350 347 353 358 360 358 354 356 355 356
351 357 358 365 366 366 363 362 362 364 363 362 362 361 362 362 360 361 361 361 359 357 357 360 360 360 359 358 356 355 353 355 350 348 349 357 357 360 358 359 358 359 356
351 356 358 360 362 363 362 363 362 362 363 363 361 362 362 361 361 361 362 361 360 358 360 360 359 359 359 358 357 357 356 359 359 348 348 355 359 355 354 357 358 354 352
356 354 358 360 360 361 360 364 364 362 360 360 360 361 361 362 360 361 361 360 360 357 359 361 359 358 358 356 356 357 357 359 356 347 349 353 359 354 354 355 357 357 354
352 358 361 364 361 362 362 359 364 364 362 361 361 362 362 354 359 360 360 361 361 357 359 360 360 358 357 356 356 357 356 352 350 347 350 360 361 358 358 358 355 354 353
351 352 358 362 362 363 358 364 360 360 360 360 360 361 368 360 360 358 359 361 358 357 360 360 360 359 358 352 353 356 352 353 347 347 352 358 359 358 359 359 357 355 354
353 352 355 360 365 361 361 360 360 362 358 362 365 368 366 361 361 357 359 358 361 356 353 357 357 355 351 351 351 349 351 349 349 348 355 358 358 356 357 361 359 357 355
351 352 356 359 363 364 361 358 357 356 357 357 361 367 365 359 361 367 361 355 360 356 352 354 350 351 350 350 352 350 351 349 346 351 359 361 358 357 358 358 361 359 358
351 353 355 360 364 366 366 357 359 360 358 355 361 366 362 361 365 359 361 361 357 354 355 354 354 353 355 355 351 351 350 354 350 351 356 363 360 360 359 359 360 360 359
351 353 358 357 362 362 363 371 363 360 358 357 358 359 365 359 361 360 357 355 355 359 355 358 355 353 353 352 351 351 351 352 352 354 351 359 363 362 362 361 362 363 362
351 354 355 358 360 362 364 364 362 358 356 354 355 362 363 365 366 364 355 359 355 360 365 365 364 357 351 350 351 351 349 351 350 352 352 355 359 362 363 364 363 363 364
351 357 357 355 358 361 362 362 359 356 355 356 353 357 362 361 362 362 358 353 358 363 361 357 356 353 353 351 353 349 351 352 354 353 353 358 355 355 363 364 363 362 363
356 360 360 359 357 359 361 360 360 364 358 354 353 352 364 360 360 359 356 358 365 361 360 360 356 354 351 351 351 353 356 350 352 349 351 356 359 355 357 362 362 362 362
355 358 361 360 364 366 360 360 356 354 354 356 357 355 366 358 359 360 355 363 364 362 362 359 358 356 357 361 351 349 356 353 355 354 353 355 357 361 362 361 363 359 362
354 361 362 362 367 360 355 353 352 348 354 354 355 362 362 362 361 361 355 358 364 356 358 359 360 357 354 360 358 350 355 355 354 351 352 354 355 356 360 362 361 358 358
354 361 361 363 368 363 357 358 354 355 351 356 358 360 361 359 363 360 359 356 357 354 356 356 356 354 353 360 352 351 348 343 348 352 353 351 355 356 356 359 360 366 363
355 360 362 363 368 365 363 360 360 359 357 350 352 355 359 359 362 363 362 363 364 358 351 360 354 353 346 358 356 351 343 334 343 346 354 351 356 350 353 360 362 363 363
351 358 365 365 366 367 370 360 361 350 347 348 351 352 355 360 359 361 364 362 363 366 359 355 362 358 353 346 359 352 353 350 344 341 346 350 353 355 361 355 355 361 362
352 355 361 365 366 366 367 364 359 357 350 350 350 362 362 364 361 358 361 361 360 359 357 361 359 356 358 356 355 353 351 347 354 341 342 341 348 351 351 355 352 358 362
354 355 356 365 366 368 367 368 365 362 359 349 352 350 351 352 355 360 359 361 359 359 359 357 357 356 356 357 357 353 348 343 342 344 339 341 340 347 348 350 357 355 358

GFSSE_sfc_thetae_096.txt.gz
Theta_e
351 358 366 367 366 366 365 365 365 364 362 361 361 361 361 361 361 362 362 362 361 361 360 359 358 358 359 359 360 361 361 361 361 361 363 362 362 362 361 359 360 354 355
353 358 366 367 367 367 366 365 365 365 362 361 362 362 361 362 361 361 362 361 360 360 363 361 359 359 359 360 362 361 360 361 360 362 360 359 360 356 360 364 361 357 357
353 358 360 366 367 366 367 366 365 365 361 362 362 362 362 361 361 360 361 361 361 360 360 362 362 362 362 361 361 359 359 360 362 364 364 349 350 359 355 357 360 359 357
354 356 357 366 367 367 367 366 367 365 361 361 361 361 361 362 361 361 361 361 361 361 360 360 362 362 362 361 361 360 360 360 359 362 356 350 350 360 358 360 356 358 359
354 353 358 367 368 366 366 366 367 366 363 361 361 361 362 361 361 361 361 361 361 361 360 361 361 360 362 359 360 360 357 357 356 357 357 347 352 359 360 359 359 358 360
352 354 363 367 366 365 364 366 366 366 365 364 363 363 363 362 363 360 361 360 360 359 360 360 359 358 359 361 358 360 360 359 359 355 351 352 353 360 359 358 358 357 355
352 359 361 367 367 366 366 366 366 365 365 364 362 362 362 362 361 361 361 360 358 356 361 360 357 359 361 360 361 359 357 356 353 351 352 348 355 360 357 356 354 355 353
358 357 360 366 367 366 364 365 365 364 363 364 362 362 362 362 361 361 361 361 358 356 360 361 360 360 361 359 356 355 356 354 354 350 353 353 360 362 358 357 359 358 358
355 357 360 360 363 363 364 363 365 364 363 364 364 363 362 361 361 360 361 361 360 361 359 360 360 361 359 358 357 358 359 360 355 353 353 353 361 361 360 358 356 359 355
357 356 357 360 361 361 360 365 364 364 364 363 362 362 361 362 361 361 361 361 360 360 360 360 359 361 361 358 358 358 360 360 353 353 349 350 359 359 358 357 358 355 353
355 356 357 359 361 361 360 362 365 362 361 362 360 360 361 359 358 358 361 362 360 357 360 361 359 361 361 358 358 361 359 352 350 350 349 358 359 359 357 359 360 358 355
351 353 356 358 359 360 355 361 361 359 359 359 360 360 361 363 360 357 359 361 361 357 360 361 363 361 358 352 353 359 354 351 352 349 349 361 360 361 361 360 359 356 354
354 355 358 359 361 359 359 359 357 359 359 360 361 360 363 359 363 357 358 358 357 356 355 358 359 356 353 352 349 350 349 349 348 350 353 360 362 362 361 362 362 358 356
353 355 358 361 361 362 363 359 358 356 359 357 361 358 359 356 355 360 356 357 360 354 351 354 353 353 352 351 347 348 353 351 345 353 355 360 360 361 361 361 362 361 358
351 355 357 361 360 360 361 360 359 357 359 357 359 359 358 356 355 356 357 359 357 355 352 352 353 350 350 354 354 353 350 352 354 353 354 362 360 360 362 361 362 362 361
353 357 359 361 363 362 359 362 358 360 361 362 358 359 362 358 357 352 352 356 354 358 353 349 354 350 355 351 350 353 353 353 354 356 355 360 363 362 362 364 363 363 363
353 356 358 360 364 361 361 360 360 358 357 360 356 358 360 362 358 356 355 354 353 359 365 361 362 359 351 354 355 352 352 352 351 355 356 357 359 364 363 363 364 363 363
353 357 358 358 360 361 360 361 360 360 358 353 355 359 361 359 359 362 355 356 353 360 359 359 360 357 354 352 351 352 349 350 350 353 355 355 356 356 360 362 361 363 363
355 357 358 358 358 360 362 362 361 365 361 358 358 357 363 360 360 358 357 355 362 359 359 357 355 357 355 354 353 354 354 352 354 351 351 352 356 356 356 361 362 361 364
356 359 359 360 359 361 361 363 358 357 360 354 359 358 360 360 361 360 358 358 358 357 357 359 354 357 353 351 350 347 350 352 353 353 352 351 354 358 357 359 359 359 363
355 357 358 358 362 360 357 354 355 350 353 351 356 361 358 359 360 360 355 358 359 356 354 357 354 354 351 354 350 349 351 356 356 355 355 350 354 356 354 362 358 357 358
354 355 359 358 360 360 358 355 355 356 354 355 361 362 360 357 360 359 358 359 360 357 356 357 356 352 352 352 346 343 338 345 350 350 351 352 353 353 352 356 360 358 358
352 356 356 361 360 360 360 358 356 357 362 354 355 356 358 359 360 360 360 356 359 358 350 354 351 352 347 349 352 340 334 334 341 350 349 349 350 352 352 352 356 359 361
352 359 359 361 362 360 361 356 355 350 347 353 355 356 357 360 360 358 357 358 359 358 355 351 357 351 349 345 350 348 346 346 337 335 348 348 347 347 357 358 357 359 358
353 356 360 359 364 361 360 358 355 352 354 353 356 359 356 358 360 358 357 355 355 358 354 352 354 354 353 349 347 345 347 346 346 340 335 337 347 349 349 354 353 356 361
353 356 358 360 361 363 362 363 358 355 354 351 350 353 353 356 357 359 358 357 357 357 353 354 354 353 352 352 348 347 344 343 340 341 337 339 340 343 351 348 351 356 358

GFSSE_sfc_thetae_099.txt.gz
Theta_e
351 358 367 367 366 365 363 364 363 363 361 361 362 364 364 365 364 365 365 362 361 361 359 359 358 359 360 361 362 362 362 362 363 363 362 362 361 360 362 359 353 348 355
354 359 367 368 368 366 366 366 364 364 362 362 362 363 363 364 363 363 362 361 361 361 358 358 358 359 360 361 361 360 361 361 364 362 362 360 359 362 360 362 357 354 360
354 358 363 367 368 367 366 366 365 363 362 363 363 362 362 362 362 362 362 362 360 361 360 360 360 360 361 361 361 359 359 360 363 360 357 349 352 359 362 361 359 356 358
355 356 360 366 367 368 367 367 366 363 362 363 362 362 362 362 361 361 362 362 361 360 360 361 362 362 362 360 359 360 360 360 360 362 350 350 351 358 357 361 360 358 357
352 354 359 368 368 365 365 368 367 365 363 362 361 362 362 362 362 362 362 361 361 361 360 360 360 362 361 361 360 359 357 359 357 358 354 347 350 358 360 358 357 359 357
351 354 365 369 366 364 364 366 367 364 365 364 363 362 362 361 361 362 362 361 361 361 361 361 360 360 358 358 358 357 358 358 358 354 347 356 353 359 358 360 360 358 358
350 357 362 368 368 366 365 365 366 365 364 362 363 364 362 363 362 361 361 360 359 359 360 360 358 359 360 358 358 358 357 354 351 346 349 353 356 361 356 359 358 354 354
353 356 359 366 367 365 364 364 363 362 362 362 362 362 362 362 361 361 362 361 357 358 360 361 358 360 360 360 358 355 354 353 352 350 347 352 358 360 356 354 356 356 354
355 355 357 358 360 364 364 363 362 362 363 363 363 364 362 362 362 361 361 361 358 357 361 360 360 360 360 357 355 357 356 358 353 351 352 354 361 362 358 361 359 357 357
353 354 356 356 355 355 358 367 365 365 362 363 363 363 362 362 362 362 362 362 359 357 360 360 361 359 361 360 358 358 358 359 351 350 350 355 362 363 360 357 357 358 354
351 353 355 355 355 354 355 360 364 364 363 362 361 362 361 355 355 358 359 361 360 360 359 361 359 361 361 359 359 359 359 352 349 349 344 360 362 363 360 359 359 355 354
345 349 352 353 353 354 357 355 355 355 354 354 353 352 354 353 352 356 359 362 361 357 360 361 361 360 358 351 351 359 352 352 351 348 344 360 359 360 360 361 361 358 355
346 349 351 352 352 352 352 355 355 353 354 353 354 354 354 353 352 355 353 355 353 356 353 357 358 354 351 349 346 347 351 349 347 346 349 359 360 364 361 361 359 356 354
347 348 351 351 352 351 352 352 351 352 353 353 354 355 353 349 349 351 352 352 349 346 347 352 352 352 350 348 347 345 346 345 348 347 353 362 362 364 363 362 360 358 356
347 349 351 352 352 352 353 351 350 350 353 350 353 353 354 350 347 350 349 352 351 348 345 349 347 348 347 347 346 347 345 345 350 350 351 363 363 363 364 362 362 359 358
348 350 353 353 354 354 352 352 351 351 352 350 352 352 353 351 350 346 350 349 351 349 346 347 345 346 345 345 346 344 343 344 348 349 351 356 362 362 363 363 364 363 360
348 351 353 353 353 353 350 354 352 352 353 351 353 353 355 352 351 347 349 348 349 350 350 351 347 350 347 348 343 346 343 343 345 347 351 354 357 362 363 362 364 364 365
350 349 353 357 354 353 351 351 352 353 352 353 352 353 352 354 353 350 350 348 350 350 351 348 348 346 345 346 341 344 342 343 342 343 347 352 353 356 360 363 363 363 363
350 350 351 355 355 353 353 353 351 353 350 349 351 352 352 352 352 352 352 350 349 350 349 349 347 346 344 345 346 347 344 342 343 345 343 344 350 353 352 359 362 361 364
350 351 351 352 354 353 353 353 351 350 351 349 349 351 354 351 351 349 349 350 352 348 348 348 347 348 344 342 346 345 344 348 348 347 345 346 345 352 351 353 356 357 363
350 350 350 349 352 353 351 351 348 346 347 347 351 350 355 353 353 350 349 349 349 348 347 349 345 345 345 345 340 339 341 345 348 347 348 347 346 348 351 351 354 353 355
346 350 350 349 351 352 352 351 348 346 346 348 349 353 354 353 353 352 348 347 347 345 346 347 347 344 345 345 339 336 329 334 341 346 346 347 345 348 348 349 354 352 353
345 347 350 352 352 353 353 350 347 348 345 346 347 348 351 351 351 351 352 349 349 348 347 346 348 345 341 343 345 337 329 327 332 339 344 345 345 345 346 346 352 355 353
345 350 350 351 354 353 352 349 346 346 344 345 344 346 350 349 351 352 352 350 350 349 346 347 347 345 343 338 342 346 341 337 330 328 338 342 344 345 348 349 348 352 357
347 349 351 352 353 354 353 350 347 343 345 344 346 346 349 351 352 352 350 348 346 350 349 347 345 346 345 340 338 338 339 338 338 334 330 333 339 343 346 346 348 351 352
349 349 351 352 352 352 351 350 348 345 343 342 343 346 348 350 352 352 352 349 348 349 347 347 346 346 343 344 343 341 338 336 334 334 333 333 332 338 342 346 345 348 353

GFSSE_sfc_thetae_102.txt.gz
Theta_e
349 359 367 366 364 364 364 362 361 362 362 365 366 368 366 366 366 366 365 365 364 362 361 359 359 359 358 360 361 361 360 361 360 359 361 360 359 359 356 355 355 352 356
352 359 367 367 365 364 365 364 362 363 363 362 364 365 366 367 365 362 363 362 361 361 360 359 360 360 360 361 360 361 361 364 362 361 361 359 360 358 354 352 355 351 354
354 359 362 366 367 366 366 365 363 363 362 361 363 362 363 365 364 362 361 362 360 359 359 359 360 360 361 361 360 360 361 361 362 361 359 350 352 359 359 356 359 359 355
356 358 360 366 367 366 366 365 364 362 362 362 363 361 361 363 362 362 362 361 362 361 361 361 362 362 361 360 359 359 361 360 359 358 351 349 353 360 359 357 356 358 359
355 358 360 368 368 366 366 366 365 365 363 363 362 363 361 362 362 362 363 362 360 362 362 362 362 362 361 359 361 360 360 359 361 354 347 347 349 355 360 359 357 355 355
353 357 365 368 367 365 365 365 364 364 365 365 362 363 363 362 362 362 362 362 362 360 361 361 362 361 361 361 360 358 358 358 357 353 347 354 352 360 358 357 359 356 352
352 357 362 368 368 367 367 367 365 365 365 365 364 363 362 362 363 362 362 362 362 362 361 361 360 360 358 358 358 359 357 355 348 347 352 352 352 360 361 359 357 357 354
352 358 360 366 367 366 366 365 363 363 363 362 364 363 363 363 362 361 361 359 359 361 361 359 359 358 360 358 359 357 355 353 352 345 351 353 358 359 359 358 354 354 353
354 357 359 360 361 364 365 365 365 363 363 363 363 365 364 362 362 362 362 360 357 361 359 357 360 360 359 359 355 354 355 356 351 347 350 351 359 360 355 356 357 353 358
353 354 356 357 355 356 358 365 365 364 362 363 363 363 363 362 361 361 362 362 356 361 361 361 359 361 359 356 355 356 356 357 351 349 350 352 359 359 360 359 358 357 356
350 352 354 353 352 353 355 359 364 363 363 363 362 363 361 354 356 358 360 360 357 358 361 361 360 359 358 357 358 357 356 351 349 349 349 357 362 362 360 359 360 356 354
346 350 352 351 352 353 358 355 355 356 355 353 354 354 354 353 352 356 358 361 359 359 360 361 359 360 358 351 350 356 351 353 352 347 344 359 363 364 360 360 358 354 353
347 350 351 352 351 352 353 352 352 351 353 352 350 349 351 351 353 354 351 354 352 357 353 357 356 353 351 349 347 346 350 349 348 346 346 360 362 364 358 359 360 357 356
346 348 350 351 351 351 352 353 352 351 351 350 351 349 350 349 348 350 350 350 349 346 349 351 351 351 349 349 347 345 345 346 345 344 347 361 361 361 360 359 360 357 355
344 347 349 350 349 349 350 352 351 350 351 351 351 352 352 348 346 349 350 350 348 344 344 348 348 349 347 347 346 346 343 341 346 347 349 361 361 362 362 361 359 358 356
345 346 348 349 349 349 349 348 349 350 350 349 350 351 353 349 345 348 348 350 348 345 342 347 345 345 344 344 343 345 343 343 350 348 347 355 361 362 363 362 362 360 358
345 347 347 349 349 348 350 348 347 348 349 348 349 350 351 349 348 346 347 347 349 348 343 343 345 345 343 343 342 342 342 342 345 348 348 350 354 361 360 362 361 363 362
347 347 348 351 350 350 350 350 349 350 349 349 350 350 351 350 349 344 345 347 348 347 347 345 343 342 343 342 341 342 343 341 340 344 348 350 352 354 359 361 361 361 362
348 348 349 350 350 350 350 350 350 349 350 349 351 351 350 351 351 347 346 347 347 346 347 346 345 343 342 341 342 343 341 339 340 342 342 348 350 352 352 357 360 359 361
348 350 350 351 350 350 350 348 348 349 348 349 349 350 350 351 351 349 348 348 347 345 345 345 344 345 343 342 344 343 343 343 342 340 341 342 345 350 350 350 352 354 362
347 349 350 350 350 350 348 347 345 346 348 346 348 349 351 349 349 348 347 347 347 346 346 346 344 342 342 342 338 337 338 342 343 345 344 343 344 344 348 350 350 352 353
346 347 350 351 351 349 348 349 347 346 345 347 347 348 350 350 348 347 345 344 345 345 343 344 341 340 341 342 337 332 328 332 336 343 345 345 345 345 346 349 349 351 351
345 346 348 350 351 350 349 348 344 342 342 342 342 346 349 351 351 349 347 345 345 344 344 344 344 342 339 340 340 334 327 325 331 335 338 342 343 342 345 345 349 351 351
345 348 348 349 350 350 350 347 347 343 341 344 343 343 347 350 350 351 350 348 347 345 342 344 346 343 340 336 338 342 337 336 330 326 334 338 341 343 342 346 346 347 350
346 347 348 348 349 349 349 347 347 344 343 340 341 340 346 347 348 350 349 348 347 348 347 344 343 342 343 337 336 336 337 335 334 331 328 333 339 341 343 344 342 341 344
343 347 349 347 348 350 349 348 345 344 342 339 341 341 344 346 346 348 349 348 346 347 347 346 345 344 343 342 340 339 337 335 334 331 332 332 332 336 341 342 343 345 347

GFSSE_sfc_thetae_105.txt.gz
Theta_e
347 356 365 364 365 364 362 362 364 366 366 365 366 366 366 366 365 365 364 364 363 362 359 359 360 360 361 362 361 358 359 357 359 361 361 361 360 357 357 359 358 353 357
350 359 366 366 365 363 362 363 362 364 365 367 366 366 367 366 366 365 365 364 361 360 360 359 359 358 360 361 361 358 358 358 361 359 359 358 356 355 354 354 354 351 354
353 359 361 366 366 363 362 362 363 364 363 363 366 366 365 365 364 363 362 361 360 360 359 359 359 359 360 361 361 359 359 361 360 358 358 350 353 353 355 357 355 353 352
354 358 359 365 366 366 365 364 364 363 362 363 364 364 366 363 363 363 361 360 360 360 359 359 359 360 360 360 359 360 359 360 359 358 349 351 352 358 355 358 358 355 357
354 356 358 367 367 365 365 366 365 365 364 363 361 362 362 364 363 362 362 362 360 359 360 361 362 361 360 359 359 360 359 359 358 354 347 346 350 357 356 355 356 358 358
354 356 363 368 366 365 364 364 365 365 365 365 362 361 363 362 362 363 362 361 362 362 362 362 362 361 358 361 359 360 359 359 358 348 346 352 348 360 359 357 354 353 356
353 356 361 367 367 366 365 364 364 365 365 364 364 363 363 363 363 363 361 362 360 361 362 361 361 361 360 360 358 358 359 357 348 347 348 351 350 359 357 357 357 351 351
352 357 359 365 367 366 364 363 363 363 362 362 364 363 363 362 364 362 363 363 362 361 361 362 361 358 358 358 357 358 357 355 349 348 351 350 355 362 359 358 357 355 353
354 357 358 358 361 364 364 363 362 362 363 364 364 364 363 363 362 361 362 360 362 362 362 359 358 359 358 359 358 356 355 358 348 345 352 351 360 361 360 358 354 354 352
354 356 356 357 356 357 358 366 364 364 363 363 363 363 363 362 362 362 362 360 360 361 358 358 361 360 360 359 355 355 357 359 349 345 349 350 359 358 356 355 353 354 358
350 353 356 355 353 354 356 360 365 363 363 362 361 362 362 354 355 357 359 358 359 362 361 361 359 361 360 356 356 358 357 350 347 348 348 356 359 357 356 357 358 355 356
345 350 354 353 352 352 356 354 355 354 354 355 356 355 353 352 353 356 359 359 356 361 361 362 361 358 356 350 350 355 350 350 349 347 347 359 360 358 360 360 359 357 355
345 348 351 350 352 352 353 351 354 352 351 350 352 352 351 351 353 354 352 354 349 355 353 357 355 352 351 348 347 345 346 349 348 347 347 360 361 362 361 358 358 356 354
344 346 349 350 350 351 353 352 352 352 351 349 348 349 350 348 348 349 349 350 349 348 350 352 350 350 348 348 347 346 346 346 345 344 344 359 361 363 363 360 358 357 355
343 345 347 349 349 350 350 351 351 350 350 350 348 348 350 347 346 348 347 348 347 343 346 348 348 348 347 347 347 346 344 342 341 343 343 359 361 361 363 359 358 359 357
344 344 347 348 348 349 349 350 349 349 349 348 348 349 349 348 344 348 347 348 346 343 342 346 345 345 345 345 345 345 344 343 345 349 347 355 361 359 360 362 361 359 358
344 345 346 347 348 347 348 348 348 349 349 348 348 348 350 348 344 346 347 347 347 344 341 340 344 343 342 343 342 342 343 341 343 346 345 351 353 360 360 362 363 362 361
344 343 346 348 346 346 347 346 346 347 348 347 348 348 350 349 346 345 345 346 347 345 342 339 339 340 341 340 339 340 341 340 340 345 345 346 349 350 357 361 361 360 362
344 344 344 345 345 345 347 347 345 346 346 347 347 348 349 350 349 344 344 344 346 345 345 343 340 339 338 339 340 340 340 339 339 341 342 346 347 350 350 355 360 360 361
345 345 345 345 345 345 347 348 346 347 347 346 347 348 348 349 349 346 344 343 345 344 343 343 342 342 341 340 342 343 341 341 341 338 339 341 346 348 349 349 349 354 361
345 345 345 344 345 345 345 345 345 343 346 345 347 349 348 349 349 347 345 344 345 344 343 344 342 340 340 339 336 336 337 340 341 342 343 340 340 343 347 348 347 348 350
344 345 346 346 346 346 346 346 346 346 346 347 347 347 349 349 348 348 346 344 345 345 342 343 342 338 339 340 334 330 328 331 334 339 341 344 343 343 343 346 347 348 349
343 345 346 347 347 347 347 347 342 342 342 342 343 345 347 349 347 348 346 345 344 345 342 342 341 339 334 338 338 333 325 324 327 334 336 340 343 343 344 344 346 348 349
342 345 347 348 348 348 348 346 343 341 340 344 344 346 346 348 348 347 346 345 344 344 342 343 344 341 339 335 335 339 334 332 326 324 333 336 339 340 341 342 345 347 349
344 345 346 349 350 348 346 346 345 341 342 343 339 342 345 347 348 349 347 345 344 344 343 342 342 342 341 336 335 334 336 334 332 329 327 333 336 339 341 342 342 342 344
340 346 346 345 346 349 347 345 344 343 341 338 340 340 342 344 346 347 348 347 346 345 344 343 343 343 342 341 337 334 334 332 332 329 330 330 332 336 337 341 342 342 343

GFSSE_sfc_thetae_108.txt.gz
Theta_e
345 356 364 365 365 363 364 366 365 367 366 365 365 364 364 364 364 362 363 364 362 362 362 361 361 361 362 361 360 360 360 361 361 361 361 361 358 359 359 359 358 354 355
349 358 365 366 365 364 364 366 367 365 367 367 365 366 366 365 365 364 364 364 361 360 361 361 361 361 362 360 358 360 360 360 361 361 359 357 356 356 358 357 356 353 355
351 357 361 365 365 363 364 366 366 366 364 364 367 366 365 365 365 365 365 363 360 360 360 359 360 360 361 360 358 359 360 362 363 359 358 353 349 352 352 354 353 352 353
354 357 359 365 365 364 365 365 366 365 364 365 365 366 366 365 365 364 362 362 361 361 359 359 359 360 360 360 359 359 361 360 359 359 353 355 350 355 357 355 352 354 357
354 357 358 367 366 362 363 365 366 365 365 366 365 365 365 365 365 363 361 361 361 360 359 360 359 360 360 360 360 359 361 359 359 353 351 353 356 354 358 358 356 357 357
354 356 363 368 367 364 363 365 365 366 365 366 366 363 363 364 366 365 362 360 360 360 360 361 360 360 359 359 359 358 359 359 356 350 350 357 355 358 355 357 358 357 356
353 355 361 367 367 366 365 365 366 365 365 364 363 365 364 364 364 365 363 363 364 362 364 361 360 359 360 359 359 359 361 358 352 350 350 355 353 362 358 355 353 354 356
352 355 359 365 367 366 364 363 364 363 363 364 364 364 364 363 363 365 365 362 362 363 364 363 361 359 359 358 357 358 359 357 354 350 352 354 354 360 357 358 354 350 352
352 356 358 358 361 364 365 364 364 364 364 365 366 366 364 363 362 363 365 364 361 361 362 361 360 359 359 358 358 358 356 355 349 352 353 353 357 359 359 357 357 354 353
353 355 356 357 357 358 359 366 365 365 363 364 364 364 363 363 362 362 363 362 362 362 362 360 359 359 360 358 358 355 357 359 350 352 354 354 357 360 360 358 354 354 353
352 353 355 355 354 355 356 360 364 363 364 363 363 363 362 357 357 358 358 360 361 362 358 360 359 360 360 358 355 355 357 351 350 349 352 356 358 357 356 355 354 353 358
345 350 354 354 353 353 357 357 357 356 357 357 357 358 356 355 356 357 359 357 360 362 360 360 361 360 358 351 353 358 355 352 351 349 351 358 358 358 356 359 359 355 356
345 347 349 353 352 353 354 352 354 352 353 354 354 354 354 353 357 358 356 354 352 359 356 358 357 354 352 351 351 351 351 351 352 351 351 358 359 357 359 362 359 358 356
343 346 348 351 352 353 353 352 353 352 351 350 353 353 352 351 352 352 353 354 350 352 353 355 353 353 352 352 350 349 348 348 349 350 349 356 361 360 360 362 358 358 357
342 345 347 350 351 352 352 353 352 352 351 350 350 351 352 350 349 350 350 352 351 349 352 353 352 351 351 350 350 350 348 348 347 347 347 355 362 361 363 362 360 358 358
342 344 348 348 350 351 351 352 351 352 352 350 349 350 351 350 349 350 349 350 350 348 348 351 350 350 349 349 348 349 349 349 348 350 348 353 362 361 363 364 361 359 359
342 344 346 347 349 349 349 351 351 351 351 350 350 349 351 350 348 350 349 349 350 348 346 347 349 349 348 347 347 347 347 347 347 351 349 354 360 361 360 361 362 363 362
343 343 346 348 347 347 348 350 349 349 350 350 350 350 351 350 348 348 349 349 351 349 346 343 345 345 345 345 345 345 346 346 347 348 350 350 354 353 359 360 361 362 361
345 344 344 346 345 346 347 348 348 347 348 348 349 349 350 351 349 348 348 349 350 349 347 344 342 344 343 344 344 345 346 346 346 345 348 349 350 353 352 355 361 360 362
345 344 345 345 345 345 346 346 345 345 346 347 347 348 350 351 350 347 348 347 349 348 348 346 344 344 344 342 342 344 346 346 346 344 345 345 350 351 353 354 354 356 359
344 343 344 343 344 344 343 343 342 341 344 345 347 349 349 350 350 348 347 346 347 346 347 348 347 345 344 345 343 343 344 346 346 347 347 345 345 348 351 353 353 353 353
343 343 343 343 343 343 344 345 344 344 345 346 347 348 349 350 350 349 347 345 346 346 345 346 346 344 343 342 339 338 336 339 341 344 346 347 348 349 346 350 353 354 354
343 343 343 344 344 344 344 345 344 345 344 345 345 346 348 350 350 350 349 347 346 347 344 345 345 344 342 341 342 339 330 332 334 339 342 344 347 348 349 350 350 353 354
343 345 345 345 345 346 346 344 343 341 341 344 345 347 347 350 349 350 349 348 347 346 346 346 347 346 343 339 342 343 340 338 334 333 340 343 346 346 349 349 352 352 354
344 345 346 346 347 347 347 346 344 342 343 344 345 345 346 348 350 349 349 347 346 346 347 346 345 344 344 343 341 341 342 340 338 336 333 340 344 346 349 347 351 352 352
344 345 347 347 347 348 348 346 345 343 342 340 341 342 344 346 348 349 349 348 346 346 346 346 347 346 344 345 342 340 342 338 338 337 334 336 337 342 346 348 349 351 351

GFSSE_sfc_thetae_114.txt.gz
Theta_e
353 357 366 366 364 369 368 367 367 366 364 364 364 364 364 365 364 366 364 364 363 362 361 360 361 362 362 363 363 363 362 362 363 359 359 359 359 359 358 356 362 357 358
355 359 365 368 368 369 369 368 367 366 364 364 364 364 364 366 366 365 365 365 365 363 361 361 362 362 362 362 363 362 362 364 362 359 362 362 362 360 359 357 362 355 358
354 359 361 368 369 369 369 368 368 366 364 364 365 363 363 364 365 366 366 365 364 363 362 362 362 361 360 361 362 362 363 363 362 359 360 352 357 358 358 356 358 358 356
355 359 358 366 368 369 368 368 368 367 364 365 365 364 365 364 365 365 363 364 363 363 362 362 362 361 359 360 361 362 361 359 358 356 346 343 346 355 355 354 358 358 359
355 358 361 368 368 369 368 368 368 368 367 367 365 365 364 364 365 362 362 363 363 362 362 361 362 361 360 360 362 361 362 361 359 358 351 355 355 355 353 358 360 357 358
356 356 364 368 369 368 368 368 368 368 368 368 367 366 364 364 364 365 362 362 362 361 360 360 360 361 360 360 361 361 360 359 358 354 355 352 357 359 356 358 360 358 354
355 356 362 367 368 367 368 369 368 368 368 368 367 365 366 365 366 366 364 363 361 360 361 360 361 360 360 360 360 359 359 355 352 352 353 354 354 360 360 360 359 356 355
353 357 361 365 366 367 367 366 367 366 366 366 366 366 366 366 366 365 364 362 362 362 362 362 361 359 360 359 359 359 357 357 352 350 351 355 358 358 355 356 356 358 358
353 356 359 360 362 364 366 366 367 367 366 366 366 367 366 364 362 361 363 363 363 362 361 361 360 359 360 360 360 359 357 357 357 352 349 350 357 359 359 355 351 353 355
353 355 358 359 359 359 362 367 367 367 365 364 364 364 364 363 363 363 362 362 362 363 361 362 360 361 360 359 358 358 357 359 353 352 352 355 358 358 358 360 356 353 353
352 355 358 359 360 360 361 362 366 364 363 362 363 364 364 360 362 361 362 361 361 361 361 361 361 361 359 359 358 355 358 356 351 352 351 356 357 358 362 358 356 355 352
350 354 355 359 360 360 358 364 362 361 363 363 363 364 367 362 359 360 360 361 361 361 360 360 361 360 359 356 355 355 355 354 356 354 356 358 356 357 358 357 355 353 353
351 353 356 357 361 360 358 360 360 360 362 363 364 367 363 364 366 361 359 358 361 360 358 357 358 355 352 351 350 352 354 356 355 357 357 360 358 358 357 357 357 356 353
350 353 356 359 361 361 359 359 358 355 357 359 360 367 368 363 362 363 358 352 354 361 358 351 350 354 351 354 352 353 354 353 354 356 358 360 361 360 358 358 358 359 358
351 354 357 359 364 363 363 359 358 355 355 359 362 364 362 357 359 359 361 357 350 359 361 359 353 355 353 353 353 354 354 352 354 356 356 362 361 362 360 359 360 362 360
353 354 357 358 363 364 363 364 358 357 356 356 357 361 364 359 360 358 360 355 354 351 358 359 357 356 352 349 351 352 355 354 355 357 356 361 362 363 362 361 363 363 361
355 357 356 357 358 361 363 361 358 356 355 354 355 360 361 361 361 360 356 353 357 353 355 359 359 354 349 348 349 350 354 355 354 356 357 358 359 362 364 363 364 365 365
357 357 358 356 356 359 361 359 356 356 355 353 353 356 363 362 361 359 355 352 353 358 351 354 354 351 348 347 347 349 351 353 354 357 357 357 357 357 362 364 363 363 364
357 359 357 357 355 358 360 358 358 360 356 353 353 354 361 360 360 358 353 353 357 352 353 349 349 350 346 346 346 349 350 350 352 352 355 357 359 358 356 362 361 362 362
357 359 359 357 357 358 357 357 355 353 355 355 354 354 358 359 359 357 355 356 357 351 350 349 350 349 347 347 346 346 348 349 350 352 354 355 356 357 358 359 360 360 360
357 357 358 357 359 357 355 352 351 348 351 352 354 358 359 358 358 359 354 362 363 355 354 355 352 351 346 347 345 344 346 349 350 351 354 353 354 355 357 357 357 356 356
355 357 358 358 359 358 356 357 354 353 351 351 355 358 360 360 359 356 356 355 359 359 360 359 356 347 346 345 341 339 334 339 344 347 350 350 351 352 353 355 357 360 360
352 357 358 360 361 360 362 356 354 354 353 350 351 352 357 359 359 359 357 356 359 359 362 360 360 355 344 347 352 338 333 331 338 346 350 351 353 352 354 356 358 360 363
348 356 359 361 361 360 364 358 360 350 348 349 351 351 353 357 357 358 360 360 366 364 365 359 358 359 362 355 361 354 353 349 338 336 347 350 355 356 358 356 355 358 361
351 354 355 358 358 361 361 362 357 356 352 353 351 358 358 360 357 356 360 360 361 363 362 363 363 362 361 359 357 360 355 349 358 345 337 342 348 349 352 355 355 354 357
353 352 352 357 359 360 360 361 362 362 359 353 354 351 350 351 354 358 357 361 363 362 364 363 363 360 358 358 363 358 346 349 350 346 347 345 343 346 349 352 352 351 352

GFSSE_sfc_thetae_117.txt.gz
Theta_e
349 354 364 365 365 367 366 366 364 364 364 365 365 364 364 363 364 366 364 364 363 364 362 363 364 364 364 364 364 363 362 363 362 362 359 357 358 358 360 359 363 355 358
354 357 366 367 369 369 368 367 365 364 363 363 365 365 364 365 364 364 364 363 363 363 361 362 363 364 364 363 363 362 361 362 359 358 362 363 362 360 360 362 363 358 359
355 358 362 368 370 370 369 368 366 366 364 364 364 365 364 364 365 365 366 365 365 363 362 362 361 362 363 363 363 362 363 363 362 364 366 352 357 359 360 360 360 358 357
355 357 360 368 369 370 369 368 367 366 364 364 364 365 365 365 366 365 364 364 366 362 362 363 361 360 362 362 362 362 361 359 358 358 357 346 347 356 355 356 356 355 355
355 357 364 369 370 370 369 368 368 367 366 365 364 364 364 365 366 365 364 363 363 363 361 362 361 361 361 362 362 361 361 359 358 358 351 348 347 352 358 360 360 360 361
354 356 366 369 370 369 369 369 368 367 367 366 365 365 364 365 365 363 363 363 362 362 361 362 361 360 361 362 362 361 360 359 360 353 352 358 350 355 359 360 358 355 359
354 359 363 368 369 369 369 369 368 368 368 367 366 364 364 364 364 363 362 363 362 361 360 360 361 361 360 359 362 359 357 358 358 351 351 354 360 360 360 361 359 354 354
354 357 359 367 368 368 368 368 367 366 365 365 365 364 364 366 364 363 363 362 361 360 360 360 360 359 360 359 360 359 355 357 355 350 350 354 359 360 360 359 357 358 358
355 355 357 360 365 365 367 367 366 366 365 366 366 366 365 364 363 363 364 361 361 361 361 360 360 359 360 358 358 359 359 361 359 348 349 356 361 357 355 353 354 357 355
355 356 356 357 360 361 363 366 367 367 364 364 363 363 363 362 362 361 363 363 361 361 360 360 361 360 360 360 359 358 360 362 355 348 351 352 361 358 359 355 352 352 353
352 356 357 356 357 359 359 361 366 364 364 363 363 363 363 360 360 362 362 362 360 360 360 360 361 361 360 359 358 359 359 356 350 347 352 359 360 360 362 359 356 354 353
348 354 356 357 355 356 354 365 360 359 359 362 362 363 360 360 359 360 360 361 359 359 360 361 361 361 359 355 356 358 354 354 349 348 352 359 358 359 362 359 357 354 352
350 352 356 357 362 355 357 359 360 358 363 364 363 368 361 365 363 363 362 357 362 360 355 358 358 354 351 353 349 348 351 350 351 352 356 359 360 358 357 358 357 355 352
350 352 354 358 366 359 360 359 357 354 358 359 359 366 371 361 360 361 357 359 363 357 356 357 351 350 348 353 349 349 352 350 350 357 359 362 361 360 359 358 358 358 358
351 353 355 360 369 368 370 360 359 359 355 359 365 364 365 362 359 359 361 357 353 359 358 360 356 354 356 351 353 355 350 350 352 350 359 365 363 363 361 360 359 360 360
352 353 355 358 367 366 365 372 365 358 356 356 359 360 364 359 364 357 361 356 352 361 356 359 359 355 357 348 352 351 353 352 351 355 356 360 364 363 362 362 361 361 362
354 356 356 357 361 366 368 365 363 356 353 350 358 365 366 362 366 366 359 357 355 357 361 359 363 358 356 349 351 349 352 353 352 358 358 360 361 364 364 364 364 364 365
355 357 359 357 359 363 366 363 359 355 353 352 351 358 366 364 361 364 358 356 356 358 351 354 355 351 352 346 349 346 350 353 354 355 356 356 356 358 362 365 364 364 366
358 360 360 363 359 361 367 363 362 364 356 351 352 352 366 360 360 359 353 353 364 354 351 348 349 352 349 346 345 346 350 349 351 350 354 357 359 355 356 362 363 363 363
359 361 363 363 366 364 362 366 356 354 354 354 351 351 367 360 361 360 354 365 357 349 349 348 353 350 349 346 344 345 350 349 348 348 350 351 356 357 359 360 363 360 362
358 361 361 360 367 360 357 354 352 349 352 352 353 363 365 360 362 363 352 359 358 355 353 361 353 354 345 349 344 343 347 348 348 347 348 349 355 357 358 356 358 355 356
357 363 363 361 367 360 357 358 354 354 350 352 353 361 361 360 363 362 361 357 361 357 359 362 362 345 346 347 340 339 335 339 343 346 347 348 350 352 352 357 361 365 361
352 360 359 364 366 364 363 360 360 359 357 352 352 354 357 361 363 365 365 360 364 364 354 361 354 350 344 348 350 339 332 329 338 346 351 347 355 348 352 354 358 364 370
349 356 361 359 364 364 367 359 360 351 349 351 352 354 357 363 364 365 365 364 364 357 360 357 360 357 360 354 357 346 351 349 339 336 345 350 354 355 364 357 355 359 367
352 357 360 362 367 366 364 364 358 358 353 354 354 359 359 363 364 359 364 364 364 358 363 364 362 361 357 355 355 358 353 352 354 341 335 343 350 351 354 357 355 355 361
349 352 357 361 365 365 364 363 362 362 360 355 357 354 353 354 359 363 361 364 365 363 365 362 365 364 360 358 355 355 351 349 346 344 342 345 343 348 349 349 355 355 356

GFSSE_sfc_thetae_120.txt.gz
Theta_e
345 348 360 362 365 365 365 365 364 365 363 365 365 366 366 367 366 366 366 366 366 366 366 365 365 365 364 366 366 364 363 364 361 358 358 359 360 361 361 362 358 351 358
347 352 364 367 368 366 366 364 364 365 363 363 366 366 366 366 365 365 365 366 366 365 367 367 364 364 364 364 365 362 361 362 362 361 359 360 361 362 362 363 362 357 360
349 355 360 367 369 367 366 364 365 364 364 363 366 366 366 366 365 365 366 367 367 366 366 363 363 363 364 363 364 363 362 363 363 363 366 354 355 362 362 359 358 358 361
352 354 357 368 370 369 368 367 365 366 364 364 364 365 367 366 366 366 365 367 366 367 364 361 361 362 363 363 362 363 363 361 361 362 355 348 348 358 357 356 355 359 357
353 355 362 370 370 369 369 368 367 367 367 366 365 364 366 366 365 366 366 364 366 366 364 362 361 362 363 363 363 359 358 357 356 355 354 344 343 354 359 360 358 358 361
352 358 368 371 371 369 368 368 367 367 367 367 366 365 366 366 366 366 365 363 363 363 363 362 361 362 363 361 360 359 360 359 357 354 351 350 345 360 360 360 358 357 355
356 360 364 370 370 369 369 369 368 367 367 368 366 365 366 366 367 366 363 363 364 364 363 363 362 361 361 361 360 359 358 358 356 353 354 349 354 362 360 359 354 358 359
357 357 362 368 369 370 369 367 368 368 367 366 367 365 364 366 366 366 365 363 361 362 362 363 362 361 360 361 358 358 358 357 359 352 352 356 362 364 361 358 357 355 354
355 357 360 361 365 368 369 368 368 367 365 367 366 366 366 366 364 364 366 365 362 362 361 359 361 360 359 359 357 358 361 363 357 354 351 353 360 360 358 357 358 359 358
353 355 358 361 362 361 361 368 367 367 367 364 365 364 364 362 362 362 364 364 362 361 360 360 360 361 361 359 359 361 362 362 355 352 352 354 361 360 356 353 354 356 355
354 354 357 359 361 362 362 363 367 366 364 363 363 364 364 357 358 359 362 363 361 361 360 360 362 364 363 360 360 362 361 354 352 348 348 362 362 362 360 358 355 355 354
351 352 354 356 357 360 354 364 362 361 360 362 362 362 361 361 359 359 361 362 361 360 361 362 363 362 360 355 355 360 356 351 353 346 349 362 363 363 364 361 359 356 353
353 353 355 354 356 356 355 358 357 358 360 363 362 364 360 361 358 362 359 358 357 357 357 359 359 357 353 353 352 349 349 350 350 350 352 361 362 364 364 362 360 357 355
350 353 355 357 357 355 359 357 359 357 358 358 359 363 362 359 353 360 360 360 361 357 353 354 354 352 350 351 350 349 348 349 347 354 354 360 360 362 362 362 361 358 357
350 353 356 359 360 359 364 359 357 358 358 358 357 364 363 366 361 355 361 360 359 358 354 355 356 352 353 354 353 354 352 352 350 355 356 362 362 362 363 362 362 359 359
352 354 357 362 361 362 362 365 361 360 352 360 359 362 362 357 364 358 359 357 353 355 355 357 357 357 356 354 350 352 351 354 352 356 358 360 361 363 364 364 363 362 361
354 356 357 360 364 364 364 363 365 360 355 360 359 362 358 360 356 357 356 356 356 358 356 361 359 357 356 357 350 348 354 355 353 357 353 355 357 364 363 364 364 363 364
356 357 360 357 362 364 364 363 361 357 357 358 360 363 359 357 360 360 357 356 359 357 355 359 354 354 354 352 350 349 349 351 356 355 358 357 360 357 362 363 364 363 364
360 360 362 361 362 362 362 365 364 364 364 354 358 363 361 357 360 357 355 354 360 356 354 353 351 353 350 349 348 349 351 353 353 350 354 356 360 355 356 360 363 361 364
362 360 363 363 361 364 364 364 360 359 358 357 357 357 364 361 359 358 356 354 357 354 352 349 352 352 350 347 343 343 346 348 351 352 353 353 354 357 357 359 357 358 362
361 363 361 361 361 360 358 357 357 351 354 355 355 364 361 359 360 360 354 360 357 353 353 350 351 353 349 351 347 345 349 348 348 348 348 347 351 357 357 359 358 356 357
359 363 364 363 365 362 358 359 358 356 354 355 357 359 361 360 360 359 356 356 357 354 361 359 356 348 348 351 343 344 338 341 345 346 347 349 350 355 353 356 359 359 356
355 362 364 362 361 363 362 360 359 359 358 352 352 355 359 360 359 359 357 355 360 358 354 357 358 354 343 346 349 342 335 331 339 343 346 347 350 348 350 355 357 359 362
349 355 365 361 357 361 360 358 357 351 349 351 351 352 357 362 360 360 360 356 358 357 354 351 354 350 346 345 348 344 342 348 338 337 345 352 350 343 339 353 357 360 360
349 361 363 364 364 361 361 357 356 354 351 356 353 355 353 357 358 359 359 360 355 358 356 356 353 351 347 347 347 350 344 348 349 342 336 342 347 342 341 353 357 341 344
343 350 360 363 364 362 361 359 355 353 352 351 353 351 352 354 355 358 359 358 359 356 356 358 358 356 353 351 351 349 345 346 344 343 340 341 341 348 351 356 352 350 352

GFSSE_sfc_thetae_123.txt.gz
Theta_e
345 354 363 365 366 366 365 364 363 365 364 366 366 367 366 367 367 368 367 368 366 366 367 365 364 364 364 365 365 364 363 361 362 358 361 360 358 360 363 360 358 355 361
345 352 365 367 366 365 364 364 364 365 364 365 366 366 366 367 367 367 367 367 367 367 365 364 365 363 365 363 362 363 360 362 362 362 361 362 361 360 361 360 358 357 358
345 355 361 367 368 365 365 365 364 363 364 365 368 366 365 366 367 368 368 366 364 367 367 365 364 364 364 363 363 358 359 362 363 360 361 355 355 361 361 360 358 357 360
351 355 361 367 368 367 366 366 365 365 364 366 368 366 366 366 367 368 366 367 367 363 363 363 363 364 363 363 363 362 360 360 361 365 352 351 354 359 357 359 361 359 360
351 355 362 369 369 365 366 367 366 367 366 366 366 366 366 367 368 368 366 364 365 365 362 362 362 363 362 362 362 361 361 361 357 355 345 340 345 355 355 356 356 355 357
350 359 368 371 370 368 366 367 367 367 366 366 366 367 366 367 368 367 365 365 364 363 363 362 362 364 361 359 360 361 361 357 357 351 342 349 351 361 360 362 360 360 360
357 362 365 370 370 369 369 368 367 367 366 367 366 366 367 367 368 367 364 364 365 364 364 363 362 363 360 359 358 357 359 356 356 352 344 350 355 362 358 357 358 355 354
357 361 363 369 370 370 368 367 367 365 365 365 367 367 367 368 368 367 364 363 363 363 365 363 363 361 359 359 358 357 359 357 358 350 349 352 360 363 359 355 356 357 355
357 359 360 362 363 367 368 367 367 367 366 366 366 366 367 366 364 365 365 364 362 364 362 361 361 362 359 360 359 358 359 361 355 351 354 357 362 363 359 357 356 356 354
355 357 358 358 359 361 361 368 369 368 366 364 363 363 363 363 363 363 365 365 363 362 361 360 360 361 359 359 358 359 361 360 352 350 349 354 362 360 357 357 359 358 360
352 353 356 356 356 356 358 361 367 366 364 364 363 362 363 354 355 358 361 361 361 361 360 361 360 361 360 360 360 360 360 353 350 349 349 359 360 360 356 354 356 355 355
347 350 353 354 354 355 360 357 357 357 357 355 356 356 355 352 352 357 360 363 360 362 361 361 364 361 360 354 353 360 354 351 351 345 352 363 363 364 359 358 358 356 355
346 350 351 352 353 353 355 357 357 355 354 354 354 355 355 355 353 354 354 354 353 358 354 359 359 356 353 352 349 348 351 347 347 343 351 363 363 365 362 360 359 357 355
345 347 350 351 351 350 354 352 352 353 354 355 353 356 353 350 349 349 352 353 351 349 350 353 353 353 351 348 347 345 343 345 348 349 352 362 363 365 363 361 359 357 356
345 347 347 349 349 348 350 349 351 351 353 353 352 355 353 350 344 350 352 353 354 353 349 349 351 348 346 346 346 345 345 346 348 351 352 362 362 364 365 361 359 358 356
347 347 348 348 348 352 351 350 351 351 351 351 351 352 355 354 352 350 351 352 354 353 352 351 350 348 348 347 345 345 344 346 352 351 351 357 362 362 363 364 361 359 359
346 349 350 350 351 353 352 354 354 352 353 354 352 356 357 353 356 352 352 350 350 352 350 350 351 350 349 350 342 342 343 345 349 351 353 352 357 363 364 364 364 363 363
346 349 352 356 351 355 351 354 353 353 350 353 353 357 355 354 353 354 351 350 352 352 350 351 349 347 347 345 344 340 342 342 343 350 355 351 354 358 362 363 363 364 364
347 350 352 355 353 355 355 353 351 354 350 354 354 356 354 353 354 353 352 351 350 350 348 348 346 345 345 344 344 342 341 342 341 345 347 349 353 354 353 362 363 363 365
350 352 351 353 356 355 354 354 354 352 350 348 353 357 354 352 355 351 352 349 350 349 346 346 342 346 345 344 344 341 338 340 342 344 344 349 350 354 353 354 357 358 363
351 351 355 351 355 355 352 350 348 349 347 347 347 355 355 352 354 351 351 350 350 349 348 346 346 343 344 344 341 335 339 339 339 341 342 342 345 349 350 352 353 352 354
353 353 353 353 356 354 353 352 350 351 347 347 347 354 358 356 354 351 350 348 350 349 347 347 344 341 342 341 334 334 328 333 340 341 342 341 340 345 350 353 353 352 351
350 353 354 355 356 354 353 352 351 352 348 346 347 348 354 354 353 352 351 346 349 346 346 347 345 341 334 337 338 331 324 324 329 335 340 341 339 341 344 347 353 353 352
341 350 356 356 358 356 356 351 349 348 346 346 346 347 353 354 354 354 352 349 347 350 345 348 347 345 341 336 338 340 335 335 328 328 336 340 343 341 337 337 349 350 353
341 357 356 354 351 351 353 349 349 347 349 348 346 343 346 353 354 354 353 350 346 350 348 347 344 345 345 339 341 340 336 334 335 332 328 333 340 339 337 334 343 344 348
336 344 353 351 350 352 350 350 346 344 346 345 345 346 346 348 353 353 353 353 349 349 348 349 347 345 345 341 340 342 340 335 336 336 332 333 334 339 343 342 347 343 346

GFSSE_sfc_thetae_126.txt.gz
Theta_e
348 357 365 366 366 365 365 366 366 364 365 364 363 365 367 367 367 368 369 368 368 365 365 365 364 364 364 364 364 361 360 358 359 357 358 360 361 361 361 359 359 354 359
352 356 365 366 365 365 364 366 364 364 366 365 364 366 367 367 368 369 367 368 366 363 364 364 364 364 364 363 362 359 357 363 364 361 360 359 360 357 356 356 359 356 359
350 357 362 366 366 365 366 365 366 364 363 366 366 366 367 368 368 367 365 367 367 366 365 364 363 363 362 360 360 358 358 363 362 361 360 353 354 359 359 358 356 357 359
354 356 361 366 367 365 365 365 364 362 363 366 366 366 368 368 368 366 364 365 367 365 363 365 364 364 364 361 360 362 362 360 363 360 353 353 353 358 358 358 359 358 357
353 358 362 369 367 365 365 366 365 365 365 365 366 366 368 369 369 366 365 364 362 362 362 362 364 363 363 363 361 360 360 360 360 352 345 345 344 352 359 358 358 359 359
354 358 367 368 365 366 365 366 366 366 365 366 366 366 367 368 368 366 364 365 364 362 361 362 363 363 361 361 360 360 359 358 356 346 340 351 351 358 358 358 356 357 357
356 361 363 368 367 367 367 367 367 367 367 367 365 366 367 368 368 368 364 363 363 363 362 362 363 361 361 361 360 359 359 355 352 341 345 351 355 363 360 358 356 357 357
357 362 362 367 369 367 366 366 365 366 365 365 367 365 366 367 368 368 366 364 364 363 364 362 360 359 360 361 359 358 358 357 355 344 350 352 359 360 357 358 357 355 353
360 360 361 362 363 366 368 366 365 365 364 366 366 368 367 365 365 364 363 364 362 362 363 362 362 359 357 360 359 358 358 361 348 347 352 353 362 361 356 354 356 355 353
357 359 358 358 358 359 361 368 368 368 365 364 363 362 364 363 363 363 365 365 363 362 361 361 359 360 358 357 356 358 356 359 349 351 351 355 363 361 357 357 357 354 356
355 356 358 356 356 356 358 361 367 366 364 363 362 363 364 354 355 358 362 363 362 361 361 361 359 360 358 356 357 358 358 352 349 349 349 359 363 360 357 361 360 359 359
349 353 354 355 355 356 359 358 358 357 358 355 355 354 354 351 352 357 360 361 361 362 361 362 361 360 358 353 352 357 355 353 350 347 345 360 362 359 355 357 358 356 355
349 352 352 353 354 355 355 354 354 353 353 353 353 354 352 351 352 355 354 354 353 361 355 358 359 356 353 352 350 349 351 350 348 344 352 361 362 361 357 355 355 355 355
347 350 351 352 352 351 354 355 354 353 353 352 352 353 352 352 349 348 350 351 349 351 351 353 353 354 352 350 348 347 346 345 346 342 354 363 363 365 362 359 357 355 354
346 348 349 350 350 347 352 351 352 351 353 353 351 353 352 350 347 346 349 352 350 348 349 349 350 350 349 347 346 344 343 344 347 347 350 365 363 364 366 362 359 357 355
345 347 349 349 350 348 348 346 349 351 350 351 351 352 352 348 344 344 349 350 351 349 348 347 347 348 346 346 344 343 342 344 348 347 346 354 363 364 364 364 361 358 356
345 347 347 347 348 349 348 346 347 348 350 350 349 348 351 350 349 346 348 349 351 351 350 348 348 349 346 348 345 343 340 343 350 348 347 351 355 362 364 365 363 362 360
346 345 346 349 346 349 349 349 351 350 349 351 350 349 352 352 354 349 348 349 350 351 349 348 348 345 345 344 343 339 339 341 344 349 350 351 351 355 361 363 363 363 363
347 346 346 347 346 349 350 352 352 352 349 349 352 351 353 353 353 352 350 350 348 349 349 347 348 345 343 343 342 342 341 339 341 345 349 352 349 353 354 360 363 363 364
347 349 348 348 348 350 351 351 350 349 349 348 351 352 353 353 352 351 351 348 349 348 347 346 344 343 342 342 344 342 339 338 339 340 342 347 349 352 351 352 358 359 363
347 351 351 350 348 349 350 348 347 346 346 346 348 353 353 352 351 349 350 349 348 347 347 345 343 339 341 342 337 335 335 337 336 337 338 340 344 349 351 350 352 353 354
346 349 349 352 352 351 351 351 350 349 346 346 346 350 354 352 350 351 348 347 346 346 345 346 343 339 339 341 336 332 327 331 335 338 337 338 337 341 348 350 350 351 352
348 347 350 349 354 354 353 351 347 347 347 343 344 344 352 353 351 351 349 348 347 347 345 345 344 340 335 337 337 330 324 323 326 333 336 339 339 337 340 346 350 351 350
341 350 351 351 352 354 353 350 349 346 344 346 346 347 351 355 353 351 349 348 346 348 346 345 346 344 338 333 334 338 331 330 326 323 332 336 337 337 337 339 346 351 352
349 354 353 352 350 351 349 347 344 343 347 348 344 343 343 351 352 352 350 349 346 346 346 343 345 342 343 337 335 335 334 331 332 328 323 329 338 339 339 336 334 341 348
344 351 353 351 350 350 347 347 346 344 343 341 342 342 344 346 351 351 351 349 348 345 346 346 346 345 343 342 339 339 335 332 333 331 327 328 332 336 340 340 339 343 342

GFSSE_sfc_thetae_129.txt.gz
Theta_e
348 354 364 365 365 362 362 365 364 363 365 365 366 366 366 367 367 366 363 362 364 362 365 364 363 364 363 363 363 361 358 357 358 357 358 360 360 360 358 359 359 355 359
351 356 364 365 366 365 365 364 364 362 364 364 366 367 366 367 364 366 367 364 365 364 363 363 364 364 362 363 359 357 356 359 358 358 359 361 358 357 358 358 358 355 359
353 354 359 365 366 364 364 363 364 362 365 366 367 367 367 368 365 364 364 363 363 363 363 363 363 362 362 359 357 358 361 360 360 360 359 353 352 355 357 357 358 359 358
355 355 357 365 366 366 365 365 364 364 364 365 367 368 368 367 365 364 365 365 365 364 363 363 362 359 358 359 360 359 361 361 361 359 353 353 353 358 355 356 356 356 357
354 357 359 366 366 363 364 364 363 363 365 366 367 368 367 366 364 363 363 363 363 363 364 364 363 360 360 361 361 360 360 361 358 352 347 346 346 357 359 359 357 358 357
356 357 364 366 365 364 363 363 364 365 363 366 367 368 368 367 366 366 363 362 361 362 362 363 362 361 362 361 360 359 359 359 357 345 343 348 343 357 355 355 358 358 358
355 360 361 367 366 366 364 365 365 366 365 366 366 366 367 366 365 365 363 363 362 361 362 364 362 360 359 358 358 358 359 357 343 341 345 351 350 359 358 357 357 357 357
357 359 360 365 367 366 364 365 364 365 363 364 365 365 366 366 367 366 363 364 363 362 362 362 361 361 360 359 358 357 356 360 345 343 349 351 358 363 359 356 356 356 357
358 359 359 360 361 365 365 365 365 364 364 364 365 366 367 364 363 364 365 365 363 364 362 361 360 360 360 359 357 357 358 360 342 345 352 351 361 360 359 357 355 353 352
357 357 357 358 357 358 360 366 366 367 363 363 362 362 362 361 364 363 364 365 362 362 363 361 360 361 359 360 357 356 357 357 345 346 351 353 362 358 355 356 356 354 352
355 356 355 353 354 355 358 360 365 364 364 362 360 360 362 353 356 358 361 362 363 362 360 361 360 360 358 358 357 359 357 349 347 347 350 358 362 360 356 355 356 355 356
346 350 352 352 353 354 360 356 358 357 356 355 354 353 354 352 353 357 360 362 362 361 361 362 360 359 357 351 351 356 352 351 349 348 346 359 362 360 357 360 360 359 359
347 349 351 352 352 353 355 352 353 352 353 351 351 352 352 351 351 354 353 354 352 360 354 358 359 355 352 351 349 348 349 349 347 346 347 360 362 360 356 357 358 357 356
347 349 350 351 351 350 351 352 352 350 351 350 351 351 349 349 347 348 350 351 350 351 350 353 353 354 351 350 348 348 346 344 344 343 350 360 361 360 359 356 354 354 354
347 349 350 349 350 349 351 350 350 349 350 350 350 350 351 350 348 348 347 349 349 347 348 349 350 350 350 349 348 345 344 342 344 343 348 361 361 362 362 360 357 355 354
346 347 350 349 350 347 350 348 348 348 349 349 349 349 350 350 347 346 345 348 349 347 346 347 348 348 347 346 345 345 343 342 345 343 344 351 363 363 363 364 362 358 357
345 347 348 348 349 347 349 348 347 347 349 348 349 348 350 348 344 344 346 348 350 349 347 345 345 346 345 346 346 345 342 340 343 347 344 345 355 363 361 364 363 362 360
345 346 346 350 348 347 347 346 348 347 348 349 349 348 348 350 348 344 342 347 351 351 349 347 345 344 344 343 343 342 338 338 341 348 345 347 349 353 359 363 363 362 363
344 345 345 346 344 346 346 346 345 347 348 349 350 348 348 351 351 349 346 347 348 349 348 346 345 344 342 341 342 341 341 338 338 343 347 347 349 351 352 357 362 361 363
345 345 345 346 344 344 347 347 347 347 348 348 349 350 349 350 351 351 350 348 348 347 346 345 343 344 342 341 343 343 340 339 338 338 340 347 348 348 351 352 353 358 361
346 344 344 344 345 346 346 346 346 345 348 348 348 349 351 352 351 349 350 349 346 345 345 344 343 342 342 339 336 335 335 337 336 335 338 340 342 347 349 350 351 354 355
342 345 346 345 346 346 347 348 348 348 348 349 349 349 351 352 351 350 349 348 347 345 344 343 341 337 337 338 333 329 327 330 332 336 335 335 336 340 345 349 349 351 351
342 344 348 348 348 348 348 349 348 345 347 342 342 346 349 353 351 349 349 347 347 346 344 344 343 340 338 337 337 332 322 323 325 331 334 335 336 335 337 341 347 349 349
344 345 346 348 348 350 347 348 346 345 343 345 343 346 347 351 352 350 350 348 347 347 345 344 346 344 338 336 334 338 330 328 325 323 329 334 335 336 336 337 341 346 348
348 349 348 348 349 350 347 345 345 341 344 346 343 345 343 348 352 351 350 348 347 346 346 344 343 343 342 340 334 332 333 330 329 326 323 326 333 337 338 337 338 340 347
348 349 349 345 345 347 347 346 345 342 342 340 342 342 344 344 349 351 351 349 347 346 345 345 345 344 343 342 340 334 333 330 331 327 325 326 327 332 337 338 335 336 338